GFSWCAN_850_spd_000.txt.gz
Wind_Speed
41 40 39 36 34 31 29 27 25 23 22 22 23 26 30 34 32 24 23 13 8 5 13 11 9 13 12 9 5 11 5 1 4 4 3 4 3 5 2 4 6 7 6 4 3 2 8 8 4 7 6 5 13 24
39 38 36 33 31 29 27 24 23 21 21 21 22 22 27 32 29 24 16 11 9 7 9 10 9 11 6 8 15 20 6 6 7 4 1 3 2 2 2 3 2 2 6 4 8 6 5 15 8 15 6 7 12 21
39 37 34 31 29 27 25 22 22 21 19 20 20 19 23 28 30 25 19 15 11 16 12 10 11 11 9 8 9 9 5 7 7 6 9 3 3 4 4 5 1 4 6 2 2 4 13 17 21 27 21 22 22 18
36 34 31 29 26 24 23 21 20 20 18 19 17 18 20 23 21 19 18 17 11 10 6 4 9 11 10 11 7 6 4 13 12 8 5 3 3 9 3 3 3 4 7 4 5 12 17 19 19 20 22 21 21 21
34 31 29 27 25 22 21 19 18 19 18 18 17 15 16 18 17 17 19 14 14 5 6 9 11 10 8 7 6 4 5 11 9 5 3 3 5 4 2 2 3 9 7 4 6 20 11 16 19 14 16 21 22 19
31 30 27 25 22 19 18 17 17 17 17 17 16 16 16 17 16 15 6 9 11 11 6 2 4 5 7 7 7 9 9 7 7 5 4 5 5 6 4 4 12 18 20 22 19 20 17 20 19 19 22 22 20 16
28 27 25 23 20 17 16 15 15 16 15 15 14 13 13 12 12 6 6 10 10 9 4 4 2 4 6 6 6 6 6 4 4 3 4 4 5 7 3 4 22 19 19 19 19 17 15 18 17 16 16 14 13 15
24 22 21 21 15 13 14 13 13 14 14 13 12 11 11 11 11 10 10 10 10 6 4 3 2 2 3 3 3 2 3 3 1 2 2 3 6 3 3 14 18 18 15 16 14 13 14 15 14 11 9 12 14 20
20 19 18 21 24 11 12 13 12 13 13 13 12 12 11 8 5 8 8 8 7 4 6 3 4 3 3 3 2 2 0 2 1 3 2 5 1 4 2 11 13 10 9 11 10 7 8 6 4 7 10 14 23 20
21 18 17 17 19 18 12 12 13 14 14 15 15 5 5 8 12 10 4 3 3 4 4 4 4 2 2 2 3 1 2 1 1 3 3 2 2 3 14 11 10 11 12 9 7 2 5 9 10 16 18 17 15 10
22 20 18 17 17 17 16 15 16 16 17 12 4 5 14 14 5 3 4 5 4 4 3 3 1 2 2 2 2 1 2 0 2 3 3 1 1 6 11 12 13 11 8 7 4 6 8 13 17 14 13 13 10 4
19 19 21 19 17 17 18 16 15 13 8 8 12 15 8 3 4 5 2 2 2 2 2 2 2 2 2 3 4 3 2 1 4 1 1 1 2 5 16 18 18 17 17 17 14 17 17 15 15 14 8 3 4 8
22 20 17 17 18 14 15 16 12 14 22 11 5 4 3 5 4 3 4 1 1 1 1 2 1 1 2 1 5 2 3 3 4 1 1 2 8 7 9 12 15 16 16 15 17 17 14 11 8 5 3 6 11 11
19 18 17 16 14 12 11 13 15 16 6 5 4 4 2 2 2 2 1 2 2 2 3 3 3 2 2 2 1 2 1 1 2 1 2 2 3 3 8 9 11 10 10 13 12 9 7 4 3 3 6 8 9 10
16 16 15 15 10 9 10 11 11 8 4 5 4 3 2 4 4 3 5 5 5 5 5 4 4 2 2 2 2 2 2 1 1 2 1 10 7 8 7 7 7 7 6 3 1 4 5 6 6 6 7 8 8 8
11 11 18 16 12 9 8 8 7 6 5 5 5 4 6 4 3 4 6 6 5 5 6 4 2 2 2 1 2 2 3 2 1 1 9 8 5 4 7 5 4 1 1 1 1 3 5 7 8 9 9 8 9 12
5 13 12 12 11 9 9 11 4 6 6 4 4 8 5 9 6 5 6 4 5 2 2 3 3 3 2 2 1 1 3 3 8 11 10 9 4 3 3 3 2 1 1 2 3 4 6 7 8 10 12 13 13 14
13 10 8 8 6 8 10 7 5 6 6 5 3 5 6 8 10 8 6 4 1 3 2 2 5 2 4 5 2 3 6 12 11 12 8 4 3 3 4 2 1 1 2 4 6 6 8 9 11 12 14 17 19 21
15 12 10 7 6 4 4 5 5 5 6 5 7 7 5 7 7 7 5 3 3 4 4 3 3 2 3 4 5 11 11 12 9 8 6 2 4 3 1 1 4 4 3 3 4 4 6 8 12 16 21 25 28 30
12 12 12 11 5 5 5 5 5 5 3 3 3 3 3 3 1 3 5 3 3 2 1 1 4 2 2 4 3 3 6 6 5 6 8 6 3 4 5 5 3 2 2 3 5 8 12 17 21 25 27 27 29 31
9 12 12 11 9 9 5 4 5 4 3 2 2 1 0 2 3 1 2 3 1 2 1 2 1 5 7 10 11 9 8 7 5 3 6 5 4 4 5 3 1 3 6 9 13 17 20 23 24 25 26 27 28 29
12 10 8 8 6 5 6 7 4 3 2 2 2 1 1 1 2 2 2 2 2 2 2 1 0 6 9 9 8 8 6 4 3 2 3 7 8 5 1 3 6 9 12 15 18 19 20 21 23 25 26 28 29 30
9 9 6 8 5 6 3 3 3 2 1 0 1 2 2 2 2 4 2 3 2 6 5 3 1 5 7 6 6 10 9 5 3 5 7 5 1 2 6 9 12 14 15 16 18 20 21 23 25 28 29 30 31 32
8 4 4 5 6 2 3 3 3 3 2 1 1 2 1 1 4 2 2 2 3 4 5 6 6 8 11 11 8 6 7 6 5 4 1 3 4 7 9 10 12 14 16 18 20 21 23 26 27 28 28 29 29 30
2 5 3 3 2 2 2 2 2 2 2 2 1 3 3 4 1 1 1 1 3 4 6 12 11 9 8 8 7 5 4 2 2 2 3 5 6 7 8 10 13 16 19 22 24 26 27 27 26 26 26 26 26 26
5 4 2 1 1 1 2 0 3 2 1 2 4 1 3 3 2 2 1 3 4 6 7 7 10 11 8 5 3 2 3 4 4 3 3 3 5 8 11 14 17 19 22 24 26 26 26 25 24 23 22 22 23 24
2 2 0 2 2 3 4 6 4 3 3 3 1 1 1 2 1 2 2 4 6 7 7 6 4 3 2 1 2 3 4 4 3 2 4 6 10 13 15 18 21 21 22 22 21 22 23 22 21 21 21 22 23 24
1 1 0 2 4 5 3 1 1 1 2 2 2 2 1 2 1 2 3 4 4 3 2 3 4 5 2 1 2 4 4 4 3 5 8 11 13 15 16 17 18 19 19 19 20 19 19 20 20 20 21 23 24 24
1 2 4 3 3 2 2 2 3 3 5 2 2 2 2 2 3 6 6 4 2 1 3 3 3 1 2 2 3 3 4 5 7 8 10 12 14 16 17 19 19 19 19 19 18 19 19 18 18 20 20 21 21 21
4 7 3 2 1 1 0 5 6 5 3 1 3 5 5 6 5 5 3 3 4 4 2 1 2 4 4 3 3 5 6 8 10 13 16 18 19 20 20 19 19 19 20 20 20 18 18 17 16 16 16 16 16 16
4 3 2 2 1 1 4 6 4 2 2 1 2 2 6 7 7 5 4 3 1 2 4 5 4 3 4 5 7 9 11 13 15 17 18 19 19 20 20 20 20 20 20 20 19 19 18 17 17 17 17 17 16 16
3 2 4 2 1 2 4 2 3 2 2 2 2 3 5 5 4 4 2 2 1 3 2 2 2 3 5 7 10 13 15 17 18 18 18 18 18 19 20 21 20 18 18 18 17 17 17 17 17 17 17 16 16 16
2 3 3 3 2 2 2 5 1 0 2 1 2 2 3 2 3 3 1 1 1 2 3 3 5 8 11 13 15 17 17 18 18 18 18 20 20 20 20 19 18 17 17 17 17 16 16 16 16 16 16 15 15 15

GFSWCAN_850_spd_003.txt.gz
Wind_Speed
45 41 39 36 35 33 31 29 27 25 24 25 27 31 36 41 46 27 21 15 8 4 15 10 14 15 10 10 5 11 6 1 3 3 3 3 3 4 2 3 5 5 5 3 3 1 6 6 4 5 4 4 6 10
41 39 36 35 33 31 29 28 26 24 22 21 24 30 35 39 43 29 21 17 8 6 8 12 12 13 10 14 16 22 8 6 8 4 1 3 2 1 2 2 1 3 4 3 7 4 4 13 9 11 10 9 11 11
38 34 33 32 31 30 29 28 25 24 22 21 21 28 35 40 40 23 22 17 13 14 12 10 11 11 13 12 13 10 6 9 8 7 8 2 3 3 4 5 1 3 5 3 1 2 10 15 17 23 25 26 27 27
34 32 31 30 29 28 28 28 24 24 22 21 22 27 33 36 31 27 19 20 12 9 7 5 9 10 13 12 9 8 12 14 14 8 5 3 3 7 3 2 3 3 8 4 4 11 15 12 13 11 13 15 18 17
31 30 29 29 27 27 26 25 24 23 22 22 25 28 30 30 33 17 18 19 14 4 7 9 14 10 11 11 13 12 11 15 10 5 3 2 6 5 2 1 3 10 6 4 5 17 8 14 15 15 17 17 19 19
28 28 27 26 26 26 25 23 23 22 21 24 25 24 25 28 29 27 7 11 13 14 8 3 5 7 12 13 15 16 12 10 5 5 3 5 4 4 4 3 11 16 18 20 13 14 16 21 21 18 16 17 18 16
25 25 24 24 23 23 23 21 21 21 22 19 23 23 22 23 21 14 9 12 14 12 6 4 3 5 9 9 7 6 7 4 3 4 3 4 3 6 2 3 5 11 12 15 16 15 15 13 9 15 16 15 11 6
22 22 22 23 19 19 17 18 19 20 21 20 19 19 17 16 18 17 16 16 13 7 5 4 1 3 4 3 3 2 4 5 3 3 3 3 5 2 3 4 14 13 14 3 8 7 10 10 11 9 6 4 6 14
20 19 19 19 14 13 15 15 17 18 19 18 17 17 17 15 7 12 15 12 9 6 6 3 5 4 3 3 3 3 2 3 1 1 1 4 1 3 3 12 15 15 11 14 11 6 3 2 4 3 3 8 16 21
16 15 15 17 15 9 10 12 14 16 17 17 14 4 5 9 21 14 5 3 4 5 5 4 3 2 2 3 3 3 3 2 2 1 4 2 2 5 9 7 8 11 10 4 1 5 8 10 11 12 17 17 16 15
16 14 14 13 16 20 4 8 10 11 12 7 4 6 16 12 4 4 5 6 5 4 4 3 2 3 2 2 2 1 2 1 2 2 3 2 2 2 11 15 15 15 16 17 12 11 12 14 18 19 16 15 13 11
16 14 14 13 15 16 12 8 8 8 5 8 12 15 7 4 6 7 2 2 3 2 2 2 3 3 3 3 4 2 3 1 3 3 1 2 2 9 8 14 17 17 19 21 18 18 16 15 13 12 11 9 5 6
15 17 14 11 11 12 13 11 8 7 14 10 4 4 4 5 6 4 5 2 2 2 3 3 2 2 3 2 5 2 3 2 5 2 1 2 9 8 15 15 15 14 12 13 14 13 11 9 6 3 1 6 10 11
16 14 11 13 14 13 13 13 18 15 6 4 4 5 3 2 2 1 2 2 3 3 7 7 4 2 2 3 1 2 1 1 3 3 3 4 6 13 12 9 9 7 9 9 8 6 5 5 5 6 7 8 9 10
16 12 7 11 12 9 9 12 12 8 6 5 5 3 3 4 5 5 6 5 4 5 5 5 5 2 2 3 1 2 2 1 1 2 1 12 14 11 8 4 3 5 6 2 2 5 5 6 7 7 8 8 8 9
13 17 20 13 10 9 11 11 12 8 6 5 7 4 4 5 4 5 8 8 6 7 6 4 2 2 2 2 2 2 4 3 2 2 16 13 13 11 10 5 3 2 1 2 1 2 4 5 6 7 8 9 9 11
12 20 17 15 12 10 9 9 6 8 6 4 5 10 8 11 7 6 7 5 5 2 1 2 2 1 2 2 1 1 2 3 12 15 13 12 7 0 3 4 5 2 1 2 1 3 4 5 6 8 10 12 14 17
16 14 12 10 11 12 13 9 7 7 7 8 5 7 11 9 10 8 7 5 3 3 1 1 4 2 3 4 2 3 4 10 11 13 11 4 3 3 3 4 4 3 1 0 1 2 3 5 8 11 14 19 23 26
18 15 10 7 6 5 5 7 7 6 8 5 7 9 9 9 10 10 7 5 9 6 4 1 3 1 2 3 3 10 11 12 13 10 5 5 6 6 7 5 1 2 1 1 2 4 6 8 11 16 21 25 26 27
14 13 13 10 5 5 5 6 6 6 4 3 5 6 5 6 5 3 1 3 7 4 3 2 1 2 1 3 6 7 10 10 8 9 9 8 7 7 4 2 2 3 2 2 4 6 11 15 18 21 23 25 27 29
13 15 14 8 14 11 7 5 6 5 5 5 5 4 4 7 6 6 4 2 2 2 2 3 3 3 7 10 12 11 11 9 8 7 9 6 5 3 5 5 3 1 3 7 10 14 16 19 21 23 24 26 28 29
14 11 9 10 7 6 7 8 5 5 3 3 3 3 3 2 3 2 3 2 1 1 0 3 2 6 9 11 12 11 11 10 9 7 7 8 8 6 4 3 3 6 9 12 14 16 18 20 22 25 27 27 27 26
9 7 7 9 6 7 4 5 4 4 3 3 2 2 1 0 1 1 1 1 1 2 1 2 5 8 11 10 11 10 7 8 11 11 9 8 6 4 3 4 7 9 11 13 15 18 20 22 23 24 24 23 24 23
8 5 6 6 8 3 3 5 4 4 3 3 2 3 2 1 1 0 1 1 2 4 3 7 8 10 10 11 13 14 12 9 9 8 5 1 2 3 6 8 10 12 14 16 18 19 20 20 21 21 21 21 21 23
4 8 5 5 6 4 4 3 3 1 1 1 1 3 1 1 1 1 1 5 9 6 2 6 6 6 11 11 11 10 8 5 3 2 3 3 4 4 6 8 11 14 16 17 18 19 19 19 18 18 19 20 22 22
6 5 3 2 3 3 1 1 2 1 1 2 3 2 1 2 2 2 3 7 7 8 8 6 7 8 9 8 8 6 5 4 3 2 4 3 4 6 9 12 14 15 17 18 19 20 19 19 19 19 19 20 21 22
4 3 3 2 1 1 2 3 2 1 1 2 1 1 2 1 1 1 2 4 2 5 5 5 5 4 4 5 5 5 4 3 3 3 3 5 8 11 13 15 15 16 17 18 19 20 20 20 20 19 19 19 20 21
3 3 1 4 2 1 1 1 1 0 1 2 1 1 2 1 1 1 1 2 3 2 2 4 6 6 4 4 4 4 3 3 2 4 6 8 10 12 13 16 17 18 18 18 18 18 19 19 19 19 19 20 20 20
3 5 4 2 2 2 2 1 2 3 4 2 2 1 2 2 3 5 5 4 3 0 2 3 2 2 3 3 3 3 2 3 5 7 8 10 12 14 16 17 17 18 18 17 16 18 18 18 18 17 18 18 18 18
3 7 3 2 1 1 1 5 6 6 4 1 2 4 4 4 3 4 5 4 3 4 1 0 2 2 2 2 2 2 3 5 7 11 13 15 17 17 17 18 17 18 18 18 17 16 16 15 15 15 15 14 14 14
2 2 2 2 2 1 3 5 6 5 4 3 3 3 5 6 6 5 4 3 1 1 3 3 2 1 2 4 5 7 9 11 14 16 17 17 17 17 17 17 18 18 17 17 16 16 16 15 15 15 15 15 14 14
2 1 3 1 1 3 7 3 3 2 3 2 0 2 4 4 4 3 1 1 1 1 2 2 2 3 4 6 8 11 13 14 16 17 16 16 15 15 16 17 16 16 16 16 16 15 15 15 15 15 15 15 15 15
2 3 3 4 3 2 2 5 1 1 1 2 3 2 2 2 3 3 2 2 2 2 2 3 4 6 9 11 14 16 17 17 16 16 16 16 16 16 17 17 16 16 15 15 15 15 15 15 14 14 15 14 14 14

GFSWCAN_850_spd_006.txt.gz
Wind_Speed
29 30 22 33 33 27 32 31 30 32 34 36 37 40 43 46 47 27 25 23 17 8 6 16 14 12 10 11 6 11 7 3 2 2 2 3 2 4 3 2 4 4 5 3 2 3 4 6 5 3 3 4 4 5
30 26 30 39 36 29 27 27 29 32 33 34 36 39 41 46 46 28 25 21 18 7 6 11 20 17 18 17 12 20 2 7 8 3 1 3 2 1 1 2 3 3 3 1 6 1 3 10 7 4 6 10 11 11
44 38 31 30 30 31 31 30 29 29 30 32 35 39 43 47 46 29 17 18 12 8 6 6 6 12 14 17 17 10 6 8 7 7 6 2 3 4 4 4 3 4 5 3 2 3 10 11 12 14 13 14 14 14
32 33 32 32 32 31 30 28 27 26 27 30 34 38 42 46 47 27 17 16 12 10 6 3 9 8 11 16 16 13 15 16 17 8 4 3 3 4 2 0 2 1 8 4 5 12 10 9 9 7 8 10 13 13
34 32 31 32 32 31 29 25 23 23 24 28 32 37 42 45 45 22 17 16 17 5 5 6 11 7 8 13 10 12 21 19 11 5 3 2 5 4 2 0 3 8 5 4 5 10 6 10 7 8 12 13 12 13
32 31 30 30 28 28 28 25 23 22 25 27 31 35 39 43 35 23 13 14 16 11 6 4 4 5 11 16 19 20 17 13 6 5 4 4 4 4 4 4 2 1 6 8 7 9 12 13 11 7 7 11 11 9
30 30 29 29 28 26 25 24 23 26 29 31 32 34 39 42 31 22 10 15 20 16 5 5 4 5 11 13 9 9 9 6 4 5 3 4 4 6 3 4 3 8 10 10 7 8 5 7 5 8 7 7 8 12
28 28 28 27 27 26 26 23 25 27 26 27 28 29 33 35 17 7 7 14 13 6 5 4 2 3 7 2 3 3 4 4 5 4 3 3 4 1 3 3 9 10 10 3 12 9 4 5 6 9 9 11 13 14
27 28 27 25 25 25 21 22 26 25 26 27 28 30 29 23 16 18 14 13 9 4 5 3 5 4 4 4 4 3 3 3 2 2 2 4 2 4 2 6 8 10 9 8 5 9 10 9 10 9 9 13 18 18
22 25 28 25 19 16 15 20 24 28 21 20 18 8 6 8 26 17 4 3 2 5 5 4 2 3 2 2 3 3 3 2 2 2 5 2 2 4 2 3 4 8 11 5 1 7 11 14 14 15 16 15 14 13
13 13 15 14 17 17 12 11 15 19 17 10 5 6 17 12 4 4 4 5 5 3 5 4 3 4 3 2 3 3 2 1 3 3 3 3 2 4 6 8 10 9 9 10 11 12 13 15 16 15 14 12 10 6
11 11 12 13 15 8 8 9 11 16 11 8 13 14 6 3 4 6 3 2 3 2 2 2 3 5 4 4 4 3 3 1 3 4 2 3 4 8 9 13 15 15 15 16 18 18 15 12 9 7 4 2 5 8
13 9 10 11 12 13 15 6 13 20 19 9 4 4 4 7 6 3 4 2 2 1 2 3 3 3 3 4 5 2 3 2 4 2 2 3 12 13 16 16 13 12 12 12 11 10 8 6 4 4 6 7 8 9
17 16 14 13 13 13 12 10 11 13 8 6 7 5 4 3 4 3 2 2 3 4 9 9 5 2 2 3 1 2 2 2 4 4 3 4 15 19 17 12 9 9 9 9 8 6 5 5 6 6 7 8 9 9
15 14 11 13 13 12 12 12 12 11 7 6 5 4 4 3 5 4 5 5 5 6 6 6 5 2 2 3 2 3 3 3 2 1 2 14 20 17 12 9 7 9 7 4 2 3 3 4 4 5 5 7 7 8
16 15 16 15 15 14 12 10 10 10 7 6 7 3 4 4 3 6 10 10 5 5 5 5 2 2 2 2 3 2 2 2 2 3 15 18 15 12 10 8 6 3 5 3 2 1 1 1 2 2 3 5 7 11
20 22 15 14 12 11 11 11 7 9 6 4 5 9 10 11 7 6 7 6 6 3 2 1 1 3 2 2 2 1 2 2 8 16 18 17 12 10 9 5 6 5 6 6 3 3 2 1 2 3 5 10 14 17
18 15 13 12 14 16 17 10 8 7 7 9 4 7 14 13 13 12 13 12 5 3 2 2 3 1 1 2 2 3 4 11 16 15 13 8 5 4 6 9 9 8 6 5 4 3 1 2 5 8 12 15 18 20
17 13 8 6 5 5 6 8 8 6 7 4 7 9 10 11 14 13 10 11 10 7 4 2 2 2 2 2 2 6 14 12 15 12 9 7 9 10 10 10 7 5 6 4 2 2 4 6 9 12 15 19 21 22
14 12 11 6 3 6 6 7 7 6 4 3 7 8 6 6 7 8 7 8 10 3 4 3 3 3 2 2 3 4 9 13 15 13 9 10 10 11 10 7 6 4 3 2 2 4 6 9 12 15 18 21 23 24
12 13 11 8 17 12 8 5 7 6 5 5 6 5 4 7 6 8 7 6 5 4 3 4 5 4 1 2 5 9 12 13 9 8 12 15 13 9 7 7 6 5 2 2 5 7 10 12 15 18 20 21 22 21
12 10 9 12 9 7 8 9 6 5 3 3 3 2 2 2 3 3 4 2 3 4 4 3 4 3 2 4 6 8 10 12 12 12 11 12 12 11 8 6 4 2 2 5 7 9 12 15 18 19 19 20 19 17
9 9 9 10 7 7 4 6 5 5 2 3 1 1 2 2 2 2 2 4 4 9 6 5 3 5 5 3 4 6 8 9 13 13 11 10 11 9 7 4 3 3 4 7 10 12 14 16 17 18 18 17 16 16
10 6 7 6 8 4 4 5 4 3 3 3 3 2 2 3 4 2 2 4 8 10 8 5 2 3 6 7 9 12 11 11 12 13 10 6 5 5 4 3 4 6 9 11 13 14 15 16 17 17 16 16 16 16
6 9 6 6 7 5 4 3 3 3 3 3 3 2 3 4 2 3 2 4 9 10 8 4 1 2 8 10 9 8 6 6 6 7 8 7 5 4 4 6 8 10 12 13 14 15 16 16 16 15 15 16 16 17
6 9 5 4 3 3 2 2 2 3 2 2 1 2 2 1 2 2 2 5 6 7 9 8 6 7 8 8 7 6 6 6 5 4 7 5 3 3 5 7 9 13 14 16 17 16 16 16 16 16 15 15 16 18
4 5 5 5 3 2 2 2 1 1 0 0 1 0 0 1 2 3 2 3 2 4 5 5 5 4 4 4 4 5 5 4 4 3 2 2 4 6 8 11 13 15 17 17 17 17 17 17 17 17 16 15 16 18
4 3 3 4 2 2 2 1 1 2 2 2 1 1 1 2 2 2 2 2 3 3 3 3 4 4 4 4 4 5 4 3 2 2 3 6 8 10 13 15 16 15 15 16 16 17 17 18 18 16 16 17 18 18
3 5 2 3 2 2 2 2 2 2 4 2 2 1 2 2 4 4 4 4 4 2 1 2 2 2 2 2 2 2 1 1 3 4 7 8 11 14 16 16 16 16 16 16 16 16 17 17 16 16 16 16 16 16
3 6 2 2 1 1 2 2 3 4 4 2 1 3 4 3 3 4 4 4 3 2 1 1 1 1 1 1 2 2 3 4 6 9 11 12 14 16 16 16 16 16 16 16 15 14 14 15 15 15 15 15 14 14
3 3 2 1 0 1 2 4 6 6 5 3 2 3 5 5 6 5 4 3 1 0 1 1 1 2 2 2 2 4 7 9 12 14 15 15 15 15 15 15 16 16 16 16 16 15 15 14 14 14 14 14 14 14
4 3 3 2 0 3 6 2 1 0 1 2 2 3 4 3 3 2 2 2 2 2 2 3 3 2 3 4 7 10 12 14 16 16 16 15 15 15 15 16 16 16 16 15 15 14 14 14 14 13 13 13 13 13
2 4 4 4 3 3 4 6 2 2 2 3 3 3 2 3 3 2 2 3 4 4 4 4 4 5 8 10 12 14 16 17 17 16 16 16 16 15 16 16 16 16 15 14 14 13 13 13 12 12 12 12 12 13

GFSWCAN_850_spd_009.txt.gz
Wind_Speed
30 30 27 27 29 28 30 30 31 41 50 46 37 42 51 51 50 33 9 16 19 13 10 13 14 17 22 19 7 12 8 3 3 3 3 3 1 4 2 1 5 6 6 3 2 2 5 7 6 1 4 6 7 9
26 26 26 27 31 30 33 33 40 43 31 39 44 45 47 52 49 28 12 20 17 11 7 7 11 15 14 18 17 20 8 13 10 4 2 2 2 2 0 3 2 3 3 1 5 1 5 7 4 4 6 9 11 12
28 32 27 30 35 36 22 22 30 35 40 41 42 44 48 52 50 27 13 22 13 7 6 6 7 11 18 20 14 8 7 9 8 4 6 2 3 4 4 4 3 3 3 3 1 3 5 7 10 9 8 8 10 12
15 18 23 24 23 31 36 31 31 34 37 37 39 43 47 52 48 22 10 22 14 9 4 4 6 5 14 17 20 12 10 15 15 9 4 3 3 5 3 1 2 2 7 5 6 11 8 6 6 4 7 9 11 11
30 26 26 28 26 27 27 28 29 31 34 36 39 42 45 53 47 11 17 20 15 9 5 8 7 1 6 14 14 13 13 16 12 5 3 2 5 4 2 0 3 6 3 3 3 7 6 8 8 8 9 7 6 7
32 31 30 29 28 26 25 27 30 32 35 37 39 40 45 53 49 13 7 12 12 11 5 5 3 4 9 12 13 14 11 8 6 6 4 5 4 4 4 4 5 4 3 4 6 10 9 8 4 7 6 8 9 10
32 31 27 27 25 23 21 25 29 31 32 34 37 40 45 49 46 11 5 9 11 10 3 5 5 3 8 9 6 8 7 6 3 5 3 5 4 6 3 4 8 3 4 3 5 7 4 9 6 8 9 12 12 13
34 33 30 27 26 25 26 27 31 32 33 36 37 38 39 41 24 12 7 5 12 15 3 4 3 5 3 3 4 5 3 4 6 4 3 3 5 2 3 7 4 5 3 4 7 7 8 8 9 10 9 7 11 15
33 31 33 33 35 37 41 39 36 36 36 38 40 42 39 23 10 11 7 7 18 11 4 3 6 4 4 4 4 3 2 2 2 2 2 5 3 4 4 3 3 5 4 2 6 8 9 10 10 11 11 13 14 14
30 28 30 29 26 26 32 37 40 40 38 38 37 21 10 10 24 20 11 7 7 7 1 3 4 4 4 3 3 3 3 3 3 2 5 2 3 4 4 5 7 8 8 5 6 7 10 12 12 13 14 14 11 8
26 27 21 22 22 21 23 25 31 36 30 19 6 4 14 20 15 3 1 2 3 3 6 4 4 5 3 3 3 1 3 1 4 3 4 4 3 6 8 9 6 8 10 11 12 13 16 16 14 13 10 7 4 3
14 15 18 19 19 18 17 20 20 20 14 15 22 22 11 5 2 4 2 2 2 2 2 3 4 5 4 3 4 3 3 2 4 6 3 3 4 11 11 10 11 12 15 17 17 16 14 12 9 7 5 4 5 6
14 13 12 13 17 17 20 18 21 17 22 18 7 5 4 5 5 3 3 2 2 2 2 3 3 3 4 5 5 2 3 2 6 2 3 2 13 14 16 14 13 13 14 14 12 11 10 8 6 5 6 6 6 6
16 12 12 11 9 12 21 17 14 18 12 8 7 6 4 3 4 2 3 3 2 3 9 9 6 3 3 3 1 3 1 1 3 3 3 5 16 21 18 14 14 13 14 12 10 8 7 6 6 6 6 6 5 6
18 16 13 11 11 11 13 11 7 5 7 7 6 4 4 4 6 4 4 5 5 5 6 5 5 3 3 3 2 4 2 3 3 0 2 14 23 22 14 12 12 12 12 9 7 6 5 4 3 3 3 4 5 5
14 18 19 18 15 13 10 8 11 11 7 5 7 4 3 4 5 8 11 11 6 5 6 5 2 2 3 2 3 2 2 2 3 2 13 22 23 14 12 11 11 10 8 7 6 5 2 2 1 1 1 3 6 9
14 19 13 14 14 15 17 16 9 9 6 4 5 11 10 12 9 7 8 6 6 4 2 2 2 4 1 1 2 2 2 2 9 15 17 19 15 12 11 9 7 6 9 8 7 4 4 3 2 2 3 7 10 13
19 14 12 14 15 14 17 11 8 7 7 9 5 10 15 14 14 14 17 12 6 4 3 2 3 1 2 2 2 2 6 15 17 19 17 14 11 9 8 9 10 11 10 7 4 4 2 1 2 3 6 10 10 11
14 10 6 5 6 5 6 8 8 6 8 5 9 11 11 11 15 14 15 13 9 7 4 2 2 2 3 6 3 6 13 15 18 14 12 10 10 12 13 13 12 9 6 5 4 4 2 1 2 5 8 11 12 12
12 11 6 2 2 6 6 7 7 7 5 4 7 8 6 6 10 11 11 12 9 4 6 4 4 5 7 7 5 5 8 11 13 12 10 9 11 12 12 11 9 7 5 5 5 4 2 2 6 9 12 13 13 13
8 11 8 11 20 13 8 6 7 5 5 5 5 5 5 7 9 9 8 9 8 7 5 5 7 8 8 6 3 3 7 7 8 10 11 12 10 11 10 10 9 8 6 4 3 3 4 5 9 13 14 13 14 11
12 8 11 13 9 7 8 10 6 5 4 5 5 4 4 4 5 8 7 9 6 8 7 8 8 7 7 7 5 2 2 5 5 9 14 15 14 12 11 10 8 6 4 3 3 5 7 10 13 14 13 14 12 11
9 11 10 10 7 7 4 6 5 5 3 2 1 2 3 3 4 3 4 6 6 10 9 6 7 7 7 7 5 3 2 3 5 7 9 11 12 12 9 8 6 5 3 5 6 8 10 13 14 15 12 13 11 12
10 7 8 7 9 4 4 5 4 3 3 3 2 2 2 3 3 3 3 4 7 9 9 8 5 5 7 7 10 12 11 12 14 13 10 8 8 7 5 4 3 2 4 6 8 10 11 12 14 12 13 12 12 13
6 10 7 7 6 4 3 3 4 3 3 2 1 3 3 2 1 2 2 3 8 10 10 9 8 8 7 8 8 8 7 6 5 5 7 6 6 5 2 2 3 5 8 9 10 12 13 15 14 13 14 11 13 14
7 10 5 5 4 4 3 2 3 4 2 2 3 2 2 1 1 3 3 4 5 7 7 9 7 5 6 6 5 4 4 4 3 3 4 4 3 2 2 2 2 8 13 15 15 15 15 15 15 15 13 12 14 14
5 6 6 6 4 3 3 4 3 2 2 3 2 1 1 1 3 3 3 5 3 3 5 6 6 6 5 3 2 2 1 2 3 2 2 1 2 3 4 6 9 13 17 17 17 16 16 15 15 14 13 12 13 13
5 6 4 4 4 4 2 2 1 2 2 3 3 2 2 4 3 3 3 1 1 2 3 4 4 3 3 3 3 3 3 3 3 3 4 5 7 9 11 14 17 17 17 17 16 16 15 15 14 12 13 13 13 12
5 5 3 4 3 3 4 3 3 3 4 4 5 2 3 3 3 3 1 2 3 3 3 4 4 4 3 3 2 2 2 3 3 3 4 4 5 8 18 19 18 17 16 15 15 15 15 15 14 14 14 14 13 13
5 6 3 2 2 2 3 5 4 3 4 3 2 4 5 4 3 4 4 3 2 0 1 1 1 1 2 3 3 4 4 5 7 9 10 10 13 17 17 16 15 15 16 15 15 14 14 14 13 11 11 11 11 13
5 4 2 3 2 3 2 4 3 2 1 3 4 5 5 5 4 5 4 4 3 2 3 4 2 3 3 3 3 5 6 11 12 14 14 15 15 15 14 16 16 16 16 16 16 15 14 14 12 11 11 12 14 14
5 4 5 3 2 4 6 4 2 1 2 2 3 3 4 4 3 2 4 6 4 4 3 4 4 3 4 5 7 9 11 14 16 17 17 16 16 16 16 16 17 16 16 17 17 15 15 14 14 13 13 13 14 14
2 3 4 3 2 3 4 6 1 1 3 3 3 3 4 4 4 2 4 5 4 4 4 4 4 5 8 10 12 14 16 18 18 18 18 19 19 18 17 18 17 18 18 18 17 15 15 14 14 14 14 14 14 14

GFSWCAN_850_spd_012.txt.gz
Wind_Speed
36 37 36 35 32 32 31 29 28 30 33 33 33 34 34 52 44 48 45 19 11 8 24 26 24 24 14 17 6 14 7 4 3 2 3 2 2 3 2 5 6 5 5 3 1 2 6 5 5 3 5 4 9 8
31 31 30 30 32 29 26 26 30 32 31 33 32 33 44 42 44 50 39 20 13 18 10 18 16 14 16 18 17 21 8 13 9 4 1 3 2 2 3 2 3 2 4 2 7 3 5 7 4 3 2 4 6 7
26 27 29 29 29 28 27 29 29 32 34 32 35 40 45 41 47 49 30 6 10 17 12 12 6 8 17 12 9 7 8 12 10 5 5 2 3 4 3 3 3 4 4 1 2 3 7 10 5 7 1 3 6 9
26 26 26 26 27 30 30 33 32 31 33 38 38 42 44 46 52 51 48 14 8 13 5 5 7 6 15 15 12 6 4 10 14 11 4 3 3 6 3 2 3 1 9 7 6 9 9 1 10 9 6 6 6 7
20 24 28 28 29 33 31 27 31 39 31 36 47 48 46 47 43 38 17 14 3 5 4 8 7 2 11 16 16 12 9 15 11 4 3 2 4 4 3 1 1 8 4 3 3 8 4 8 9 7 8 10 9 8
15 21 22 24 31 29 21 33 36 33 35 40 43 43 44 42 37 32 9 2 11 11 7 3 4 4 5 11 12 11 13 10 8 5 3 5 4 4 3 3 6 12 9 6 3 5 4 8 13 12 13 12 12 13
23 25 29 28 27 29 30 32 39 42 39 38 40 41 42 38 36 10 4 11 11 11 6 4 4 4 12 15 12 9 9 8 6 5 3 5 4 5 4 3 12 8 6 6 5 4 9 8 10 12 13 12 9 11
40 33 25 25 24 28 32 35 37 37 37 36 37 37 35 38 22 2 6 17 12 9 7 2 0 6 9 6 5 4 6 6 8 4 3 4 4 1 2 10 9 6 5 7 7 11 14 14 13 12 10 10 13 15
43 44 40 34 27 33 34 34 35 36 36 35 34 31 30 36 7 3 13 14 7 7 5 1 6 3 7 5 5 3 2 2 3 2 0 5 2 3 6 10 7 5 4 8 9 10 11 12 13 13 13 14 15 14
39 38 39 39 39 36 35 35 34 36 40 40 41 19 10 15 8 13 5 5 5 7 5 3 3 3 2 4 3 3 3 2 2 1 4 2 3 8 6 8 9 8 7 10 13 12 13 13 13 14 14 13 13 10
34 37 31 33 38 39 39 39 41 45 49 27 10 6 24 20 6 4 4 1 4 2 1 3 3 3 4 2 3 3 2 2 3 3 5 3 3 8 9 10 8 9 10 13 15 15 15 16 16 14 11 8 6 4
21 20 28 33 29 32 39 46 42 28 16 14 20 26 9 5 5 5 2 3 1 2 3 1 3 5 5 4 4 2 2 0 2 7 2 4 4 15 13 12 12 13 15 17 18 19 17 13 11 9 7 6 6 6
23 22 19 21 27 32 31 29 23 29 35 30 10 6 5 4 5 3 5 3 4 1 2 5 3 4 4 5 5 3 3 3 9 2 3 2 14 14 15 16 16 16 18 19 18 15 13 12 10 8 7 7 7 5
20 20 20 23 19 12 17 20 24 27 16 7 5 5 4 3 2 1 2 2 1 2 5 7 5 4 3 4 1 4 2 2 3 3 3 5 15 19 18 17 20 18 18 17 14 13 12 9 8 7 6 6 4 4
18 17 15 18 15 14 15 13 10 14 10 7 6 4 3 3 5 3 3 3 4 5 1 4 6 5 3 4 2 3 2 3 4 1 2 12 21 22 17 16 18 18 15 13 12 11 9 7 6 5 4 3 2 3
21 20 22 16 13 8 6 9 12 15 8 7 8 4 2 3 4 7 10 8 5 6 6 6 3 3 4 2 1 2 2 1 2 2 10 22 24 18 15 16 16 16 14 11 11 10 7 5 3 3 2 2 4 6
23 25 19 19 21 16 10 14 12 10 6 5 6 13 10 10 9 8 8 8 7 5 3 3 4 3 1 2 2 3 3 2 6 14 20 24 21 17 16 17 17 15 12 11 10 8 5 4 3 3 1 4 6 10
22 15 13 13 20 23 26 18 8 7 7 12 6 12 18 15 12 15 15 13 7 5 4 3 3 2 3 2 3 2 5 10 13 14 19 16 13 14 13 14 16 15 12 10 7 5 5 6 5 2 1 4 3 7
14 11 9 10 8 7 7 8 8 6 9 6 10 11 11 12 14 14 13 11 11 9 7 3 4 4 3 6 8 8 10 14 16 16 13 11 13 14 17 13 11 11 10 8 8 6 6 6 4 1 4 7 8 10
14 13 8 5 5 7 7 7 7 7 5 4 8 11 7 6 11 14 17 15 11 6 8 5 4 4 5 8 9 11 4 12 16 15 12 11 11 11 9 11 13 12 11 10 10 9 5 2 3 5 8 9 11 11
11 13 10 14 22 15 8 6 7 5 6 5 6 7 6 11 14 15 15 12 16 7 5 11 11 9 8 8 6 6 9 7 9 10 13 12 10 12 11 9 11 11 11 9 6 4 2 1 5 8 9 10 12 9
14 10 13 15 10 8 8 12 6 5 5 5 5 6 4 5 6 11 10 11 7 8 7 9 10 7 8 11 10 7 5 4 8 15 17 14 15 12 10 8 9 10 9 7 4 2 3 7 10 10 10 13 10 8
11 12 11 11 8 8 4 8 6 6 3 3 3 3 4 4 6 7 6 6 6 14 10 9 11 9 11 12 10 9 7 5 7 9 8 8 7 7 9 9 10 7 5 4 3 4 7 9 12 13 11 12 11 11
12 8 9 7 10 4 4 6 4 4 5 3 2 3 3 5 7 5 4 5 8 10 11 10 8 6 11 10 12 14 13 13 15 14 11 10 10 9 7 6 5 5 3 4 6 8 10 13 14 12 13 13 10 13
7 10 7 7 7 4 4 3 4 4 4 3 2 3 3 4 2 3 3 4 9 9 11 12 10 10 10 9 10 11 9 8 9 10 11 11 9 8 6 4 4 5 7 9 11 13 13 14 13 13 14 11 12 13
7 11 6 7 5 4 4 3 3 4 3 2 4 2 2 1 2 4 3 6 7 8 9 10 10 8 8 7 6 5 6 8 5 5 6 5 5 4 3 2 3 11 13 15 15 14 14 14 13 13 12 11 12 15
6 6 6 8 4 2 4 5 2 2 3 4 2 3 2 0 4 4 5 5 4 5 5 6 6 6 5 5 5 5 5 4 2 4 4 4 4 3 4 5 7 11 14 15 15 15 14 13 13 13 12 11 12 16
6 8 5 8 6 7 3 2 3 5 3 5 5 3 4 6 4 4 4 3 3 4 4 5 5 4 4 4 4 4 5 5 5 5 6 8 12 11 11 14 16 17 16 16 16 15 14 13 14 13 12 14 15 12
6 6 5 6 4 5 6 5 3 4 6 5 6 3 4 4 3 4 3 4 4 2 4 6 9 9 8 6 3 4 4 4 4 3 4 3 4 10 18 18 16 16 15 14 12 12 12 15 15 14 14 14 13 12
5 7 3 4 3 3 5 7 6 4 6 6 4 6 7 6 5 5 4 3 4 4 3 3 2 1 4 4 7 8 7 7 8 8 8 9 12 16 16 15 16 15 15 14 14 14 13 13 16 9 9 13 13 16
4 5 3 4 3 3 2 3 1 2 3 5 6 9 8 7 6 7 9 9 4 5 5 6 3 3 4 4 4 4 5 13 15 15 14 15 15 15 14 17 16 15 16 15 15 15 14 14 13 12 11 13 14 14
5 5 5 3 4 5 5 4 2 3 3 4 4 4 5 6 5 4 6 8 5 6 5 4 4 5 6 7 9 11 13 14 15 17 17 17 17 17 18 18 17 14 14 16 16 15 14 14 15 14 13 13 15 16
2 3 3 3 1 2 5 6 0 3 4 4 4 5 5 5 5 3 7 8 6 4 4 5 6 7 8 11 14 14 14 16 19 20 21 21 21 20 18 18 18 18 18 19 18 16 14 14 14 15 16 15 14 15

GFSWCAN_850_spd_015.txt.gz
Wind_Speed
39 37 35 34 31 30 30 26 24 29 35 46 43 46 43 41 38 40 49 33 10 6 18 12 36 22 18 18 6 21 9 2 3 4 4 3 3 4 4 7 7 6 5 3 3 2 5 7 4 6 6 11 10 9
32 31 33 33 31 29 27 25 23 24 36 35 39 39 35 41 43 41 37 40 23 19 10 10 30 34 29 29 21 25 13 9 8 4 2 4 2 2 3 2 3 1 6 5 6 5 8 6 12 12 10 9 6 7
31 31 31 29 28 27 27 25 26 28 29 33 34 36 30 43 37 48 52 29 23 12 11 13 22 29 24 24 28 12 10 10 7 9 6 3 3 4 3 4 3 2 4 4 5 2 6 13 7 12 16 15 10 11
25 26 25 27 27 28 26 25 26 26 32 30 35 31 37 39 42 49 44 31 14 4 4 7 14 22 25 28 19 18 18 15 19 16 7 4 4 6 4 4 4 5 5 5 2 4 19 18 18 16 16 13 12 10
25 25 27 28 29 28 26 26 27 31 30 34 35 31 32 35 39 38 35 32 21 2 4 0 14 14 15 19 21 12 15 26 17 5 4 3 6 5 2 3 1 5 6 4 4 3 17 10 15 10 12 13 12 9
26 26 27 27 25 24 25 28 30 30 33 34 30 31 35 31 31 19 7 43 50 42 8 3 7 8 9 12 12 13 15 11 6 6 3 4 4 5 3 3 1 15 15 14 7 12 20 19 15 11 13 13 10 8
25 30 32 29 28 31 29 26 25 28 27 32 35 33 30 31 31 16 3 3 12 11 2 3 3 5 8 12 10 9 12 6 5 5 3 5 3 6 3 4 11 16 15 14 17 23 17 8 13 11 11 12 11 14
26 29 29 28 29 29 33 30 25 34 30 28 30 30 29 27 32 19 8 12 12 8 7 3 2 3 6 4 4 3 5 5 7 4 3 4 3 3 2 10 19 18 17 13 11 11 25 24 17 13 13 14 16 18
19 24 25 25 27 30 33 34 36 33 31 35 36 32 27 30 23 22 15 16 12 8 6 4 3 2 2 5 4 4 4 3 2 2 1 4 2 1 3 17 16 16 10 23 23 22 19 16 15 17 19 19 20 17
29 29 34 36 37 38 41 39 39 38 38 35 31 10 7 5 12 8 6 4 6 6 5 3 4 1 3 3 3 3 3 2 2 3 4 3 2 9 15 17 14 12 24 26 25 20 20 22 21 19 18 17 13 10
44 33 31 37 38 38 38 43 44 44 44 24 4 6 22 11 6 6 5 5 3 4 5 4 6 1 4 3 3 2 2 1 3 3 4 1 1 5 15 17 12 15 20 17 16 21 17 20 22 20 16 12 10 8
40 40 37 35 35 38 42 44 46 43 21 11 18 17 11 7 8 6 3 4 5 3 4 2 5 3 3 2 4 2 3 2 2 1 2 2 1 23 21 17 16 16 18 21 20 22 24 21 17 14 13 11 10 10
36 38 38 43 43 47 50 39 24 33 41 34 11 6 5 7 7 1 2 2 2 2 1 3 3 3 2 4 5 2 2 1 5 2 2 0 13 20 20 20 21 18 21 22 23 20 19 19 15 12 13 11 10 10
29 30 30 36 31 25 26 43 32 26 12 8 6 6 3 3 2 2 3 2 1 1 10 9 5 3 4 4 1 4 0 3 2 4 3 3 15 20 20 22 26 29 23 21 20 19 18 17 15 13 11 9 8 8
20 18 23 21 22 20 19 16 16 10 8 8 7 5 3 3 7 3 3 5 4 5 7 5 3 2 2 3 2 3 3 4 2 2 1 13 17 21 20 25 29 25 19 18 18 18 16 14 12 11 10 8 6 4
26 23 22 16 13 12 6 8 11 13 8 7 9 4 4 3 4 7 10 7 5 5 5 3 2 2 3 1 2 3 3 2 1 1 10 18 21 18 23 25 22 18 16 18 17 15 13 11 10 9 8 6 3 1
31 30 21 17 13 11 9 9 12 11 7 5 5 13 10 9 7 7 6 7 4 3 2 2 4 1 1 3 3 3 2 2 5 10 17 22 21 19 20 19 18 18 17 14 14 12 10 11 10 7 6 4 1 3
26 19 18 20 23 21 22 17 8 8 8 11 5 13 20 17 14 14 12 11 4 4 3 3 3 4 4 3 3 2 6 9 9 14 18 14 17 16 19 22 20 16 12 12 13 12 13 13 11 8 5 7 5 6
15 11 10 11 10 9 7 8 8 6 9 6 12 14 12 14 19 19 16 12 15 12 7 6 5 4 3 5 4 12 7 12 17 16 12 14 15 15 16 17 16 14 12 13 15 15 16 14 8 5 3 2 5 8
18 15 12 7 5 8 8 7 8 8 5 5 11 16 8 9 20 24 23 20 18 9 9 5 4 7 6 10 11 11 5 12 16 17 16 15 15 17 16 15 13 15 17 18 14 10 10 8 4 1 3 6 8 8
16 16 13 22 29 16 9 6 8 6 6 6 10 9 8 19 23 21 17 20 19 8 6 12 13 12 11 12 11 10 9 6 8 9 16 16 13 11 14 13 13 12 11 12 12 10 5 1 3 5 7 8 8 7
17 13 17 16 11 9 10 12 6 5 5 4 6 6 6 5 8 15 17 16 8 13 8 11 12 11 13 15 13 12 11 9 10 15 17 18 18 17 15 14 14 12 9 8 5 3 3 3 5 7 8 10 9 8
14 15 12 12 8 8 5 8 6 5 3 3 3 4 4 4 8 6 7 8 8 15 12 9 11 11 11 11 13 15 12 11 15 15 13 13 13 12 10 10 9 9 7 6 4 3 4 7 9 10 11 11 10 9
13 9 9 8 11 4 4 6 5 5 5 3 3 3 3 6 6 6 4 5 10 13 15 14 7 11 12 14 17 16 14 13 15 15 12 10 12 12 9 9 7 6 5 3 1 4 7 10 12 12 13 12 9 10
9 12 8 7 10 5 5 4 5 5 3 4 4 3 2 4 3 3 3 5 11 9 16 10 9 11 13 11 12 13 12 10 9 12 12 10 9 8 8 7 6 4 3 5 8 10 11 13 13 13 12 11 11 11
8 12 6 7 5 5 5 3 3 2 2 3 3 1 3 2 4 4 3 8 9 8 9 13 8 6 8 7 7 7 7 6 7 7 8 6 5 4 3 1 4 6 11 13 15 14 14 14 14 14 12 10 8 11
6 6 7 7 4 3 4 2 1 4 5 4 2 3 2 3 4 4 4 7 6 6 5 5 5 6 8 10 10 10 9 6 6 8 8 6 5 4 3 5 9 11 13 14 14 14 14 14 14 13 12 10 12 14
6 7 5 10 9 11 4 5 4 4 3 7 7 5 3 4 3 4 6 5 6 7 7 8 8 6 5 5 4 4 4 5 7 7 6 6 8 10 13 17 18 18 18 17 16 15 15 14 15 16 14 14 13 10
6 6 4 6 6 6 9 7 4 5 7 7 4 3 4 6 8 7 8 3 9 7 6 9 9 10 9 10 8 7 6 5 2 1 1 3 8 13 17 18 18 17 18 17 15 14 13 13 14 16 16 11 11 11
7 9 3 6 5 4 6 7 8 7 9 8 7 11 13 10 8 4 3 5 7 6 5 3 1 1 4 4 7 6 6 8 9 10 10 11 13 15 14 16 18 19 18 18 17 16 15 15 15 13 11 10 10 15
4 7 4 5 5 4 3 3 4 5 5 7 9 10 11 9 10 10 10 9 6 6 4 7 5 5 4 4 5 7 11 13 15 14 14 15 15 15 16 18 19 18 17 15 17 19 19 17 13 14 16 14 13 17
5 5 4 4 4 5 5 3 2 3 5 6 6 6 8 6 5 5 8 6 5 4 4 5 6 7 7 8 11 12 13 14 16 18 20 20 18 19 19 17 16 16 17 18 18 19 18 16 14 13 16 19 20 21
4 6 7 4 4 3 6 5 3 4 6 4 5 7 6 5 5 3 5 7 7 8 7 7 7 8 10 13 14 15 16 17 19 21 21 21 21 20 19 20 21 19 18 16 16 15 14 12 11 14 18 20 21 19

GFSWCAN_850_spd_018.txt.gz
Wind_Speed
43 42 42 40 38 38 37 37 37 37 38 42 41 40 41 42 57 49 49 40 13 8 12 17 34 31 31 28 8 7 6 2 3 4 4 4 4 5 4 6 7 6 6 3 3 3 6 8 4 7 7 13 17 13
33 36 37 37 32 30 31 31 32 35 36 39 42 43 41 46 48 48 29 45 37 10 8 12 16 33 44 35 20 14 10 7 6 4 1 4 2 3 5 3 3 1 6 6 8 6 6 8 6 22 21 18 13 16
27 30 31 30 29 27 26 26 29 34 37 39 40 41 42 45 42 49 30 23 32 15 27 13 7 16 38 40 32 13 8 12 8 12 6 3 5 4 3 4 4 2 6 4 4 3 2 7 14 18 20 20 20 17
24 26 25 25 26 25 21 19 23 28 28 36 40 42 40 44 41 42 30 23 23 11 2 6 6 8 25 36 34 32 35 28 14 10 5 3 4 7 4 4 5 6 8 6 3 2 18 14 21 24 24 22 20 18
21 23 24 25 24 24 24 22 20 27 34 35 36 36 33 31 34 38 26 30 26 4 3 8 3 5 31 31 27 30 34 34 24 5 3 2 4 5 1 3 1 7 7 5 5 17 10 9 17 21 22 19 16 15
24 25 26 25 27 26 24 23 24 24 29 32 31 34 29 28 32 26 8 32 44 15 8 2 11 2 19 34 31 27 24 16 6 6 2 5 3 3 4 3 2 8 13 17 10 18 20 24 19 16 18 17 15 15
26 26 26 26 25 24 22 23 27 31 28 28 30 27 27 27 31 25 10 7 34 32 5 2 4 3 12 12 18 17 18 11 3 4 3 5 3 4 3 3 9 14 17 18 24 29 22 20 13 16 16 17 17 20
28 27 27 26 23 20 21 24 25 24 24 26 27 23 27 26 24 28 12 1 15 21 5 3 2 5 4 3 6 3 6 7 7 3 3 2 4 3 1 3 22 22 24 26 26 7 20 22 21 19 19 21 22 22
29 30 27 25 23 24 24 23 24 26 27 26 23 26 26 22 16 24 20 12 29 16 7 4 4 3 1 4 5 4 4 3 3 2 1 2 1 2 2 17 24 29 13 24 19 20 25 24 23 22 21 19 20 21
30 32 28 25 25 27 26 27 23 28 33 36 34 12 7 12 12 26 15 3 7 3 3 3 2 2 4 4 5 4 7 2 2 2 2 4 0 4 10 16 20 14 24 28 32 24 24 24 25 22 21 19 20 18
27 26 27 28 30 30 31 29 33 35 36 27 8 5 19 22 14 11 6 3 2 4 7 6 7 4 7 4 3 6 2 1 3 3 4 2 2 2 11 14 17 22 26 17 11 21 17 18 24 24 22 18 15 13
37 37 36 36 35 34 36 35 36 39 16 12 14 22 17 7 4 3 3 3 4 1 2 2 3 5 6 6 4 1 3 2 3 2 4 2 2 16 19 19 20 22 19 19 19 22 22 24 24 22 18 16 13 13
33 31 33 38 46 48 49 44 18 20 35 18 3 5 4 7 7 4 2 2 1 1 1 3 3 5 4 4 4 3 4 1 1 2 2 1 11 18 24 24 24 22 22 23 22 22 24 24 18 16 17 15 13 13
33 35 36 36 37 40 33 19 29 10 6 5 4 4 4 4 4 3 2 1 1 2 5 9 5 3 4 4 1 4 0 2 2 2 4 3 16 20 24 26 26 23 22 24 24 22 21 21 19 17 15 14 13 13
37 36 37 35 24 25 29 15 6 4 11 10 9 5 5 2 6 4 4 3 3 3 4 4 6 4 3 3 2 3 1 2 1 2 1 11 18 22 27 28 25 27 25 24 23 21 20 19 18 17 14 13 11 10
30 24 26 23 18 16 13 8 7 11 8 7 9 4 7 5 6 8 9 5 2 5 5 2 3 4 3 2 2 2 2 1 1 0 7 16 18 24 27 28 26 25 24 20 21 21 19 17 16 16 15 11 9 6
19 24 18 14 7 10 9 10 11 11 8 6 4 10 6 5 3 4 3 7 4 2 2 2 5 3 1 3 3 4 2 2 3 8 11 17 22 24 27 27 22 21 20 20 19 18 17 16 14 13 12 10 7 4
28 22 18 12 12 11 17 17 9 9 8 11 5 15 18 20 14 17 16 14 7 5 5 4 5 5 5 4 3 4 7 7 8 12 15 14 16 21 21 20 17 17 18 18 17 15 16 16 14 11 9 8 6 3
15 12 11 12 10 11 8 9 9 6 11 6 13 16 18 20 27 23 19 22 25 17 8 6 5 4 3 5 5 12 12 6 13 15 13 13 15 16 15 16 19 19 18 18 19 21 18 16 13 10 9 8 7 5
16 10 8 11 10 9 8 7 7 8 4 4 12 21 18 15 19 26 27 25 23 11 9 5 4 9 7 12 12 10 8 8 14 15 15 14 14 15 18 20 19 18 18 19 19 18 16 12 8 6 3 3 5 6
16 18 21 29 32 17 9 6 8 6 7 6 8 10 11 23 28 24 24 23 20 8 6 11 13 12 11 12 13 14 11 5 6 9 17 18 17 19 18 17 17 17 17 15 12 12 9 6 3 1 3 6 8 8
17 19 22 18 12 9 10 12 7 5 5 4 5 7 6 6 8 13 20 19 9 13 9 13 13 13 15 17 16 15 13 11 12 15 15 15 17 15 14 14 11 13 13 11 9 6 5 4 2 4 7 9 10 12
17 19 13 14 9 9 5 10 6 7 4 4 4 5 5 6 6 7 7 9 9 20 11 13 14 12 15 15 16 16 15 15 18 17 15 14 14 13 12 11 10 9 9 8 5 4 3 3 6 8 10 12 12 11
14 10 10 8 12 4 5 7 6 5 5 4 3 3 3 6 6 7 4 5 14 14 16 10 11 13 14 17 20 18 17 15 15 16 13 10 12 13 10 11 9 8 6 5 3 4 6 8 10 11 12 12 12 11
9 13 9 7 11 7 5 4 5 4 3 4 4 3 2 4 3 3 3 4 13 16 12 11 10 12 14 12 13 13 11 11 11 12 13 10 9 8 8 7 6 5 4 5 7 9 10 12 13 13 13 12 12 12
8 12 6 7 5 4 3 3 3 2 2 3 2 2 4 4 4 4 3 5 10 10 10 9 9 8 11 11 9 9 9 10 7 6 9 7 6 5 4 4 6 8 10 12 12 12 12 12 12 12 12 12 13 13
6 6 8 7 4 5 5 5 6 7 4 3 2 4 3 5 4 4 4 10 8 8 6 6 7 9 10 9 10 9 8 7 7 8 8 6 5 4 4 7 9 10 12 13 14 14 14 14 14 14 14 13 13 14
7 8 4 9 9 11 4 4 3 3 3 8 4 6 3 3 3 4 6 4 5 7 9 10 9 7 6 6 5 5 4 6 6 5 4 6 7 10 13 15 15 15 15 16 15 16 16 16 16 17 16 17 14 9
7 6 6 8 5 8 9 6 4 5 7 5 3 3 4 5 8 9 8 11 8 5 6 5 6 6 8 8 7 8 7 4 3 4 7 9 11 12 14 15 16 17 18 17 17 17 14 14 16 18 17 16 15 13
8 11 3 6 5 4 6 7 10 7 9 10 11 17 19 16 12 6 5 3 4 6 6 4 3 1 4 5 7 5 6 7 9 9 11 13 15 16 16 17 18 19 20 20 20 19 18 17 18 16 14 13 13 15
5 7 5 6 5 4 6 9 12 10 13 13 12 19 14 11 12 12 12 8 4 4 4 6 6 5 4 4 7 9 10 13 13 15 16 17 18 18 19 20 19 18 18 18 19 20 21 21 19 18 16 14 15 17
5 6 3 3 4 7 5 3 3 7 5 7 7 11 9 5 4 4 10 7 4 4 6 5 4 5 5 8 12 14 14 16 18 21 22 22 22 21 20 19 19 20 19 18 17 17 17 18 17 16 15 14 16 18
6 8 7 4 3 2 3 1 4 5 5 4 4 7 6 4 4 2 4 5 6 6 6 6 7 9 12 13 15 18 19 20 21 21 20 19 19 19 19 19 19 18 19 18 18 17 16 14 14 15 16 17 19 19

GFSWCAN_850_spd_024.txt.gz
Wind_Speed
5 12 18 26 33 32 34 48 67 64 53 54 54 53 51 53 56 54 54 38 14 6 20 7 17 22 24 32 9 8 10 12 3 6 4 4 4 6 4 4 7 7 7 4 3 3 7 11 5 9 7 3 28 30
27 17 16 25 33 32 54 61 61 53 50 51 51 49 49 52 53 47 37 40 17 11 7 13 10 16 25 30 31 23 9 10 14 4 1 4 3 1 3 3 1 3 7 6 9 7 5 15 5 16 9 15 27 31
31 39 43 46 49 50 49 45 44 45 47 47 51 47 47 48 45 43 34 43 34 16 18 23 15 18 22 26 33 16 22 8 14 13 5 3 4 4 4 4 3 3 4 4 3 4 6 9 16 11 15 25 28 27
30 31 32 34 36 38 40 43 44 44 44 44 44 46 43 40 39 33 32 35 18 7 1 9 5 8 15 27 28 34 18 32 10 10 4 3 3 6 4 3 4 4 9 7 3 3 2 10 15 16 19 22 24 22
26 27 28 29 30 31 31 33 35 36 37 37 37 36 35 33 33 32 27 23 26 5 1 11 22 12 9 22 30 33 38 26 8 4 3 3 4 4 1 3 2 7 7 6 7 15 12 10 20 21 23 24 24 25
22 24 26 27 28 29 31 34 35 35 35 34 34 35 36 40 35 23 14 30 18 29 5 3 7 9 8 8 26 33 34 32 21 7 4 6 4 3 3 3 5 20 17 20 8 20 15 16 23 22 23 21 22 23
22 22 21 22 24 25 28 30 34 33 31 31 29 31 34 33 29 18 9 5 23 12 4 3 4 3 6 1 15 20 27 19 11 7 3 3 3 4 3 4 5 22 17 15 16 25 13 21 15 22 23 24 23 23
21 20 22 23 22 25 25 27 30 31 30 32 32 32 32 29 28 16 12 11 15 10 2 3 4 3 10 3 4 7 9 8 3 5 3 2 3 3 2 1 7 14 17 21 22 18 16 25 26 26 25 26 27 26
21 21 21 20 25 26 24 24 29 35 33 32 32 30 29 26 20 17 6 6 17 10 6 5 2 3 1 7 4 3 4 2 3 2 2 2 2 4 5 7 14 13 11 21 17 14 22 29 32 30 29 28 29 29
22 21 20 20 29 28 27 28 37 39 37 35 40 11 7 19 15 18 13 4 10 15 9 3 1 2 3 4 2 2 3 2 2 2 5 2 3 1 5 4 12 10 7 22 26 20 26 29 31 31 29 28 26 29
23 22 22 23 33 31 31 36 42 41 37 23 6 6 25 21 12 3 3 5 5 3 8 5 5 1 5 3 3 2 2 1 3 3 4 1 3 1 4 10 13 13 12 17 13 17 23 29 35 33 30 27 26 25
25 25 25 25 28 32 38 38 43 37 25 11 15 27 19 6 4 4 3 2 3 3 3 2 3 2 2 4 4 2 2 1 3 4 4 3 2 3 5 12 14 16 17 10 12 22 23 26 26 27 27 27 26 24
20 22 23 23 22 25 36 37 32 21 20 15 11 6 4 2 4 5 5 2 2 3 2 2 1 2 2 4 4 2 2 2 2 2 2 1 2 5 13 17 18 16 15 18 23 23 24 26 24 24 26 24 25 23
21 20 21 23 20 23 23 27 22 15 5 3 5 5 3 3 3 1 1 1 1 1 7 5 4 3 4 3 0 4 1 2 3 2 1 1 8 12 16 17 21 22 22 24 25 26 26 26 27 25 23 21 18 18
19 18 20 23 21 21 19 25 17 16 5 6 6 4 4 4 5 8 8 7 11 8 5 2 5 4 3 3 3 2 2 4 4 2 3 5 10 13 15 17 20 22 23 24 24 24 26 25 24 23 19 16 17 19
22 24 21 23 25 17 15 16 12 10 7 6 9 4 9 4 8 12 15 10 15 9 7 8 3 4 5 3 5 5 3 4 3 3 7 8 12 13 15 18 20 21 22 25 26 25 24 21 19 20 18 17 17 15
20 18 20 24 24 20 11 18 6 7 7 6 5 19 10 7 8 10 13 16 11 5 3 3 5 4 3 4 4 5 4 4 9 7 6 6 10 13 16 19 22 23 24 24 23 20 19 18 18 20 21 19 16 14
21 23 27 21 29 24 22 8 7 9 9 11 5 15 21 20 16 18 22 20 5 5 5 4 5 6 4 4 3 4 8 15 17 18 15 11 10 14 18 21 22 21 20 18 16 17 17 18 19 18 16 16 14 11
26 31 35 26 12 8 7 10 10 7 14 8 15 14 18 22 29 26 22 22 24 17 9 7 6 4 3 6 8 16 19 14 13 20 20 16 15 17 17 16 15 16 16 16 17 17 17 15 14 14 13 11 7 5
18 18 19 17 8 7 7 7 7 9 5 6 13 24 17 16 22 31 36 30 25 11 10 5 4 8 8 12 12 12 12 9 12 22 23 20 16 14 15 16 17 17 17 16 14 13 12 12 10 9 8 6 4 3
22 23 21 18 27 14 9 6 8 7 9 8 9 14 15 28 36 31 32 27 25 9 7 12 14 14 15 17 18 19 20 16 18 20 19 22 19 19 18 17 15 15 15 14 14 13 10 9 7 3 1 1 2 4
25 27 28 18 10 9 11 13 8 7 6 6 6 7 7 6 10 16 21 21 12 17 11 14 16 17 22 25 23 23 22 22 23 23 21 20 23 23 22 20 17 18 17 15 12 10 9 7 5 4 6 8 10 10
16 17 13 12 10 9 5 10 6 7 4 4 4 5 5 5 6 9 8 10 10 17 13 15 17 20 22 23 23 24 23 23 25 25 23 23 22 21 18 18 16 15 14 13 11 9 8 9 9 10 11 12 13 14
14 10 9 8 11 3 5 7 6 5 6 4 3 4 4 5 7 8 4 5 14 16 16 15 13 17 19 22 26 24 22 19 21 22 20 17 19 20 17 16 14 13 12 10 9 9 9 10 12 13 15 15 16 15
10 13 9 7 9 7 6 5 6 5 4 4 3 3 3 5 3 4 2 6 14 16 15 14 15 16 19 18 18 18 16 15 15 16 17 15 14 12 12 11 11 11 10 9 9 11 12 13 14 15 16 16 16 16
8 12 7 5 3 5 1 3 4 3 3 4 4 4 5 4 5 3 2 6 8 10 11 12 12 14 16 16 15 15 15 13 10 13 15 12 11 11 11 10 10 11 12 14 14 15 15 16 17 18 17 17 17 18
6 5 8 10 5 7 7 8 7 7 4 4 2 4 4 5 3 3 3 5 5 7 7 8 9 10 10 11 12 13 12 10 10 13 11 10 10 11 11 12 14 14 16 17 18 19 20 21 20 20 20 19 19 19
7 9 4 10 11 13 4 4 4 3 2 5 5 5 4 3 1 2 4 4 5 6 7 9 10 11 10 8 8 7 8 9 9 9 10 10 11 13 14 14 14 15 16 18 18 18 18 19 20 21 21 22 23 21
8 5 5 10 8 10 10 5 4 5 5 3 4 2 4 4 5 8 10 6 2 1 3 4 6 8 7 7 6 6 6 6 6 7 10 12 13 14 15 16 17 17 17 17 17 18 18 19 20 21 22 22 21 19
8 9 7 7 5 5 9 6 9 11 12 13 12 17 17 14 12 9 7 5 3 2 2 2 4 3 3 3 4 4 6 9 11 13 15 16 15 16 16 16 16 17 17 18 18 18 18 18 18 18 18 18 17 15
5 6 7 7 6 8 16 19 19 20 22 18 19 20 13 9 9 6 4 4 4 4 3 2 2 3 4 5 7 10 11 14 15 16 15 15 15 15 16 16 17 18 19 19 20 20 20 19 20 20 20 19 18 17
7 6 6 4 4 17 11 5 5 5 5 5 5 6 6 4 3 5 3 4 3 1 1 2 3 5 7 9 11 13 14 16 17 16 16 16 16 16 16 18 18 18 18 17 18 18 19 19 19 19 18 18 17 17
10 14 14 8 6 9 4 4 4 4 4 3 3 4 2 2 3 5 5 2 1 2 3 4 6 8 10 11 13 15 15 16 17 17 17 17 17 17 18 18 17 16 16 16 16 16 17 17 17 17 17 17 17 17

GFSWCAN_850_spd_027.txt.gz
Wind_Speed
8 11 10 16 18 23 33 39 40 39 42 50 66 53 55 59 66 42 30 40 24 2 7 5 13 22 23 33 9 11 11 9 3 5 4 3 3 5 3 3 6 7 7 4 3 2 8 12 8 10 8 5 15 20
8 11 13 17 20 25 34 35 38 38 49 59 53 55 69 55 66 46 31 24 21 15 5 7 14 17 21 36 30 29 11 11 14 4 3 2 2 1 6 8 0 4 6 6 9 7 2 25 8 23 7 8 11 25
19 14 17 19 18 23 30 32 31 42 55 56 52 56 60 60 58 43 27 29 17 15 25 13 19 16 21 27 40 13 11 15 12 17 6 3 4 4 4 6 2 3 4 3 3 5 7 14 23 11 16 13 11 27
28 32 19 18 18 26 28 34 48 58 52 49 49 49 51 52 46 39 30 25 24 7 5 6 2 18 14 27 35 42 9 22 7 11 4 3 4 7 4 3 4 3 8 6 3 5 3 16 20 21 16 15 15 24
28 29 31 35 42 51 50 50 47 44 46 50 48 45 43 40 39 34 26 19 18 17 3 9 16 17 15 23 31 37 34 16 15 4 2 3 4 4 1 2 3 7 6 5 6 17 10 12 28 22 19 18 21 28
25 27 28 29 33 36 38 40 40 39 39 42 38 37 35 36 40 29 10 23 27 40 6 3 5 8 8 14 25 36 37 35 15 4 4 4 3 4 5 4 5 23 17 15 1 8 20 10 20 24 23 23 25 28
22 24 26 27 30 33 36 36 37 36 35 33 33 32 30 27 29 23 8 10 36 25 5 2 3 4 3 6 7 20 31 21 16 10 4 2 3 3 2 5 4 14 23 18 14 11 9 16 12 23 24 26 25 25
20 22 23 26 28 31 33 33 34 33 33 34 32 32 32 29 27 13 6 16 32 15 4 2 3 4 0 3 3 7 14 15 12 8 4 3 2 1 4 5 8 9 14 15 16 21 12 21 18 25 25 26 27 28
20 22 22 25 27 31 33 35 34 31 32 34 34 36 34 24 13 5 9 26 23 5 5 3 1 2 3 2 2 2 6 2 3 2 3 7 2 5 4 6 15 16 13 15 17 12 13 21 25 27 29 30 32 33
21 24 23 25 27 29 31 33 35 37 38 38 38 12 7 15 14 21 15 11 8 8 5 2 3 2 2 1 2 1 5 2 3 3 9 3 3 2 1 2 7 13 11 8 15 10 14 21 25 26 27 28 30 34
21 21 20 21 23 28 35 34 36 38 38 33 9 6 17 21 9 2 4 4 3 2 8 8 12 2 5 2 2 4 2 2 3 3 4 3 2 2 5 3 8 12 13 14 9 6 12 17 29 30 27 26 29 30
22 24 21 23 25 32 42 40 40 39 24 12 13 26 27 9 4 3 3 2 4 4 4 4 6 7 3 3 4 2 2 2 3 3 3 2 2 8 0 7 9 9 10 14 7 4 9 19 24 26 27 29 29 28
23 22 20 20 28 34 39 36 33 30 14 29 12 5 4 1 1 5 5 3 3 2 3 5 2 4 3 4 3 2 3 2 4 1 2 2 5 4 4 9 12 7 10 13 16 17 20 24 24 26 30 28 27 28
21 22 22 25 27 35 24 14 20 15 6 4 3 4 2 1 2 1 1 1 1 2 3 6 4 2 4 3 0 3 1 1 1 2 3 3 4 4 7 11 16 16 13 19 23 25 27 27 26 24 24 25 26 25
19 19 17 17 19 24 20 12 8 10 3 4 5 3 3 5 7 7 3 1 5 4 4 4 5 6 3 3 3 1 3 5 5 4 4 15 6 4 7 10 15 19 21 23 23 24 24 25 26 27 25 22 19 19
16 17 14 14 13 10 9 5 8 12 6 6 10 6 11 2 5 7 13 9 14 9 8 8 3 4 6 3 5 6 4 5 5 5 16 9 6 6 10 13 16 18 20 22 23 25 26 27 27 25 21 17 15 15
15 10 16 14 15 16 16 8 7 8 7 5 5 24 11 4 8 12 17 20 13 6 3 3 6 5 3 4 4 5 4 5 18 17 16 11 11 13 16 18 20 23 25 26 26 24 23 21 21 21 20 18 16 15
13 16 18 20 13 27 25 9 6 8 8 10 5 17 21 21 18 18 22 24 8 6 6 5 6 8 6 5 3 4 7 19 13 18 21 19 17 17 20 23 23 24 24 22 21 21 20 18 18 18 17 16 14 11
25 29 31 24 17 6 5 8 9 7 14 7 17 15 19 21 32 28 25 23 26 18 11 7 6 4 3 5 7 13 16 12 12 20 24 23 22 23 23 22 22 21 21 20 18 18 16 14 14 12 10 8 6 6
32 36 22 13 9 5 7 7 7 9 6 5 8 24 22 19 24 33 38 33 25 11 11 6 5 7 7 11 11 10 9 12 15 22 26 25 22 21 22 22 22 21 21 20 20 18 17 17 14 11 8 5 3 2
31 16 15 14 14 12 8 6 8 8 9 6 8 14 14 30 39 34 32 28 26 10 8 13 14 15 15 16 18 20 21 19 22 23 20 25 24 25 24 23 21 21 21 20 19 17 15 15 11 8 6 5 4 4
28 18 11 9 8 8 10 12 8 7 6 5 6 7 7 7 10 18 21 22 12 16 12 15 17 19 24 26 25 25 24 25 26 26 25 24 26 26 25 23 20 22 21 20 17 15 13 11 8 7 7 8 8 9
17 11 8 9 8 8 5 8 6 7 4 3 4 5 5 7 7 10 8 11 10 17 14 15 19 21 24 24 25 26 25 25 28 27 26 26 25 23 22 21 19 18 17 16 13 11 10 9 9 9 10 10 11 11
11 8 8 8 11 3 5 7 6 5 6 4 3 3 4 4 6 8 4 5 14 16 17 15 15 19 20 23 26 24 23 21 23 24 22 19 21 21 19 18 16 16 15 13 11 11 11 12 13 13 14 15 15 16
9 12 8 6 8 6 5 4 5 4 4 4 4 4 2 4 3 3 2 3 12 15 15 15 16 17 20 20 19 18 16 15 16 18 20 18 17 15 15 15 15 14 13 11 12 13 13 14 14 16 16 17 17 17
8 12 7 5 4 5 2 4 4 4 3 4 4 3 4 4 4 3 2 3 6 9 10 11 11 13 16 15 15 15 15 14 12 14 16 13 13 13 13 12 12 12 14 15 15 15 16 16 17 17 16 17 18 19
6 5 8 9 6 8 7 8 7 6 5 4 2 3 3 5 2 3 3 4 5 8 9 9 9 10 12 13 14 14 11 10 11 14 13 12 12 13 13 14 16 16 17 16 17 17 17 17 17 18 18 18 18 19
6 7 5 8 11 11 4 3 4 3 2 3 4 5 4 4 2 3 4 6 7 8 8 9 10 10 9 8 9 9 9 10 12 12 13 13 14 15 15 14 14 13 14 16 16 16 17 17 18 18 19 19 18 17
8 6 7 8 8 9 10 5 3 3 2 2 4 2 3 4 6 9 10 7 4 2 3 4 6 8 8 7 7 7 8 8 8 10 12 13 12 12 13 13 13 14 14 14 15 16 16 17 17 17 17 18 17 17
5 5 7 7 5 4 7 6 8 10 10 12 10 14 14 13 11 10 8 5 2 1 2 4 4 5 3 3 4 5 8 11 13 12 12 12 12 13 13 13 13 14 15 15 15 15 15 15 15 15 15 15 15 15
5 5 7 7 6 7 18 22 20 19 19 15 18 19 13 9 10 9 7 6 4 3 4 3 1 1 3 4 6 9 10 11 11 11 11 11 11 12 12 13 15 15 15 15 15 16 16 16 16 16 16 16 16 16
6 6 7 4 5 18 5 4 4 5 4 4 5 6 7 5 6 9 7 6 5 3 1 1 2 3 5 7 8 9 9 10 11 12 12 12 12 13 14 15 14 14 14 14 14 15 15 15 15 15 16 16 16 16
12 16 14 8 6 6 6 3 4 4 4 3 3 3 2 3 4 8 8 6 4 2 1 2 3 4 6 7 8 9 10 11 12 13 13 14 15 15 15 15 14 13 13 13 14 14 14 15 15 15 16 16 16 17

GFSWCAN_850_spd_030.txt.gz
Wind_Speed
13 16 11 8 4 10 15 30 37 40 49 46 42 43 65 54 68 42 29 42 24 10 8 5 8 24 30 28 16 20 12 7 7 9 6 4 4 5 8 12 5 9 10 5 7 6 10 14 11 11 13 4 5 9
14 13 11 9 12 16 29 30 38 41 44 47 45 41 70 52 64 45 30 29 27 15 6 6 8 14 19 42 29 28 14 18 12 8 6 5 2 1 7 6 4 5 6 4 9 7 4 28 19 22 9 8 7 11
9 13 15 16 20 24 27 30 35 37 41 41 40 45 48 53 54 40 30 31 23 13 4 4 2 17 21 29 31 17 24 15 20 16 5 4 4 5 5 10 14 8 5 4 2 11 11 14 20 10 14 10 8 10
11 7 11 17 22 24 28 29 32 36 38 37 42 51 51 50 44 38 31 28 23 11 4 10 6 11 15 24 33 29 21 19 9 21 9 4 3 9 6 6 9 6 10 10 10 9 3 13 20 21 14 12 11 14
23 17 16 18 22 23 26 27 26 33 36 47 59 53 53 49 38 33 32 28 20 14 1 6 17 26 23 22 24 28 20 22 14 7 4 5 2 3 2 1 6 9 7 7 7 12 11 16 11 20 20 21 17 21
22 26 31 21 24 24 26 30 42 43 41 43 39 48 47 43 42 34 9 18 17 16 4 2 7 13 17 22 29 29 36 23 10 14 5 9 4 5 5 8 18 19 17 19 11 8 10 11 8 14 18 17 19 21
23 25 28 32 40 43 41 43 40 39 40 46 49 46 40 39 37 16 6 10 20 15 2 3 3 7 13 26 21 29 32 29 22 14 7 8 7 6 3 9 13 18 21 19 20 11 7 13 8 13 16 18 20 19
22 25 27 30 32 34 35 36 37 38 37 37 37 32 30 27 23 14 8 17 23 12 3 3 4 4 3 4 8 16 17 21 20 14 4 8 3 3 5 9 18 8 10 14 17 16 13 8 11 13 18 19 21 22
21 25 28 29 32 34 36 35 38 39 39 36 34 32 26 11 10 13 8 15 23 10 4 3 3 1 2 3 5 5 6 3 6 4 4 7 5 8 1 5 8 8 8 8 13 10 11 6 7 11 13 17 18 19
22 24 27 29 31 32 33 36 38 39 37 36 34 10 5 10 21 26 19 8 10 5 7 3 3 2 2 2 2 2 3 4 4 4 8 4 8 2 3 7 8 6 8 9 6 4 8 10 13 12 14 11 13 19
21 24 29 30 30 30 30 34 35 37 39 23 4 3 9 25 13 4 5 6 9 3 6 5 8 2 3 1 2 1 1 1 4 4 6 3 3 3 12 8 3 4 5 6 7 7 11 13 18 21 18 16 16 18
18 21 29 27 28 34 37 37 38 35 11 7 10 14 12 3 3 3 5 4 3 3 2 2 4 7 5 1 2 1 1 1 2 2 3 3 3 15 12 8 3 2 5 5 4 6 9 12 12 16 22 23 24 24
20 21 28 30 26 27 30 32 21 17 13 15 7 5 1 3 2 2 3 1 2 4 5 7 3 8 4 2 2 2 2 1 1 1 3 3 14 17 12 7 3 1 4 4 7 9 10 14 15 17 23 24 23 25
22 25 26 32 29 29 27 25 21 7 4 2 3 4 3 2 4 2 3 1 2 1 3 6 4 2 3 2 1 2 1 0 2 3 4 7 22 15 11 5 2 6 7 11 14 16 17 20 21 20 23 25 29 30
24 27 27 30 28 26 21 11 4 5 6 7 6 4 5 5 8 8 7 7 6 2 3 6 5 4 3 3 4 2 3 5 6 5 6 19 16 10 10 10 11 13 16 19 21 24 26 28 29 30 29 29 28 26
22 24 20 20 14 2 0 6 10 9 6 6 9 6 14 4 8 12 11 7 7 4 6 5 3 4 6 3 5 7 3 5 5 6 18 14 13 15 17 18 20 21 24 26 27 28 30 32 31 30 27 24 22 19
16 13 12 9 9 9 6 6 8 7 7 6 5 22 17 7 9 13 14 15 8 3 3 4 6 6 2 4 4 5 4 5 11 12 15 17 19 20 21 24 25 27 29 30 30 29 28 26 25 24 24 20 17 15
14 13 13 13 11 12 23 10 6 8 8 12 6 12 13 15 16 14 17 23 8 6 6 5 5 7 6 4 3 4 5 7 11 14 19 21 23 26 27 28 28 28 28 27 26 26 23 21 22 22 20 17 15 12
19 19 15 17 18 8 6 7 9 7 10 5 13 7 7 22 28 25 24 19 22 17 10 7 7 5 4 6 7 9 8 9 11 15 21 25 26 27 27 26 26 26 26 25 24 24 23 22 21 18 15 11 12 10
29 26 20 18 10 5 6 6 6 8 5 5 8 23 28 24 25 30 32 30 22 11 11 6 5 10 7 10 9 7 7 8 10 16 20 23 24 25 26 26 26 25 26 24 24 23 21 21 18 15 12 10 8 7
25 18 23 22 22 12 8 5 7 7 8 6 4 13 15 25 36 35 35 29 25 11 9 13 14 13 14 15 15 16 18 18 21 19 16 20 24 26 26 25 24 24 25 23 22 21 19 18 15 12 10 8 7 5
24 16 10 9 7 7 9 11 7 5 6 6 6 7 7 9 14 21 22 19 12 20 12 14 14 14 19 22 22 24 24 25 26 26 24 23 24 24 24 22 21 22 22 20 18 17 15 13 11 10 9 9 9 9
11 5 6 7 7 7 4 7 5 6 3 3 4 4 5 6 7 9 8 11 10 14 13 14 16 18 20 22 23 24 23 23 24 24 23 23 22 21 19 19 18 17 17 16 14 13 13 11 11 10 10 10 10 11
6 6 7 7 9 4 5 6 5 5 5 3 4 4 4 5 6 7 5 5 9 10 11 11 9 12 15 18 19 17 16 16 18 19 17 16 18 18 17 16 16 15 14 12 11 11 11 12 12 12 12 12 12 12
6 10 7 7 7 5 4 4 4 4 4 4 3 4 3 4 3 3 3 3 7 9 10 10 12 13 14 14 14 16 15 14 14 16 15 14 13 12 13 13 12 12 10 9 10 10 11 11 11 11 11 11 12 12
8 12 6 5 4 4 3 3 4 4 3 3 4 3 3 3 4 4 3 3 4 5 7 8 8 9 11 10 10 11 12 11 11 13 13 12 11 10 9 7 7 10 10 10 10 10 10 10 11 11 11 12 13 13
6 6 7 8 5 7 6 7 6 5 4 4 2 2 2 4 3 3 5 4 4 7 8 8 8 9 11 12 12 11 10 10 10 10 9 9 8 9 8 7 8 9 10 11 10 10 10 11 12 12 12 12 12 13
7 8 5 7 10 10 5 4 4 4 3 3 2 4 3 2 3 4 4 10 9 9 8 8 9 9 9 8 8 8 7 8 8 8 8 9 9 10 9 9 10 10 10 10 11 11 11 11 12 12 13 13 13 13
8 5 7 8 8 10 9 5 4 4 4 3 3 3 3 3 5 8 10 10 8 6 5 6 8 8 8 7 7 6 7 7 6 6 6 5 5 8 9 9 9 10 10 10 10 11 12 12 12 12 13 13 14 14
6 8 7 7 5 6 7 6 5 6 7 8 7 8 8 7 10 12 10 7 5 4 4 5 5 5 4 3 3 5 7 9 9 8 7 7 7 8 9 9 11 11 10 10 10 11 11 11 11 11 12 12 13 13
6 6 7 8 6 6 12 18 16 14 12 11 12 9 9 7 9 10 9 7 6 5 5 4 3 1 1 2 4 6 8 9 9 8 8 8 8 8 9 10 11 11 10 11 11 11 12 12 12 12 13 13 14 14
6 6 6 4 5 9 4 3 4 4 4 4 4 5 5 4 5 8 8 6 5 5 4 3 1 2 3 5 6 7 6 7 7 8 8 8 9 10 11 11 11 10 11 11 11 12 12 12 12 13 13 14 14 15
12 13 11 7 6 5 4 3 3 3 3 3 2 2 2 3 3 8 9 8 7 6 4 2 2 3 4 5 6 6 6 7 8 9 10 11 12 13 13 12 11 11 11 11 12 12 12 13 13 14 14 15 15 15

GFSWCAN_850_spd_033.txt.gz
Wind_Speed
23 22 21 22 22 15 12 15 22 38 40 46 45 47 47 46 58 53 40 37 31 13 19 7 20 24 30 29 16 21 19 11 11 11 8 6 6 9 11 16 10 7 8 6 10 12 14 8 10 14 15 17 7 9
15 18 20 15 12 4 4 3 20 35 45 44 49 47 43 38 68 37 39 31 22 9 7 9 7 15 21 43 33 21 19 20 13 9 6 5 4 2 12 9 17 9 9 6 8 6 9 19 20 23 22 13 10 13
14 12 11 13 12 14 18 21 27 32 41 41 42 42 45 52 60 34 31 38 18 6 5 7 8 9 20 19 19 13 29 19 27 20 6 4 4 7 6 11 8 8 8 7 9 9 13 11 20 17 15 17 14 12
11 5 9 12 15 18 22 25 32 36 37 38 35 37 41 70 40 30 30 32 28 9 3 7 11 7 18 21 13 16 18 32 12 19 8 4 4 10 7 9 8 7 7 10 17 19 20 15 15 22 17 13 13 11
12 9 12 15 17 19 22 25 33 34 35 33 32 51 62 61 33 29 27 27 24 16 6 10 5 12 11 14 16 17 20 17 20 11 6 5 9 5 3 4 11 12 14 9 9 15 13 16 16 18 18 20 15 16
12 13 14 18 20 21 22 27 30 34 34 34 50 57 54 49 39 32 10 11 15 14 1 3 4 10 15 19 23 21 25 17 22 17 9 12 14 13 5 10 17 23 24 24 14 11 10 18 17 13 14 15 17 17
19 14 19 17 17 18 24 27 30 30 36 41 43 48 46 39 33 15 5 11 16 9 2 2 3 4 18 19 24 24 25 26 13 18 14 9 13 7 7 11 11 15 23 25 23 11 10 15 13 10 9 9 13 15
21 25 25 23 24 30 37 31 38 42 50 44 45 46 38 32 26 9 8 18 22 7 4 2 3 5 17 9 11 26 23 26 18 9 8 8 10 5 6 9 20 27 24 11 9 10 12 8 7 7 5 8 10 14
22 25 29 29 28 30 36 42 43 40 46 44 43 39 31 18 10 7 16 19 9 5 6 4 3 3 10 6 8 13 19 8 9 8 9 8 6 6 3 10 9 14 6 9 4 6 7 8 7 6 8 11 13 15
22 25 27 28 30 31 35 36 31 30 32 34 27 9 5 7 15 15 6 5 4 4 3 3 5 4 5 5 1 4 3 3 6 6 13 7 9 14 19 15 13 13 10 8 8 8 8 9 9 8 10 10 12 14
22 24 26 29 32 35 37 37 39 41 28 8 5 6 15 21 17 4 3 5 5 4 6 7 13 6 3 3 3 6 3 4 5 4 6 6 4 11 25 20 16 13 10 8 9 8 6 7 9 9 9 11 16 19
26 24 25 26 30 32 33 33 28 12 6 8 12 14 11 9 9 5 5 3 4 3 2 2 3 4 4 4 3 5 3 1 4 3 4 3 4 20 23 19 16 13 10 9 8 6 8 9 8 12 15 18 21 24
23 23 24 26 28 29 28 25 12 10 17 10 5 4 3 1 2 2 3 1 2 1 2 1 1 1 1 6 3 1 2 3 2 3 3 4 18 23 21 16 11 10 6 5 6 7 8 12 14 13 18 19 22 24
25 26 26 26 32 32 14 17 14 9 5 4 4 3 4 4 6 6 5 4 4 5 6 6 3 4 5 3 2 4 3 2 3 3 4 8 21 18 16 13 13 15 14 16 17 16 18 19 21 23 22 21 24 26
26 25 23 23 22 20 10 3 11 10 8 8 7 6 7 7 10 9 8 5 6 7 5 1 4 6 4 4 4 1 3 5 6 4 6 18 17 15 16 17 18 20 23 27 27 28 29 29 30 31 29 30 30 30
27 23 18 18 14 13 3 5 13 10 6 7 10 6 16 3 8 15 11 7 9 6 2 4 2 3 5 3 5 7 4 6 4 4 15 15 16 18 20 21 23 25 28 31 32 32 32 33 32 31 30 29 27 25
21 21 19 16 10 5 6 8 8 9 7 5 5 17 13 10 9 11 11 10 10 5 2 3 5 6 3 4 4 5 4 5 10 12 14 16 18 20 22 25 27 29 31 32 32 32 31 29 28 27 30 26 23 21
15 15 11 8 8 15 20 10 7 7 7 9 4 10 13 13 16 16 14 17 6 4 5 4 5 6 6 4 4 4 8 12 13 14 17 18 20 23 24 26 27 28 29 29 29 28 27 27 28 25 23 20 19 17
12 14 16 11 8 6 6 7 7 6 8 7 18 14 10 14 22 21 15 16 20 13 8 6 7 5 5 7 8 10 11 12 13 15 18 21 23 23 24 25 26 27 27 26 25 25 26 25 23 20 18 17 17 15
18 13 14 17 11 6 6 6 6 8 5 5 5 17 24 23 23 28 27 21 16 9 10 6 5 11 10 10 9 8 11 11 12 15 18 18 20 23 23 22 22 21 22 22 22 20 19 20 19 17 15 14 13 12
20 15 11 19 21 12 7 5 6 7 6 5 5 12 15 22 33 32 30 29 27 10 8 14 16 15 15 15 15 14 17 17 17 16 15 17 17 19 19 19 19 19 19 18 18 18 18 17 15 13 12 12 11 10
23 20 16 13 8 7 7 9 6 6 6 7 7 8 8 12 17 19 24 22 14 21 16 16 16 16 19 20 20 20 20 20 19 19 17 16 17 17 18 17 17 18 18 17 15 15 15 14 12 12 12 11 11 11
11 6 5 5 6 6 4 5 5 5 3 3 5 5 5 6 9 10 8 12 12 16 15 16 17 17 19 19 20 20 18 17 17 17 16 16 16 15 15 16 15 14 14 14 12 12 12 11 11 11 10 10 9 9
5 5 6 5 7 5 4 5 4 4 5 5 4 4 5 6 7 7 5 6 9 10 11 11 9 12 13 15 16 16 14 13 14 15 13 12 13 13 12 12 12 12 11 9 10 10 10 10 11 10 11 11 11 11
5 9 6 8 6 5 4 3 4 4 4 4 3 4 3 4 3 3 3 4 6 8 9 9 10 11 12 12 12 13 13 11 11 12 12 10 9 8 9 10 11 12 10 9 10 10 10 10 10 10 10 10 11 10
7 12 6 5 4 4 3 3 4 4 3 3 4 4 2 3 3 4 3 5 5 6 7 8 7 8 10 9 8 8 9 8 8 10 10 9 9 8 7 6 6 9 11 10 9 8 9 9 10 10 9 10 11 10
5 6 7 6 6 8 7 9 8 5 4 3 3 2 2 3 3 3 7 5 5 5 6 8 8 8 8 8 8 8 8 7 7 6 6 6 6 6 5 5 5 7 7 8 7 7 8 8 8 9 9 8 9 10
6 7 5 5 9 10 4 4 4 4 4 4 2 4 3 3 3 4 6 7 8 8 8 8 8 8 7 7 6 5 4 4 5 7 7 8 7 7 6 6 5 6 6 6 7 7 7 7 8 8 9 9 9 9
7 5 7 7 8 9 10 6 5 5 5 4 3 3 3 5 7 10 10 9 8 7 7 6 6 7 7 6 4 3 4 4 2 3 2 2 2 6 7 6 6 7 7 7 7 7 8 8 8 8 8 8 8 8
5 4 6 8 6 6 8 8 9 9 11 9 9 13 14 9 6 9 7 6 5 6 5 5 5 4 3 2 1 4 5 5 3 1 1 1 3 6 6 7 7 7 7 6 7 7 8 9 8 8 8 9 8 11
4 5 7 9 7 10 12 12 13 12 10 12 13 13 11 7 5 6 6 6 6 5 5 4 4 3 1 1 1 2 3 6 6 5 5 5 5 5 7 8 8 8 7 8 8 8 8 9 8 8 9 11 12 13
8 7 6 5 5 4 4 5 4 5 5 6 5 5 5 4 4 4 7 6 4 4 5 4 2 3 3 4 5 5 5 6 7 7 6 7 6 8 9 10 9 9 9 9 10 10 10 11 11 11 12 12 14 15
12 15 14 8 5 3 3 4 3 3 3 3 3 3 2 2 3 4 8 9 9 6 4 5 4 4 4 5 6 6 6 7 7 7 7 8 9 9 10 10 10 10 11 11 11 12 12 13 14 14 16 17 17 17

GFSWCAN_850_spd_036.txt.gz
Wind_Speed
32 30 25 28 28 30 31 29 27 27 26 37 41 43 44 50 47 49 45 46 39 5 20 18 19 20 25 31 14 18 10 9 8 11 12 8 6 8 11 10 8 7 3 4 7 8 12 7 13 17 10 12 9 14
29 25 19 20 20 21 11 16 22 25 27 36 35 37 40 49 47 43 25 45 37 20 2 11 14 20 22 26 26 23 19 16 7 5 6 6 3 4 6 4 5 3 8 3 5 2 5 17 22 20 14 11 14 11
23 11 13 15 13 8 8 11 8 22 30 34 35 36 38 49 42 40 32 44 28 10 4 9 11 26 13 19 30 17 25 14 12 28 6 3 3 3 3 7 5 12 10 6 2 9 16 4 17 27 20 17 20 13
9 7 9 11 9 7 9 13 22 26 32 34 40 37 44 39 38 39 36 46 23 13 3 5 12 16 15 16 12 15 13 18 13 19 7 3 3 8 5 5 6 7 15 16 11 12 18 39 22 17 15 19 11 8
5 6 8 11 11 14 14 19 26 27 30 36 40 39 38 37 37 32 39 24 16 12 3 3 7 11 6 15 11 7 9 11 12 3 4 5 5 3 2 5 6 10 12 7 6 7 4 15 20 19 14 19 21 12
6 10 12 14 17 16 21 23 25 28 31 39 37 37 42 51 30 37 10 18 20 20 4 5 7 7 10 7 17 12 14 25 16 9 10 8 10 6 3 5 10 16 16 16 7 14 11 17 20 16 13 13 24 13
12 10 11 15 18 22 22 25 23 27 31 36 37 42 42 37 24 10 6 22 24 20 4 2 3 5 10 11 15 16 14 8 6 3 4 6 12 12 3 6 9 15 13 13 13 20 16 18 11 13 13 10 13 13
19 21 18 20 21 25 23 22 23 28 37 52 52 41 33 26 22 15 17 23 18 8 2 1 2 1 9 8 7 12 7 6 7 5 3 5 6 2 2 10 11 10 17 20 14 8 5 10 16 14 13 7 5 6
21 24 22 23 25 26 25 25 36 50 44 44 36 30 25 16 6 9 18 19 11 4 3 2 1 2 5 9 10 9 11 4 4 3 2 2 3 2 9 17 21 21 15 17 14 11 9 8 9 8 7 7 5 6
22 23 27 28 30 35 33 31 40 41 42 38 30 9 6 8 22 25 8 3 3 3 3 2 3 2 3 3 2 5 6 3 4 5 5 4 3 11 21 18 17 19 20 16 14 15 19 15 11 6 4 3 3 7
20 25 32 34 33 32 33 37 39 36 29 10 4 7 20 21 6 2 3 3 4 2 6 4 9 5 4 3 2 4 3 5 4 5 7 5 4 12 22 20 17 16 14 13 12 11 11 10 6 3 6 7 9 14
25 25 25 30 35 38 30 17 12 12 6 9 16 17 14 2 3 2 3 1 3 2 5 3 7 14 9 16 4 4 3 1 5 6 4 3 5 19 19 18 17 14 11 9 8 7 8 9 9 10 12 11 13 16
26 28 30 33 34 25 17 15 12 20 16 11 5 4 2 2 2 3 4 2 1 5 7 4 3 4 5 5 2 3 3 3 1 3 4 5 18 18 16 15 16 16 13 12 14 14 13 16 15 14 17 15 17 18
25 26 27 27 22 15 14 13 10 8 6 6 4 4 5 5 5 4 4 4 5 6 13 12 2 1 3 3 2 4 1 1 3 4 5 7 17 16 16 16 19 22 21 22 23 22 23 24 25 24 23 21 23 25
23 22 21 19 15 12 9 11 7 8 7 7 7 5 6 6 9 10 11 4 10 10 10 3 5 6 5 4 4 3 4 6 7 5 4 15 16 17 19 21 23 24 26 28 27 29 30 30 31 31 27 26 28 28
22 20 16 9 4 1 9 7 14 11 7 6 10 4 14 4 8 13 12 10 13 14 7 4 3 3 6 4 5 8 4 6 4 4 12 14 19 21 24 25 27 28 31 33 34 34 34 34 34 34 32 30 29 28
14 15 14 7 3 6 6 11 10 10 7 5 5 14 8 5 10 10 10 13 13 6 2 3 6 6 3 4 4 5 4 6 13 15 17 19 20 22 24 28 30 31 33 33 33 33 33 31 31 31 32 28 26 24
16 13 7 4 9 14 26 13 8 8 8 9 5 13 14 13 15 11 12 17 7 4 5 5 6 8 6 5 3 6 16 17 18 20 22 21 22 24 26 27 27 28 29 29 29 29 28 28 28 25 23 22 22 20
12 9 5 1 5 7 6 7 7 6 4 5 15 16 15 20 26 22 18 19 23 17 9 7 7 5 4 7 11 16 16 16 17 18 22 23 23 24 24 25 26 27 27 26 26 26 25 24 23 20 17 16 20 18
15 13 6 4 9 5 5 6 6 7 4 5 11 21 26 22 22 33 30 22 19 10 9 6 5 11 10 12 13 17 16 16 17 19 18 20 20 22 22 22 21 20 21 21 22 20 19 20 19 16 14 14 14 12
12 14 14 17 17 11 7 4 5 5 7 6 10 15 14 25 35 34 28 31 26 8 7 13 18 20 19 19 17 18 22 21 20 18 16 18 19 19 20 19 19 19 19 18 18 18 18 18 14 13 13 14 11 11
16 15 10 11 8 6 7 11 7 7 6 9 12 10 7 13 17 21 28 22 14 21 20 19 18 18 23 24 23 23 22 22 21 20 19 17 18 19 19 17 17 19 18 17 15 14 15 13 12 11 9 10 10 13
11 6 6 5 6 6 4 6 5 5 3 3 4 5 5 5 8 9 7 13 14 17 17 18 20 20 22 22 23 22 20 19 19 18 17 17 16 15 15 15 15 14 14 13 11 10 11 10 12 10 8 8 8 8
5 5 6 5 7 5 4 5 5 4 5 4 3 4 4 5 6 7 5 8 12 12 14 12 12 15 16 17 18 17 15 14 15 16 13 11 12 12 11 12 11 11 10 8 8 8 8 9 8 9 10 10 9 9
4 8 5 7 5 4 4 3 4 4 5 5 4 5 4 5 3 4 3 5 9 11 12 12 14 13 14 14 14 14 14 11 11 12 11 11 8 7 7 10 11 10 9 7 8 8 8 8 9 9 9 10 10 9
6 10 6 4 4 4 3 3 3 4 3 4 5 4 4 3 4 5 3 8 9 8 10 10 9 10 12 10 8 8 8 8 7 10 10 8 7 6 5 4 4 8 10 8 7 7 8 8 9 9 7 8 10 8
5 6 7 6 6 8 7 10 10 6 6 4 3 2 2 3 4 3 7 8 7 7 8 10 10 10 9 8 8 8 8 7 7 6 6 7 7 6 5 4 5 6 7 7 6 6 7 7 7 8 8 7 8 9
7 7 6 8 11 14 5 5 5 5 3 5 3 4 3 4 3 4 6 6 7 7 7 8 9 9 9 8 6 5 6 8 10 11 11 12 14 11 9 8 8 7 7 7 7 7 7 7 7 7 8 9 10 10
7 6 8 8 9 11 11 6 4 5 6 4 2 3 4 5 7 11 10 9 8 7 7 6 7 7 6 5 4 5 5 4 4 4 4 3 4 11 11 8 7 8 7 6 7 9 9 9 9 10 10 10 10 10
5 5 7 9 5 6 8 8 11 9 10 11 13 19 18 12 13 9 9 8 7 6 5 5 6 3 3 2 4 6 5 5 4 2 1 2 6 9 8 8 8 8 8 8 8 9 9 11 10 9 11 12 11 13
5 7 8 8 6 10 12 14 17 17 17 18 13 14 13 9 7 8 7 6 5 5 5 4 4 3 1 1 2 1 6 9 7 5 5 6 6 6 8 10 10 10 9 9 10 10 10 12 11 10 10 13 14 15
7 6 7 5 6 7 4 4 5 9 9 10 9 7 7 6 4 2 5 7 6 4 7 4 2 6 3 4 4 3 5 6 7 7 7 7 8 9 11 12 11 10 10 11 11 11 10 12 13 13 14 14 16 18
15 14 13 9 6 5 3 4 4 4 5 4 4 4 4 4 4 4 8 11 9 8 6 8 8 4 3 4 6 7 7 7 7 8 8 8 10 10 10 11 11 11 12 12 12 12 12 13 14 16 17 18 18 19

GFSWCAN_850_spd_039.txt.gz
Wind_Speed
28 32 34 33 33 29 31 33 37 39 40 40 40 42 45 47 52 51 43 36 32 7 7 20 30 18 29 27 12 9 7 13 2 4 4 4 4 5 3 6 7 8 8 5 4 4 6 18 7 12 6 16 21 24
28 29 27 21 22 25 28 26 26 24 29 36 37 39 42 48 52 52 29 35 33 24 9 26 27 35 25 34 28 20 11 6 12 4 4 4 3 6 15 9 3 4 6 7 8 5 9 24 11 26 23 23 27 2
24 20 15 16 18 18 18 22 24 27 26 29 32 36 42 44 53 57 30 34 33 27 16 8 21 34 28 25 22 6 16 21 9 6 2 3 4 5 1 6 4 1 4 3 5 5 9 20 22 28 21 25 30 17
17 10 11 12 11 9 10 8 3 10 18 26 27 32 37 44 49 50 39 33 34 16 4 5 8 21 27 24 18 18 25 18 23 16 3 1 2 3 4 5 5 3 7 4 2 3 17 21 12 25 32 28 33 32
5 6 7 6 9 8 12 10 14 23 25 27 28 32 36 44 48 43 35 30 26 11 3 6 15 13 15 20 19 18 16 16 6 4 2 5 4 5 3 2 3 5 5 4 5 14 13 7 5 10 22 24 26 23
4 8 8 8 12 17 17 15 19 22 26 29 31 30 43 50 45 32 13 29 26 15 2 3 7 17 14 15 19 14 17 15 2 5 2 2 5 10 1 2 4 5 6 5 3 10 14 16 16 9 9 6 12 16
5 8 10 12 15 21 21 24 28 31 32 32 34 40 38 36 37 6 5 24 40 10 3 2 2 4 8 9 11 13 13 6 4 2 4 3 5 4 3 2 13 26 22 13 12 14 10 7 6 6 8 12 11 12
12 10 13 17 21 19 23 27 29 30 31 35 40 39 33 30 22 18 24 21 14 8 6 3 0 3 3 5 3 9 8 10 5 3 5 3 10 5 3 12 21 27 22 21 23 16 10 9 10 10 8 12 9 9
17 17 18 23 21 22 23 26 30 32 35 39 37 30 27 15 8 16 20 20 14 8 3 3 2 1 2 1 6 8 9 2 5 2 4 3 2 4 7 14 16 19 18 24 19 14 11 11 12 10 9 8 11 11
21 20 22 25 29 29 31 40 41 38 35 29 22 8 6 14 27 24 8 4 5 5 3 2 4 2 2 4 2 3 4 3 2 5 4 4 3 9 19 15 14 17 17 17 19 20 21 18 13 9 11 11 10 13
21 26 27 29 29 33 36 37 31 29 22 7 5 7 27 13 5 4 4 3 3 2 3 3 4 3 2 2 1 2 3 2 3 4 5 3 3 8 17 17 17 14 12 9 7 8 10 9 9 9 11 12 12 14
26 27 26 31 32 25 22 25 17 11 5 5 17 15 4 4 5 4 2 2 1 2 2 3 5 6 5 7 2 1 3 1 4 3 4 3 5 16 18 17 17 14 11 11 10 10 10 12 14 14 14 14 15 16
30 36 31 22 18 21 19 21 24 19 14 8 5 4 4 6 5 4 2 1 2 4 7 5 2 5 5 7 1 2 2 2 3 4 4 3 13 16 16 15 17 18 17 18 20 20 20 22 21 20 22 20 20 22
33 25 22 17 18 17 13 7 7 7 4 7 5 6 4 5 4 4 3 3 4 6 12 6 2 2 3 2 1 4 3 2 4 4 4 4 14 16 16 16 20 23 24 27 28 28 30 30 31 29 29 26 27 30
22 18 14 14 13 11 12 8 7 2 7 8 8 5 5 5 8 9 12 5 9 13 10 2 3 2 2 3 4 5 5 5 6 3 2 11 16 20 22 23 26 28 30 32 31 33 34 34 35 35 32 32 32 32
15 12 11 6 9 10 6 8 14 13 7 7 9 4 13 4 5 9 11 8 13 14 3 3 2 3 4 3 4 4 4 5 3 3 12 18 21 23 25 28 31 33 35 36 36 36 36 36 37 36 34 33 31 30
8 7 5 7 15 12 3 10 10 10 8 6 5 15 11 2 5 9 12 16 14 8 3 3 6 5 4 4 4 5 3 5 13 16 22 22 23 25 27 30 32 33 34 35 34 34 34 32 31 32 33 28 26 24
10 9 6 2 9 11 31 13 8 7 6 8 4 15 16 17 17 14 15 19 9 6 6 5 6 7 5 4 3 4 13 22 24 22 24 23 24 26 27 28 28 28 29 29 28 28 28 28 29 28 25 22 22 21
5 5 3 8 12 7 6 8 9 6 7 7 20 18 16 20 24 20 17 16 21 16 9 7 6 4 4 6 11 18 18 19 22 25 27 25 25 23 24 25 25 26 26 25 25 26 25 23 22 20 21 19 21 19
2 2 5 7 8 6 6 6 7 9 3 8 16 23 24 19 21 29 29 23 22 12 9 5 4 12 12 21 23 24 24 23 24 24 24 22 21 21 22 21 21 19 20 20 21 20 19 20 19 17 15 13 13 16
6 11 13 18 19 11 7 5 6 7 10 9 19 11 13 28 36 34 31 32 24 8 5 16 24 26 23 26 26 25 25 24 23 24 22 24 19 20 20 19 17 18 19 19 19 18 17 18 14 13 13 14 10 8
11 11 10 10 7 7 9 12 9 10 7 12 11 6 6 9 13 20 28 21 15 26 26 26 27 27 29 28 25 24 22 22 21 21 19 18 19 19 20 18 17 19 18 16 15 14 14 10 8 8 8 10 9 8
5 4 6 7 6 6 4 7 5 5 4 2 5 5 5 6 9 12 8 16 15 23 24 25 25 26 28 25 24 23 21 21 21 18 16 16 15 14 14 14 13 14 13 11 8 9 9 7 8 7 6 4 4 5
5 5 6 6 8 3 4 5 5 5 6 4 4 4 4 6 8 8 5 7 16 18 16 17 15 18 20 23 24 19 15 16 20 19 13 12 13 13 12 11 8 9 9 5 7 6 6 7 6 8 10 7 5 5
4 9 6 5 6 5 4 3 4 4 4 4 4 4 2 4 3 3 3 4 14 14 15 16 17 16 19 18 16 15 10 7 10 13 14 14 9 6 6 8 9 7 4 3 6 7 6 6 5 5 7 8 4 3
7 11 6 4 4 4 2 3 3 3 3 3 3 3 3 3 4 4 3 10 10 13 11 7 7 11 12 7 7 10 12 4 5 9 9 5 3 3 3 1 4 6 5 4 3 2 3 4 5 4 3 6 7 6
5 5 7 9 5 6 6 9 9 6 5 4 2 3 3 5 4 3 10 8 11 8 11 11 9 8 8 8 10 11 8 6 7 9 9 10 9 7 4 3 4 4 5 4 4 3 3 3 2 4 6 6 7 8
7 9 5 8 10 16 4 4 5 5 3 7 4 5 3 3 2 4 9 9 10 10 9 7 6 6 7 7 6 4 5 7 8 9 7 9 10 13 13 9 8 7 6 5 5 5 5 6 7 8 8 9 9 7
7 5 8 7 8 11 11 6 5 5 8 5 3 3 3 5 11 14 11 9 7 6 6 7 8 7 6 5 5 5 4 2 4 4 2 2 6 9 12 9 8 7 5 4 5 7 8 7 8 7 7 10 11 12
6 5 7 9 5 5 9 10 12 13 12 12 12 23 24 19 14 11 11 9 8 6 6 8 6 4 3 3 5 5 5 5 4 2 3 5 6 8 9 8 9 8 7 7 7 6 8 8 7 8 8 9 12 16
5 7 8 8 7 10 19 21 21 20 20 16 14 19 13 11 12 11 9 8 6 3 5 6 6 5 4 2 4 7 7 5 5 4 4 5 5 7 9 10 11 11 9 9 9 10 10 11 11 12 12 13 14 16
7 6 7 5 5 11 12 2 9 11 9 8 7 11 10 6 4 5 8 10 7 5 4 3 3 0 2 4 4 4 5 6 5 5 5 5 7 8 9 10 10 11 10 11 11 12 12 12 12 14 16 17 18 18
19 20 17 10 7 7 6 6 4 4 5 4 3 3 3 4 4 4 12 10 8 9 7 6 4 5 5 4 4 5 4 4 6 7 6 7 8 9 10 9 10 10 11 11 11 12 12 13 14 15 18 20 20 20

GFSWCAN_850_spd_042.txt.gz
Wind_Speed
22 20 23 28 31 33 34 34 35 36 35 36 38 39 40 43 46 45 43 30 37 12 17 13 28 15 24 30 12 7 5 8 2 7 4 4 4 6 4 7 7 8 8 5 5 4 10 2 13 5 6 9 21 26
25 26 26 27 26 23 24 27 30 33 35 35 38 41 41 44 46 48 32 39 30 21 5 19 19 28 25 38 31 19 9 8 12 4 4 2 2 1 6 3 4 4 7 5 9 7 4 3 1 10 5 9 13 23
26 24 22 17 19 22 24 24 25 29 33 34 33 38 43 43 44 49 42 33 35 14 14 23 22 25 32 24 36 17 15 16 13 13 5 4 4 5 3 6 6 4 5 4 3 8 11 7 9 19 12 9 15 23
22 14 11 13 15 15 15 17 19 22 25 33 31 33 40 41 44 48 40 40 33 12 4 8 29 22 32 34 24 37 21 19 16 19 5 3 3 8 5 5 5 5 7 6 5 6 5 18 9 12 10 5 11 14
5 7 6 7 9 6 9 6 3 4 10 25 26 30 35 39 44 46 38 39 37 25 7 4 15 20 24 31 31 21 28 25 16 2 3 5 4 3 2 3 2 6 3 4 6 11 7 15 14 8 10 6 10 13
6 5 4 2 7 9 5 8 10 17 17 20 23 26 33 34 42 39 15 34 35 36 5 4 6 16 18 27 29 24 26 19 20 6 4 5 6 9 3 3 7 13 16 21 7 19 13 13 12 8 15 14 11 13
5 7 8 11 12 16 13 15 17 19 22 25 29 31 38 46 50 25 11 18 40 28 6 3 2 10 13 17 19 17 14 10 10 5 3 3 2 12 3 3 12 16 21 14 22 18 7 15 8 8 5 2 4 5
9 8 16 12 18 22 25 20 20 23 31 34 39 42 42 36 36 13 10 19 43 13 4 3 1 3 6 4 3 12 8 7 5 6 1 3 2 4 4 10 15 15 18 12 22 16 11 6 5 7 8 8 5 2
13 14 16 20 21 20 24 31 34 37 39 38 37 36 28 14 6 24 25 21 11 4 3 3 3 2 3 2 4 3 4 2 8 3 2 1 4 4 6 12 16 17 14 16 16 12 15 14 13 13 11 9 9 9
17 21 20 19 21 25 26 30 30 27 22 18 17 6 6 12 27 26 9 5 5 1 3 2 5 2 4 2 2 2 1 3 3 4 9 3 3 8 14 13 13 15 13 13 13 14 18 17 16 17 15 10 10 12
20 24 25 28 26 28 29 27 23 20 11 6 8 9 20 14 5 4 4 2 1 2 3 3 3 4 3 3 2 2 2 1 2 2 3 3 2 8 15 15 13 10 9 8 6 5 6 7 9 11 13 14 14 16
27 30 24 21 26 23 22 22 12 6 8 11 16 12 4 5 5 5 2 2 3 2 4 2 2 3 5 4 2 3 2 1 2 2 4 3 3 13 13 13 13 13 11 11 10 10 11 12 13 15 17 18 18 20
24 24 26 23 18 16 25 23 15 16 15 6 5 5 5 6 9 4 2 2 2 3 8 6 2 3 4 4 1 2 3 2 4 4 3 3 9 11 11 11 15 15 17 20 21 21 20 22 22 23 24 23 23 26
23 23 22 21 17 9 4 5 7 7 4 7 6 6 4 5 4 3 2 2 3 5 10 5 2 1 2 2 0 4 3 4 4 3 3 3 11 13 14 14 18 22 25 26 27 28 30 31 33 31 30 30 32 33
15 11 11 15 13 13 8 6 1 1 8 8 8 5 4 4 8 6 10 4 8 10 5 1 4 4 3 3 5 4 4 5 4 2 2 10 16 17 19 21 25 28 29 29 30 32 34 34 35 35 34 34 34 33
4 7 19 18 8 8 10 10 11 11 7 7 9 5 12 3 5 8 12 9 14 13 2 4 3 3 4 3 5 5 3 4 3 3 12 19 21 23 23 25 28 30 31 31 31 32 33 33 33 33 31 31 30 30
2 6 8 14 14 5 6 9 10 10 8 6 5 19 11 5 7 12 14 16 14 7 3 3 5 5 3 4 4 4 3 5 14 20 24 23 24 24 24 26 27 29 29 29 29 29 29 28 27 27 29 26 25 25
4 4 2 4 6 15 30 14 8 8 8 10 5 15 18 16 15 13 17 21 7 5 4 4 5 7 4 3 3 3 15 23 24 25 24 22 22 23 24 25 24 24 24 23 22 22 21 22 24 24 22 20 21 20
4 2 2 9 11 10 6 8 8 7 11 6 17 16 17 18 25 18 16 16 22 15 8 6 6 4 3 8 14 18 21 23 26 28 25 21 21 21 21 20 21 21 21 21 20 21 21 20 19 17 16 15 18 16
4 9 9 11 7 5 7 7 8 10 5 7 13 23 26 21 24 29 27 23 20 9 9 5 4 8 15 22 26 25 26 27 28 27 23 19 17 17 17 17 17 16 17 16 17 17 17 17 16 13 12 11 11 13
16 14 15 18 21 12 8 6 8 10 11 9 16 18 18 30 37 35 31 26 22 9 6 14 23 29 28 27 25 24 23 22 21 22 21 20 17 17 17 16 15 15 15 14 15 15 14 14 12 10 9 9 9 9
10 9 10 10 7 7 10 11 11 12 8 12 10 7 5 9 17 26 25 22 13 19 16 22 24 27 27 25 23 21 20 20 19 20 19 17 18 17 16 13 11 13 13 12 10 10 11 9 6 5 5 7 6 7
3 5 6 6 6 6 5 5 5 4 4 3 4 5 5 7 9 16 8 11 11 20 24 26 27 27 27 22 21 20 17 17 18 15 14 15 14 12 10 10 8 9 10 10 7 7 7 7 7 4 2 3 4 5
6 5 6 6 8 3 5 5 5 5 5 4 3 4 3 6 7 7 4 6 14 15 16 18 21 23 22 21 21 17 14 12 16 17 13 10 12 11 7 7 6 6 6 5 5 5 4 5 6 6 4 2 4 5
4 9 6 6 6 5 5 4 4 4 4 3 4 3 1 5 3 3 2 3 13 14 14 15 15 15 18 17 14 13 9 5 7 9 9 5 5 6 5 6 5 4 3 3 4 5 4 4 5 6 5 5 3 4
7 12 6 4 4 4 2 3 4 3 3 4 3 4 5 4 5 3 2 9 13 11 8 4 6 10 11 8 9 10 11 8 4 4 6 2 1 3 5 5 4 2 1 1 4 5 5 3 4 5 5 5 5 4
5 5 8 9 4 7 6 10 9 6 4 3 1 3 4 5 2 2 10 10 10 9 7 4 3 6 9 10 9 7 6 5 4 6 6 5 5 4 3 3 2 1 1 1 1 2 2 3 5 5 5 6 7 6
6 8 5 10 11 14 5 4 4 3 2 4 5 5 4 4 2 6 8 10 8 8 6 5 4 5 6 7 6 3 1 1 3 3 3 4 6 9 10 7 5 4 2 2 1 1 3 3 4 4 4 4 5 7
7 5 8 7 8 9 9 3 3 4 4 2 4 2 4 4 9 14 14 9 7 7 7 7 7 4 4 4 3 2 0 2 3 3 3 3 4 7 8 8 8 7 5 5 6 6 6 6 7 6 7 8 7 9
5 6 7 7 5 5 10 9 11 10 12 13 13 25 25 22 16 12 10 8 6 7 9 8 6 5 4 2 2 2 2 2 4 5 6 5 6 6 6 7 7 8 8 6 5 6 7 8 7 7 9 11 12 14
6 7 8 8 6 13 22 22 22 23 25 21 20 24 16 12 12 10 10 7 3 1 3 4 5 3 4 5 6 5 4 3 3 3 4 4 5 5 7 8 9 9 8 6 6 7 8 9 10 10 10 10 11 14
6 6 7 5 5 16 6 9 13 12 9 8 7 8 10 5 4 8 8 7 7 5 3 3 2 2 2 5 5 4 3 3 2 4 4 4 5 6 7 8 8 8 7 8 8 9 10 10 11 12 13 14 15 16
21 22 17 9 6 8 5 5 4 5 5 3 4 3 3 3 3 6 11 11 8 5 3 4 5 5 5 4 4 4 3 3 4 4 4 5 5 6 7 7 7 7 7 8 9 9 10 10 11 12 13 14 15 16

GFSWCAN_850_spd_045.txt.gz
Wind_Speed
39 30 30 28 26 24 26 29 32 33 34 34 35 34 35 35 36 39 38 24 35 10 9 8 20 13 22 28 7 10 6 8 3 6 4 4 4 5 5 6 7 7 8 4 4 4 8 7 4 7 5 36 27 22
27 27 28 30 28 27 27 28 27 29 30 32 36 38 36 37 39 38 29 40 29 14 7 23 29 21 17 29 31 23 11 9 13 4 4 3 2 1 5 4 4 4 6 5 9 7 7 7 5 12 6 12 32 25
26 27 29 29 25 22 21 23 26 27 29 31 32 35 35 35 38 41 38 32 36 12 9 16 15 32 26 24 28 16 18 17 18 16 5 4 4 4 4 5 5 4 5 4 2 7 11 20 26 22 16 8 33 31
28 28 23 15 16 18 20 20 21 25 28 31 33 37 38 39 39 39 39 34 38 11 2 6 26 24 18 29 28 27 22 20 18 16 3 3 3 7 4 5 6 6 5 6 8 10 10 23 25 25 23 21 17 24
9 8 6 9 9 10 13 15 16 17 23 31 35 36 37 35 40 39 40 38 38 26 6 7 18 21 29 32 28 29 22 31 21 4 2 3 3 2 1 2 3 2 2 3 4 6 5 12 20 16 19 21 12 19
4 6 6 5 8 9 2 3 3 5 7 21 30 37 38 36 40 41 10 37 41 37 4 1 9 15 27 25 27 29 32 27 26 17 3 5 8 10 3 3 4 5 4 3 6 19 19 14 5 9 7 5 10 14
7 6 7 5 6 6 5 5 5 7 14 16 30 34 37 44 49 29 11 16 44 37 6 3 3 7 17 22 26 26 28 14 9 10 3 2 5 9 3 3 5 7 11 7 14 14 4 12 12 15 12 11 10 9
8 9 11 12 12 9 11 14 18 20 22 24 31 40 41 46 37 12 5 15 43 23 10 3 2 5 13 8 8 15 9 11 7 6 6 3 4 1 3 8 11 12 14 6 12 12 9 12 9 10 10 10 10 8
11 14 15 16 21 23 26 27 33 33 34 40 38 37 37 19 9 8 20 38 32 9 4 3 3 3 8 6 7 5 5 1 4 4 4 7 3 5 6 11 13 14 12 17 14 9 10 11 12 12 11 9 9 10
19 19 18 21 24 27 28 34 32 33 35 39 38 11 7 8 25 30 20 12 10 7 4 1 2 2 4 3 2 4 5 3 3 3 7 3 3 9 11 10 12 13 13 10 10 6 11 11 11 13 13 13 12 11
21 20 19 23 23 19 15 14 15 19 19 4 5 10 40 39 19 4 5 4 6 4 1 2 3 3 3 3 3 4 3 2 3 2 3 2 2 5 12 13 13 10 7 5 2 2 3 4 7 8 12 13 12 13
21 20 20 23 20 17 12 8 8 10 12 11 14 14 7 4 3 5 2 1 4 3 3 2 3 4 4 4 3 1 3 1 3 3 4 2 3 11 11 12 11 10 10 9 7 9 9 10 9 12 14 16 16 17
23 19 13 12 15 12 13 12 18 15 10 6 4 5 6 8 10 5 3 3 2 2 6 3 2 3 3 2 2 2 2 2 4 4 3 2 8 8 8 10 12 13 15 17 20 19 19 22 22 23 24 22 23 27
21 21 18 14 12 8 4 8 8 9 5 9 7 7 4 5 4 2 2 2 3 4 7 1 3 2 1 1 1 4 3 4 4 3 2 2 8 10 12 14 18 20 22 25 26 27 29 30 31 29 30 29 30 32
17 14 13 13 11 9 8 9 8 5 9 9 8 6 5 5 7 7 12 4 9 8 5 3 5 5 4 4 4 4 4 4 3 2 2 9 15 17 19 21 23 25 26 27 27 30 32 32 31 31 29 29 30 30
8 10 15 8 10 9 8 9 5 12 8 7 10 5 11 2 6 10 13 10 14 10 3 5 3 3 4 3 5 4 3 2 1 3 13 19 20 21 22 25 27 27 28 28 29 31 31 30 29 29 27 27 27 26
3 10 13 14 6 5 2 5 10 10 8 6 5 20 11 3 5 10 14 17 12 6 3 3 5 6 2 4 4 4 2 4 15 18 22 21 22 22 23 23 24 25 25 26 26 26 26 24 23 24 26 24 23 22
2 3 3 3 9 14 18 13 9 9 8 10 4 14 13 12 13 12 15 19 6 5 4 4 4 6 4 3 3 4 13 20 23 25 23 21 21 21 21 21 21 20 20 20 19 19 19 18 20 21 19 17 17 17
2 1 10 14 8 6 6 8 9 6 10 5 15 13 9 14 23 17 14 15 21 15 9 6 5 3 3 6 13 18 20 21 22 25 22 19 18 18 17 17 17 16 17 17 15 16 16 16 16 14 13 11 14 14
11 20 15 8 7 6 6 7 8 9 5 3 8 19 19 15 21 29 27 23 20 9 9 5 4 8 13 19 23 24 25 26 27 26 21 16 14 13 14 13 14 13 13 13 13 12 12 12 12 10 9 9 7 10
22 17 14 19 20 11 8 7 8 9 10 8 12 13 13 26 30 26 26 24 19 8 5 13 21 24 23 24 24 24 22 20 18 21 21 19 14 13 13 12 11 11 11 10 9 10 8 10 9 8 5 6 7 6
12 14 17 16 8 9 11 11 12 12 8 10 7 7 6 6 12 18 20 17 10 15 12 18 21 22 21 19 17 15 14 14 16 16 15 14 15 14 13 11 8 9 9 9 8 7 7 7 5 4 4 6 5 6
6 4 6 6 7 7 5 6 5 4 4 3 4 4 4 5 8 6 7 9 9 18 20 21 21 20 21 18 17 16 14 13 15 14 13 13 13 11 9 8 7 7 8 8 6 5 5 6 3 1 3 3 3 3
5 5 6 6 8 3 5 5 5 5 6 4 3 3 3 4 6 7 4 5 9 11 13 15 16 19 19 18 19 17 14 11 14 14 11 8 9 9 6 5 5 5 6 6 4 3 3 3 4 2 1 1 1 2
4 10 7 6 6 5 5 4 4 4 4 3 3 3 2 5 3 3 2 2 7 6 7 8 10 11 15 16 13 12 10 5 6 8 9 5 5 5 4 3 3 3 3 3 4 5 4 4 4 3 2 2 3 4
7 11 6 3 4 5 1 4 3 3 3 4 3 4 5 3 4 2 2 10 12 8 7 5 6 9 11 9 10 9 8 6 3 1 3 2 1 2 3 3 3 2 2 3 3 3 4 4 4 4 3 4 4 5
5 5 7 8 5 8 6 9 7 5 4 2 1 3 3 4 2 2 10 12 13 11 8 5 2 4 8 9 7 6 5 4 1 2 3 3 2 1 2 2 3 3 3 4 4 4 4 4 4 5 6 6 7 6
6 7 5 8 10 11 5 3 3 2 1 3 4 4 4 5 3 7 8 12 11 10 8 7 7 6 6 6 5 3 2 1 2 2 2 2 3 4 4 2 2 2 2 3 4 5 6 6 6 7 7 8 9 9
8 5 6 6 8 10 10 3 2 3 3 2 4 2 3 4 9 16 17 11 8 6 5 5 6 5 4 3 2 1 2 1 2 4 6 7 7 6 5 4 5 5 6 6 6 6 7 7 8 9 9 10 12 13
5 7 7 7 5 5 9 9 11 10 10 12 12 24 25 23 18 12 11 9 6 7 7 6 7 6 3 4 4 4 3 4 5 6 7 7 7 5 5 7 8 8 6 6 6 7 9 10 11 12 13 14 14 14
5 6 8 8 7 14 24 25 24 24 25 21 24 24 17 13 12 8 6 6 6 5 4 4 4 2 1 3 5 5 4 4 5 4 4 4 5 5 7 8 8 8 7 7 8 9 9 9 9 10 11 12 13 15
7 6 7 5 5 10 6 7 8 8 6 7 8 10 9 5 4 8 10 6 4 4 4 3 2 2 3 5 5 5 5 5 5 5 5 6 7 8 8 9 8 8 9 9 9 9 10 11 11 12 13 13 13 14
21 22 14 8 5 5 3 4 4 4 5 3 4 4 4 3 4 6 9 8 6 4 1 0 1 3 5 4 3 4 4 4 5 6 6 7 7 8 9 8 7 7 8 9 9 10 10 11 11 11 11 11 12 13

GFSWCAN_850_spd_048.txt.gz
Wind_Speed
45 43 43 43 39 35 34 29 27 24 30 34 34 34 35 33 35 38 37 30 42 12 13 18 25 16 12 16 4 8 6 6 3 6 3 4 3 4 3 4 6 6 6 4 4 4 8 7 2 6 7 11 11 19
39 39 37 32 31 32 28 30 30 28 27 26 27 27 27 28 29 31 23 28 37 15 4 28 22 30 25 33 28 23 12 9 13 3 3 2 2 1 6 3 1 3 6 6 8 7 4 7 10 11 16 18 19 19
19 22 24 26 30 32 30 30 26 25 26 27 30 32 33 35 35 35 35 23 28 9 7 17 22 24 20 20 27 11 16 14 8 10 5 4 4 4 4 5 4 3 6 4 2 5 12 21 21 20 18 23 27 17
25 28 30 28 27 22 20 21 22 24 25 27 28 29 31 36 37 37 39 32 29 5 1 5 16 22 20 31 32 30 19 16 15 10 3 3 3 7 4 4 5 6 5 4 10 7 13 24 10 25 26 21 24 25
16 7 7 8 11 14 15 16 18 22 25 27 28 30 32 31 35 32 38 37 37 20 3 4 10 13 28 20 31 31 29 27 14 5 1 3 2 2 2 2 2 0 2 3 4 5 3 12 17 21 16 18 17 17
6 9 13 10 11 14 16 13 16 16 19 24 30 31 32 31 32 34 8 31 38 31 2 1 3 8 26 27 23 25 27 22 21 5 3 5 5 2 2 2 5 5 2 4 6 18 19 19 11 15 16 17 21 18
6 5 5 6 4 2 5 8 11 12 14 22 31 34 34 34 35 28 7 7 36 31 4 1 3 6 16 23 28 23 26 17 11 9 6 2 1 8 2 2 7 8 10 10 8 16 7 10 10 17 17 10 15 15
9 9 11 5 2 4 4 4 8 8 8 19 32 36 34 36 33 14 7 15 36 19 5 2 3 4 16 9 8 18 15 16 9 4 6 4 3 2 2 5 8 11 13 8 9 10 11 13 10 11 11 9 10 12
10 9 16 23 27 29 22 19 17 16 30 34 36 38 40 24 8 13 21 35 26 8 5 3 2 3 11 7 8 12 9 2 4 2 3 5 2 2 4 7 9 11 10 14 15 11 9 8 10 10 12 15 11 13
12 13 17 24 29 29 38 40 30 44 46 46 42 12 8 16 31 38 18 5 6 5 2 2 4 3 8 5 3 5 4 3 3 3 8 3 2 8 9 8 10 10 10 9 9 6 10 9 9 11 13 11 11 11
17 17 19 18 20 21 20 26 35 34 26 11 7 10 44 37 18 5 5 4 5 3 5 4 9 2 3 2 3 2 3 2 3 2 3 3 2 2 8 8 9 8 6 4 2 3 4 4 6 9 12 10 12 14
15 14 13 15 16 22 22 16 19 17 11 14 22 23 11 6 6 3 2 2 1 2 1 1 3 3 4 3 3 0 3 2 3 3 3 2 2 8 9 9 9 9 9 9 7 7 8 11 12 15 17 16 17 18
10 9 8 12 13 14 18 26 17 20 27 21 8 7 4 7 8 3 2 2 2 3 6 3 3 3 3 5 3 2 3 3 5 3 2 2 6 7 7 9 8 10 12 14 16 16 17 18 18 20 22 22 25 29
18 14 11 10 9 8 8 5 6 6 4 7 5 6 4 4 3 3 2 1 4 4 7 3 3 3 4 3 3 4 2 3 4 3 2 2 6 7 8 9 13 16 17 20 22 24 26 27 28 28 27 25 25 27
14 12 9 11 13 15 13 10 9 5 8 8 7 5 4 4 6 8 10 2 8 5 3 4 6 5 4 4 3 3 4 4 2 2 2 9 12 14 15 16 18 21 23 26 26 28 29 29 29 29 27 26 26 28
4 4 11 7 6 8 10 8 9 13 8 7 10 5 11 2 6 10 12 9 13 7 4 5 3 4 5 3 5 3 3 2 2 2 12 16 16 17 18 19 21 24 26 27 26 26 26 26 26 26 25 24 23 22
5 7 13 10 8 8 8 8 10 11 8 6 5 18 8 2 5 9 12 14 10 5 3 2 5 4 3 3 3 3 2 1 12 16 18 18 19 18 18 19 20 21 22 23 23 22 22 20 21 21 23 20 19 19
1 3 5 2 6 10 23 13 9 9 9 10 4 13 11 12 13 12 14 16 5 4 4 4 4 5 3 3 2 3 10 19 21 21 20 19 18 18 17 18 17 17 17 16 16 16 15 15 17 19 17 15 15 15
1 3 5 3 3 6 7 9 9 6 9 4 14 10 10 13 20 14 12 18 22 14 9 6 5 3 2 4 11 16 18 20 21 21 20 18 16 15 15 14 13 13 13 13 13 13 13 14 15 13 13 10 12 13
16 12 10 10 9 7 6 7 7 9 5 5 8 13 17 13 17 23 25 18 14 8 8 5 4 8 9 15 18 21 23 23 25 24 19 16 14 12 12 12 12 12 12 12 12 12 12 12 12 10 8 8 7 9
17 17 19 21 23 12 8 5 8 8 8 6 6 9 12 24 29 24 21 21 18 8 4 13 20 21 19 20 20 21 20 17 17 17 19 17 13 12 12 11 10 10 9 9 8 9 8 9 9 8 6 7 8 7
18 18 16 13 7 7 9 9 11 11 7 8 7 6 6 6 10 19 19 17 9 13 10 16 20 20 21 19 16 13 12 13 15 15 15 14 14 13 12 10 6 6 6 7 7 7 6 6 6 6 6 7 8 8
6 4 5 6 7 7 5 3 4 4 4 2 3 4 4 5 7 8 7 9 8 14 16 19 19 18 20 18 17 16 14 13 15 14 13 12 11 10 8 7 7 6 5 5 6 5 4 4 3 2 3 5 5 5
4 5 5 5 7 3 5 5 4 5 6 3 3 3 3 3 4 7 3 5 7 10 13 15 15 18 18 16 17 16 14 11 13 13 11 7 7 7 5 5 4 5 5 6 5 4 4 3 2 2 2 3 4 4
4 8 6 6 6 6 5 4 4 4 4 3 3 3 1 3 3 3 2 2 5 8 9 9 10 12 15 16 15 13 11 8 7 8 9 6 5 5 4 3 3 2 3 4 4 4 3 3 3 2 3 3 4 4
7 10 5 3 4 4 1 4 3 3 3 3 2 3 3 3 4 2 2 10 10 10 8 6 7 10 11 9 9 8 8 6 4 3 3 2 2 3 3 3 4 3 3 4 3 4 4 4 4 4 5 6 7 7
5 5 8 9 5 8 6 8 7 5 4 2 1 2 3 4 2 1 9 11 11 9 7 5 4 3 7 8 7 6 5 4 3 3 4 4 4 5 5 4 3 4 4 4 4 5 5 6 7 8 8 8 8 9
6 8 5 8 10 11 5 3 4 3 1 3 4 4 4 4 2 5 6 11 10 8 7 8 9 8 7 7 6 6 5 4 4 4 5 5 5 6 5 3 4 4 5 5 5 6 7 8 8 8 9 10 12 12
8 5 7 6 9 11 10 3 2 3 3 3 4 2 3 4 7 15 17 13 9 6 6 7 8 7 5 4 3 3 3 2 2 4 5 5 5 5 5 5 5 4 5 6 6 7 8 8 9 10 11 11 12 14
5 7 7 7 5 5 8 8 8 8 10 11 10 20 23 24 19 14 11 9 7 5 6 6 7 7 5 5 4 3 2 3 4 5 6 5 5 5 5 5 6 7 6 7 6 7 8 10 11 11 12 13 14 14
5 5 7 8 7 17 25 25 23 24 26 25 23 23 18 13 15 12 10 10 8 7 5 5 5 3 2 3 4 4 4 4 5 5 5 5 5 5 6 7 7 7 7 7 7 8 9 10 10 10 11 12 13 14
7 7 7 5 5 10 5 6 8 8 7 6 7 8 7 5 4 6 10 6 5 5 6 6 4 3 3 4 4 4 4 4 4 5 6 6 6 7 7 9 8 8 8 8 9 9 10 10 10 11 11 12 12 13
20 26 17 9 5 5 4 5 4 5 5 3 3 3 3 3 4 6 11 9 7 4 2 1 1 3 4 4 4 5 5 5 7 7 8 7 8 8 8 8 8 8 8 9 9 9 10 10 11 11 12 13 13 14

GFSWCAN_850_spd_054.txt.gz
Wind_Speed
42 41 43 39 36 37 41 42 38 36 35 35 34 34 35 36 36 37 40 33 36 18 25 16 29 22 16 16 8 4 7 5 4 6 5 4 4 5 5 3 9 10 9 8 11 6 6 6 3 4 7 9 16 19
40 36 33 30 29 26 28 33 39 38 37 36 36 37 37 38 40 39 40 38 34 25 15 25 34 24 25 25 16 9 4 7 11 7 6 4 4 2 8 6 11 7 7 6 7 7 3 3 3 8 10 12 15 17
36 34 38 34 30 25 19 26 32 34 34 34 34 35 37 39 42 44 46 39 35 33 18 22 23 25 29 28 22 8 8 8 7 10 2 4 5 6 6 9 9 8 9 7 5 8 10 8 2 6 9 9 11 14
38 31 23 18 19 21 24 21 25 28 28 29 29 30 30 31 38 45 47 40 37 9 5 10 17 27 28 28 27 25 13 11 7 9 8 4 4 6 6 8 8 9 7 10 12 13 12 13 2 8 10 10 12 13
15 14 15 15 14 12 16 26 27 27 28 27 25 24 26 26 31 38 41 41 41 26 4 7 9 22 22 26 30 24 22 13 8 4 2 3 6 4 4 3 8 12 11 8 8 5 1 6 9 9 13 12 13 14
11 16 12 13 10 13 14 13 15 23 26 27 25 26 28 26 33 39 11 31 44 26 5 5 4 8 23 19 22 25 20 15 12 5 3 6 10 3 4 8 5 4 2 5 4 6 8 12 11 7 10 10 10 10
15 10 11 13 11 14 16 16 18 19 21 21 21 23 32 31 36 21 7 14 40 19 3 1 3 4 13 16 15 17 18 15 10 3 5 3 4 9 3 6 5 2 5 6 5 8 7 8 4 11 12 11 9 6
7 8 11 8 5 15 14 15 18 21 22 20 26 25 28 33 30 21 6 13 33 14 6 2 2 4 11 9 9 12 9 10 4 3 4 5 8 3 2 4 3 5 8 4 7 7 9 12 10 10 10 8 5 5
15 8 15 17 9 7 12 22 20 21 27 26 26 27 35 28 18 19 9 31 30 6 6 4 5 4 11 9 9 9 8 3 6 4 3 8 3 2 5 3 4 7 7 11 12 9 3 1 5 7 6 6 2 4
18 13 16 20 19 17 18 25 26 29 30 33 33 13 8 16 27 33 14 6 6 4 4 3 4 4 10 10 10 7 6 4 3 1 6 1 3 9 5 4 4 6 7 8 9 3 7 4 4 5 4 4 3 3
19 14 13 17 25 29 26 28 31 37 37 26 5 6 39 32 15 4 4 3 4 3 6 5 10 5 6 3 4 7 4 4 4 2 3 4 3 3 5 5 5 5 4 5 4 3 4 4 4 5 8 6 7 9
19 19 18 15 26 31 31 41 45 33 16 12 23 31 21 6 4 3 4 4 4 4 5 4 6 5 6 5 3 5 4 4 3 5 4 5 4 4 4 6 7 8 8 7 6 7 7 9 9 10 11 11 13 15
15 14 23 27 22 27 28 23 25 34 40 29 9 5 1 4 3 2 6 3 4 2 2 4 3 9 6 9 3 4 4 2 8 2 2 3 5 5 5 5 7 8 8 10 11 11 12 13 13 14 17 17 19 22
13 17 22 26 27 37 36 34 33 17 2 7 5 5 4 3 4 3 2 2 3 1 2 2 4 1 0 2 1 3 2 3 4 4 3 4 6 6 6 7 8 11 12 14 15 17 20 21 21 21 21 21 21 22
10 11 14 21 21 18 11 7 4 2 6 7 6 5 5 4 4 4 3 1 3 4 3 3 4 1 2 4 3 3 3 3 3 3 3 8 8 9 10 11 12 14 15 17 19 21 22 22 23 23 22 21 21 21
6 5 9 13 9 11 9 7 10 9 7 7 8 3 5 2 6 6 7 4 6 4 1 2 2 3 5 3 3 3 2 3 3 4 11 11 11 12 13 14 16 17 18 19 20 21 22 22 22 21 19 18 17 16
6 6 9 15 16 5 8 7 7 9 6 5 5 9 5 4 4 6 7 9 7 5 2 2 4 5 1 3 3 4 3 6 14 14 12 13 14 15 17 18 18 18 19 19 18 18 18 17 16 15 16 14 13 13
9 8 6 3 3 9 19 10 8 8 8 9 4 8 9 8 9 8 8 10 4 3 3 4 3 4 4 2 3 5 12 15 15 15 15 16 17 17 16 17 16 15 15 15 14 14 12 11 11 11 10 9 9 9
7 6 6 4 1 4 6 8 8 6 9 6 8 7 6 7 11 10 9 12 14 11 7 5 5 4 3 5 12 15 14 15 17 16 17 17 16 15 15 14 13 12 12 11 9 9 9 9 9 7 6 6 6 6
8 7 6 3 2 6 6 6 6 8 5 5 7 14 8 7 8 11 14 14 14 7 7 5 4 8 11 13 13 15 16 17 18 17 14 13 13 12 12 11 11 10 10 9 9 9 7 7 6 6 5 5 5 6
12 10 11 13 17 13 8 5 7 7 8 6 6 8 8 16 18 15 14 10 13 7 5 8 12 15 16 17 16 16 15 12 10 10 12 11 10 10 10 10 8 8 7 7 6 6 6 6 5 5 4 5 6 6
12 10 8 11 8 7 8 9 9 9 6 9 5 5 6 9 11 13 14 14 8 11 7 10 13 15 17 17 15 14 13 13 14 14 14 12 10 9 8 7 6 6 6 5 5 5 4 4 4 5 5 6 6 6
7 7 7 6 7 6 5 3 4 3 3 3 3 3 4 4 5 6 7 8 7 11 10 13 16 17 18 17 17 16 14 14 14 13 12 11 10 9 7 6 5 5 5 4 4 3 3 3 3 3 3 4 4 4
5 5 5 5 6 5 5 3 4 4 4 3 3 3 3 4 4 7 4 5 5 7 9 11 13 16 17 16 15 15 14 12 12 12 10 7 6 6 5 5 4 4 3 3 3 2 2 2 2 2 2 2 2 1
4 8 5 6 5 4 4 3 2 3 3 3 3 3 3 3 3 3 3 3 3 5 7 8 10 11 13 13 12 12 11 9 8 8 7 6 4 3 3 3 2 1 1 2 1 1 1 1 1 1 2 2 3 3
7 9 5 3 3 3 2 4 3 3 3 3 4 3 2 3 4 4 3 7 6 7 9 8 9 9 9 9 8 7 7 6 5 3 2 2 2 1 0 0 1 3 1 1 1 1 2 2 3 3 4 4 5 4
4 5 6 7 3 6 6 7 7 6 4 3 2 2 2 4 3 3 6 8 8 11 11 9 8 7 9 9 8 6 5 4 4 3 3 2 2 2 1 1 1 2 1 1 1 1 2 2 3 3 4 5 5 5
5 6 4 7 8 10 4 4 4 3 3 2 3 4 3 3 3 4 6 12 11 10 9 10 11 9 9 8 8 6 6 5 4 4 4 5 4 4 3 3 3 3 3 3 3 3 3 4 4 5 5 6 7 7
7 4 6 6 7 9 10 4 3 3 3 2 3 3 4 4 7 11 16 13 12 11 11 10 10 9 8 6 5 4 3 3 4 4 4 3 4 4 4 4 5 5 6 5 5 4 5 5 5 6 7 7 8 9
5 6 6 6 5 6 8 6 5 6 8 9 10 18 17 14 17 17 15 14 12 10 10 9 8 8 6 5 3 2 2 2 3 3 2 3 3 4 4 5 6 7 6 6 6 7 7 7 7 7 7 8 8 9
4 5 7 8 6 11 15 19 21 19 16 18 19 21 17 11 15 11 10 9 9 9 9 7 6 5 3 2 2 1 2 2 2 3 3 3 4 5 5 6 7 6 6 6 6 6 6 6 7 7 7 8 8 9
5 5 7 5 8 9 8 6 8 9 7 8 7 10 7 5 4 6 10 11 10 8 6 5 4 2 2 1 1 1 1 2 2 3 4 4 5 5 6 6 6 5 5 6 6 5 6 6 6 7 7 8 9 9
16 19 17 11 6 7 6 6 4 5 4 3 3 3 3 3 4 6 11 9 9 8 6 4 2 1 1 2 2 2 2 3 5 5 6 5 5 5 5 5 5 5 5 5 6 6 7 7 8 8 9 9 10 10

GFSWCAN_850_spd_057.txt.gz
Wind_Speed
36 37 37 38 38 41 38 37 38 41 40 38 35 32 31 31 30 30 29 24 30 17 29 20 21 21 16 7 4 2 3 6 4 6 5 6 4 4 6 3 15 13 10 9 13 10 13 8 3 7 8 5 8 8
36 36 36 37 40 35 34 29 29 28 39 39 37 34 33 33 32 31 29 25 27 22 16 16 29 30 22 20 12 8 9 2 12 7 6 2 4 2 7 5 12 9 10 8 11 9 3 3 8 9 7 7 10 11
36 37 38 38 38 39 30 27 24 25 31 39 36 35 33 32 32 34 32 27 27 25 20 27 30 20 22 31 27 8 8 7 8 11 2 3 5 3 5 9 5 9 9 4 1 7 9 6 7 7 9 10 11 12
32 36 29 26 26 21 19 19 21 21 31 37 36 34 34 34 34 36 38 32 29 8 6 19 17 25 33 26 27 31 26 17 12 9 3 2 4 4 5 9 6 7 3 9 8 9 7 7 8 7 10 12 14 15
30 19 19 19 19 17 14 14 22 21 28 32 33 33 33 34 35 36 38 40 35 27 5 15 20 23 19 28 28 25 24 17 10 4 2 3 4 3 6 7 7 8 6 5 4 10 9 8 9 9 13 14 15 16
13 17 23 23 19 14 14 13 18 22 25 30 30 30 32 35 34 33 21 42 45 37 9 3 7 7 15 19 23 23 21 15 12 3 3 5 9 3 3 4 10 7 8 9 4 7 8 11 10 10 11 12 12 13
14 18 19 17 10 19 16 16 14 23 27 26 29 25 22 28 30 28 8 11 43 33 9 5 4 1 12 13 14 16 18 9 6 5 5 2 2 6 3 8 6 6 6 7 8 11 1 10 6 8 9 9 8 7
12 13 13 11 12 16 19 19 18 17 22 29 29 27 25 28 34 23 12 12 35 31 8 3 2 5 12 7 5 10 6 9 5 3 3 4 5 4 3 6 5 7 7 1 6 7 6 7 4 7 8 9 5 6
14 7 6 12 4 17 21 23 22 22 24 24 23 30 30 26 17 9 16 35 31 8 6 4 4 4 12 8 9 7 6 1 2 3 3 3 4 3 4 5 7 9 8 10 11 7 3 4 5 7 8 7 5 6
7 6 10 4 8 20 26 23 27 25 26 32 40 19 7 15 22 21 21 7 6 6 6 3 10 3 10 12 9 7 6 4 3 4 4 5 3 8 5 5 5 7 8 10 9 4 9 6 5 6 7 6 6 5
7 11 15 14 17 26 28 27 31 34 42 32 7 5 28 29 19 8 6 5 5 5 8 5 10 5 4 5 5 8 3 4 3 4 3 4 3 4 4 5 5 7 7 7 6 5 4 3 4 4 7 8 8 10
19 12 16 20 28 30 33 30 36 27 13 10 25 29 13 6 4 4 3 4 4 4 4 5 7 4 5 3 1 4 3 2 3 7 4 3 4 6 5 5 5 6 7 8 7 7 7 8 9 10 11 12 13 14
17 19 22 27 29 30 31 29 20 27 43 33 10 5 2 3 2 4 6 3 4 3 4 3 3 4 3 2 1 2 4 4 6 3 2 3 7 6 6 6 8 9 8 10 10 11 12 13 13 13 16 16 16 18
20 24 24 26 30 38 29 30 34 29 9 4 3 5 4 3 3 3 4 4 5 3 4 4 5 2 3 3 1 2 2 3 4 5 3 5 8 6 8 8 8 11 12 14 14 16 18 18 20 19 19 18 17 17
17 21 29 27 34 37 28 15 9 4 6 6 6 4 4 4 5 4 3 2 3 1 2 4 4 2 2 2 0 2 4 3 5 4 4 10 9 9 10 10 11 12 13 15 15 17 19 18 19 19 18 17 16 16
14 13 15 15 15 12 7 4 8 7 7 6 7 4 2 4 6 6 7 7 4 2 2 3 2 3 2 1 1 3 2 4 3 4 12 11 11 12 12 13 14 14 14 15 17 18 18 18 17 17 15 14 12 11
5 8 15 9 10 10 10 7 7 9 7 5 5 8 6 8 7 6 5 6 4 4 2 0 2 4 1 3 3 5 3 6 12 13 13 13 13 13 15 15 15 15 15 15 15 15 15 14 13 12 13 11 11 10
5 6 7 8 10 10 11 9 7 7 7 8 5 8 10 9 7 8 7 10 5 3 4 3 2 4 4 2 4 5 15 16 15 15 15 15 14 14 14 14 14 13 13 13 12 12 11 9 8 8 8 8 8 8
6 5 5 4 3 4 5 6 6 6 7 6 7 6 8 10 11 10 9 9 11 9 6 4 5 4 3 6 13 14 14 15 17 15 15 14 14 14 14 13 12 11 11 9 8 7 7 8 7 5 5 4 4 4
6 7 5 4 3 6 6 6 6 7 4 5 8 10 7 7 8 11 12 14 11 7 8 5 4 9 12 13 14 15 16 16 16 16 13 12 11 11 10 9 9 9 8 8 7 7 5 5 5 4 4 4 3 3
8 8 9 9 10 11 7 5 7 7 8 6 9 9 9 14 15 14 11 11 13 7 5 9 12 14 16 17 17 17 14 11 9 11 12 11 9 9 8 7 7 6 5 4 4 5 5 4 3 3 3 3 3 2
7 6 5 9 7 6 7 9 9 10 7 11 10 7 6 9 9 12 15 13 8 12 8 11 12 14 16 15 14 13 12 12 13 13 12 11 9 7 6 5 4 5 4 4 3 2 2 2 3 3 3 3 3 2
7 5 6 6 6 5 6 3 3 2 4 4 4 4 4 4 5 6 6 8 8 10 10 12 14 14 16 15 15 14 13 12 12 10 10 9 8 7 6 6 5 4 3 3 3 2 1 2 2 2 2 2 1 0
5 5 5 4 6 5 4 3 4 4 5 3 3 4 3 4 6 6 4 5 5 7 9 11 11 13 13 13 13 12 11 10 10 9 7 6 5 5 5 4 4 4 3 2 2 2 1 1 2 0 1 1 2 2
4 8 5 5 4 4 4 3 3 3 4 3 3 3 3 3 3 4 3 5 6 7 7 8 8 9 10 10 9 9 9 6 6 7 7 6 5 4 3 3 3 2 3 2 1 1 1 0 0 1 1 1 3 3
6 9 5 3 2 2 3 4 3 4 4 3 4 4 3 3 4 5 3 8 8 8 8 8 8 9 9 8 7 6 5 5 5 5 4 4 4 2 1 1 1 3 3 1 1 1 3 3 3 3 3 5 7 5
4 4 5 5 2 5 6 7 8 5 4 3 3 2 2 4 4 3 9 8 9 8 7 7 6 6 7 7 6 5 4 3 4 2 2 2 1 0 2 1 0 3 3 3 2 1 2 3 4 4 5 5 5 6
5 6 4 5 7 9 4 4 4 3 3 3 3 3 3 3 3 6 7 10 10 9 8 9 9 8 8 7 6 5 4 3 3 3 3 3 3 3 3 2 3 3 4 4 5 5 5 5 5 5 6 6 7 7
6 5 7 7 7 9 10 5 4 4 3 2 3 3 4 5 7 12 11 10 9 9 9 8 8 7 6 5 4 3 2 2 2 3 2 1 2 5 5 5 5 6 6 6 6 6 6 6 6 6 7 7 8 9
4 5 6 8 5 6 8 8 8 5 6 9 13 24 23 15 14 13 11 10 9 9 8 7 7 5 5 3 2 1 2 2 1 1 1 1 2 6 6 7 7 8 7 6 5 6 8 8 8 7 7 8 7 8
4 5 7 8 6 12 16 16 19 21 21 22 17 21 16 10 10 10 10 9 9 9 8 7 6 5 3 3 2 1 3 3 3 3 4 5 6 7 7 7 8 7 7 6 6 7 7 7 7 8 8 9 10 11
5 4 7 5 9 9 5 8 12 17 15 14 12 12 11 7 5 3 8 8 6 5 7 5 3 2 1 1 0 1 2 2 3 5 5 6 6 6 6 6 6 6 6 7 6 7 7 8 9 9 10 11 12 12
19 20 20 15 7 7 5 6 5 6 6 5 3 4 4 3 4 4 11 12 12 8 6 6 4 3 2 1 1 1 2 4 5 6 6 5 5 5 5 5 5 6 6 7 8 8 9 10 10 11 12 13 13 13

GFSWCAN_850_spd_063.txt.gz
Wind_Speed
25 26 28 26 27 28 30 30 30 30 30 30 32 31 31 29 26 26 29 24 23 10 16 14 16 20 10 6 4 11 5 2 2 2 2 4 3 4 4 6 3 5 7 5 4 4 8 8 5 2 9 16 19 22
29 30 28 28 29 30 30 31 30 32 32 33 34 32 33 34 29 27 27 25 24 19 10 8 16 21 16 16 15 4 6 8 3 3 1 3 2 2 1 2 4 2 4 2 8 6 4 16 16 23 23 21 20 21
28 26 28 30 31 30 29 31 32 32 33 34 33 32 28 37 32 32 29 20 18 20 20 27 31 23 19 19 15 5 5 4 6 9 3 3 4 3 1 2 3 2 4 3 4 9 8 24 23 23 24 26 21 18
26 28 31 32 30 29 29 27 21 22 24 26 27 26 28 36 33 32 29 24 20 4 5 10 10 16 14 16 21 18 18 17 13 11 4 3 3 2 2 3 2 1 3 3 3 8 21 22 18 23 25 22 19 15
29 31 29 28 26 26 17 18 18 16 15 17 17 21 24 35 31 28 26 25 24 14 3 7 16 17 17 15 17 23 18 12 9 1 3 2 4 4 2 0 3 4 3 2 3 8 17 16 16 17 15 10 17 15
29 27 25 28 23 19 15 17 21 16 14 11 17 19 31 34 30 25 10 25 27 20 5 3 6 12 11 15 15 17 20 16 10 3 2 5 9 4 1 2 7 15 20 26 8 9 23 19 18 14 12 12 11 11
28 26 23 20 16 17 19 18 11 10 10 15 22 27 34 33 34 26 9 7 21 23 3 3 4 4 9 17 18 19 12 10 7 4 5 4 5 6 1 2 8 12 14 15 18 12 16 16 11 10 13 13 9 10
26 23 18 18 19 20 10 10 12 11 15 25 29 32 30 28 26 27 12 7 17 21 6 3 3 3 7 6 4 9 9 8 10 4 3 3 4 3 3 7 9 13 9 18 20 17 18 15 12 13 13 10 12 12
16 17 19 22 13 13 9 16 14 20 26 30 31 28 24 22 15 24 27 15 24 7 7 4 1 4 6 3 3 5 6 2 8 3 3 4 1 3 3 8 11 16 12 10 8 16 16 17 15 11 11 11 13 14
17 18 12 10 15 12 18 23 22 30 33 34 34 17 6 15 9 14 8 11 7 6 6 2 5 2 3 9 4 4 4 2 2 4 4 3 3 10 10 12 8 9 12 11 7 10 11 13 14 14 16 15 15 16
11 12 13 15 14 20 29 28 35 38 38 32 11 8 19 28 17 9 5 4 5 3 6 8 13 3 4 2 2 4 2 2 2 3 4 2 2 4 10 10 8 7 9 12 10 9 8 10 11 11 13 12 12 13
3 5 9 18 29 34 34 32 46 42 25 17 13 29 22 7 5 4 4 4 5 4 4 4 4 9 3 2 2 1 1 1 2 6 2 2 3 11 11 10 10 8 6 8 9 10 11 12 11 13 14 16 18 18
13 21 25 30 34 34 36 40 42 30 26 31 9 5 5 4 3 5 7 3 2 2 1 4 4 3 3 2 3 1 0 2 7 2 2 3 12 13 12 9 10 9 8 7 7 8 9 12 13 15 17 17 17 17
24 25 26 30 29 30 37 36 39 34 15 4 4 4 3 3 3 3 3 2 3 4 10 14 5 3 2 2 2 1 1 2 2 3 2 3 14 11 9 6 6 10 10 12 13 15 17 17 18 17 17 15 15 17
30 32 39 36 33 38 41 33 16 16 7 5 5 3 3 2 4 2 4 5 5 7 8 7 4 3 2 2 1 2 1 1 3 2 2 12 10 8 9 10 12 12 13 15 15 17 16 16 17 17 15 14 13 13
25 39 36 40 39 26 29 16 6 9 6 5 7 3 4 4 6 10 10 8 4 5 7 3 2 2 1 1 2 4 3 3 2 3 15 16 14 12 12 11 11 13 14 15 15 15 14 14 13 13 11 9 9 7
26 22 17 17 13 11 11 11 5 8 6 5 4 13 9 10 10 7 7 6 2 3 1 2 4 1 1 3 3 3 2 4 13 17 16 14 14 14 14 15 15 15 15 15 15 14 13 12 10 9 9 9 8 8
14 12 12 13 15 11 15 10 7 7 8 9 5 10 18 15 12 8 9 11 5 3 4 2 3 5 3 2 2 3 12 20 19 17 16 16 17 16 16 15 14 13 13 13 13 11 9 8 7 8 8 7 7 6
21 16 14 13 8 6 6 6 7 6 7 8 12 13 13 12 13 14 12 11 13 10 7 5 4 2 2 5 11 16 18 19 21 20 18 15 15 15 14 13 13 12 12 9 6 7 9 8 7 6 5 6 5 1
15 15 11 9 4 6 6 6 6 8 4 5 8 11 7 9 13 13 16 17 13 7 7 4 3 8 11 16 15 17 16 17 20 19 17 14 12 11 9 9 10 9 8 8 6 4 4 2 1 3 5 5 5 3
17 15 13 11 14 9 7 5 6 7 8 6 12 6 8 16 15 10 11 10 11 6 4 9 15 14 15 15 14 14 16 16 16 16 16 13 10 9 12 9 8 8 7 3 3 3 3 2 4 5 5 5 4 4
12 9 9 7 7 6 7 6 10 10 5 8 6 5 5 4 4 8 6 12 6 9 6 16 18 19 19 17 17 17 17 17 15 14 14 13 13 11 9 5 3 3 3 2 1 4 4 4 5 4 4 4 6 8
11 5 6 5 6 5 4 10 3 5 3 5 6 4 3 3 3 5 6 6 5 10 15 15 15 16 19 17 16 14 12 13 14 11 9 9 8 6 6 5 4 3 1 1 4 4 6 4 1 4 1 1 4 5
5 4 4 4 5 4 5 2 5 6 6 3 3 3 3 4 6 5 3 4 8 10 14 17 19 20 18 15 16 13 10 10 14 12 6 4 5 3 1 0 1 4 2 2 4 6 6 3 1 1 3 4 3 4
4 7 5 4 4 4 3 2 2 3 3 3 3 2 2 4 3 3 2 6 12 12 13 14 12 13 13 12 14 14 10 4 6 11 9 5 3 2 1 3 3 4 2 2 1 6 7 6 5 5 7 8 7 9
6 9 5 5 4 3 3 4 3 3 3 3 2 4 5 2 3 3 2 15 15 13 12 13 14 16 14 10 12 12 11 8 3 3 6 7 7 8 5 3 6 5 6 5 7 6 4 7 8 8 5 6 8 9
4 3 6 8 3 3 5 8 10 5 3 3 3 2 3 4 3 2 15 18 19 16 15 14 16 15 13 11 7 6 9 7 5 1 3 3 1 2 4 6 7 7 8 8 6 4 9 10 9 8 6 6 8 11
5 7 4 7 8 13 4 4 4 3 2 5 4 4 3 3 2 5 16 20 18 16 15 14 12 9 7 8 10 9 9 7 5 4 3 4 6 4 4 3 4 5 7 6 5 5 6 7 8 8 9 10 11 12
5 4 7 6 8 9 9 5 3 4 7 3 3 2 3 5 17 25 19 16 14 14 14 11 11 9 9 8 6 4 4 4 5 4 2 1 4 6 9 10 8 6 6 6 6 7 7 7 7 4 4 6 6 4
4 4 6 7 4 4 5 5 7 6 10 16 17 28 28 24 16 13 13 13 12 12 11 10 9 6 6 5 5 6 6 4 3 3 4 5 6 9 9 8 8 8 7 6 5 6 7 7 7 6 7 10 11 12
6 5 6 6 5 14 21 21 22 24 26 29 27 25 17 19 23 19 17 12 9 11 13 13 12 10 7 3 2 3 4 2 1 1 3 4 6 6 6 6 6 6 7 7 7 7 7 7 8 8 9 11 12 13
4 4 7 4 6 15 7 9 10 18 18 17 14 20 13 6 5 5 12 11 9 11 9 6 5 6 5 5 3 1 1 2 2 3 5 6 5 6 6 7 6 6 7 7 8 9 9 10 10 11 12 13 14 15
19 20 19 12 5 7 7 6 6 5 4 3 4 5 6 4 4 6 10 10 14 11 9 6 4 4 4 3 2 1 2 3 3 4 4 5 5 6 6 6 7 7 8 9 9 10 10 11 12 13 14 15 16 17

GFSWCAN_850_spd_066.txt.gz
Wind_Speed
22 24 25 23 23 24 22 22 22 23 24 25 25 25 24 24 23 23 26 24 21 5 16 12 7 6 4 11 1 7 9 5 2 1 2 2 3 4 2 4 3 5 4 3 3 3 8 14 9 5 5 6 17 20
25 22 22 25 27 24 23 23 24 24 25 24 26 27 27 28 27 25 27 25 22 21 9 6 15 18 24 26 10 3 3 3 4 1 1 2 2 2 2 2 4 3 4 2 6 4 7 22 17 20 21 19 15 18
24 25 27 26 22 23 24 25 26 25 27 27 27 32 33 32 31 33 31 23 21 17 19 27 27 25 23 24 17 8 4 3 4 7 2 2 3 1 1 2 3 4 2 3 3 6 9 19 27 28 23 25 22 20
25 25 24 22 23 25 26 25 24 25 27 25 26 28 33 35 32 34 33 28 22 4 4 7 6 11 11 18 24 25 21 12 8 3 2 2 3 2 2 2 1 2 1 3 2 11 14 15 19 19 16 19 19 17
23 24 23 24 25 24 20 22 21 18 16 17 17 17 23 25 25 33 27 26 23 14 3 6 18 12 16 13 14 18 21 10 5 1 2 2 3 3 2 1 4 5 3 2 2 7 13 11 11 10 9 13 13 10
25 24 23 24 22 19 22 17 14 16 15 16 18 13 16 24 37 30 10 24 24 20 6 3 6 9 7 9 16 18 20 21 9 2 3 5 5 4 2 2 6 6 11 9 5 17 22 13 13 7 12 8 5 7
24 22 24 23 20 19 14 14 17 15 15 11 12 17 24 37 36 14 9 7 30 20 4 3 5 3 9 6 14 13 13 12 9 4 5 4 4 5 2 2 5 9 12 9 13 7 11 6 10 9 7 6 5 8
25 26 24 23 20 14 13 11 9 11 11 17 19 24 36 32 30 10 10 11 30 20 3 2 3 5 3 5 5 14 10 9 8 5 3 3 3 3 3 7 9 8 10 16 17 11 15 15 12 9 6 3 4 7
25 20 18 18 20 19 15 13 16 16 23 28 31 34 30 21 19 8 7 14 25 7 6 3 2 3 5 6 7 7 9 2 6 4 3 4 2 3 4 10 11 10 6 4 8 9 8 9 9 6 3 4 6 9
14 13 12 18 19 14 16 20 25 33 36 40 38 17 6 16 13 12 4 9 10 7 5 3 6 3 4 2 3 5 6 3 3 5 5 2 3 14 13 12 8 7 5 4 6 8 6 7 6 7 7 7 9 12
15 13 13 17 20 22 23 32 39 43 43 35 12 6 14 21 10 8 4 5 5 4 7 7 15 4 5 1 2 5 3 2 2 3 2 2 3 4 10 11 10 10 7 6 6 8 8 5 6 8 9 11 13 14
14 17 20 20 25 25 34 44 47 47 28 19 12 26 23 7 4 4 3 3 4 4 6 4 5 9 3 2 1 2 2 1 2 2 2 1 3 9 8 9 8 7 6 9 10 12 11 11 10 12 12 13 14 15
11 16 24 33 32 38 41 48 44 36 22 32 9 7 6 6 5 5 7 3 2 3 3 4 3 4 2 2 2 1 1 1 6 3 2 2 11 7 7 6 8 6 5 7 10 11 11 13 13 15 18 17 17 17
21 24 33 40 43 41 49 45 38 27 19 4 3 4 2 2 1 1 1 1 1 2 11 13 4 3 3 2 1 2 1 2 1 2 3 1 9 7 5 4 4 8 9 12 14 14 16 17 18 17 15 13 13 14
32 33 37 39 40 46 45 40 34 20 4 4 4 2 1 2 1 1 3 4 5 5 4 6 5 3 2 3 1 3 2 2 2 3 2 9 9 7 7 8 10 11 13 15 15 16 16 16 17 18 14 12 11 10
36 41 42 43 44 47 37 35 25 5 5 4 6 3 3 5 4 7 7 6 5 4 5 4 2 3 2 2 3 2 1 2 2 2 13 12 11 10 10 10 10 12 13 14 15 15 14 13 13 13 10 8 7 5
38 36 44 47 37 30 17 18 8 7 5 4 4 10 9 9 7 7 6 5 2 3 2 3 4 1 1 3 2 2 2 3 13 16 13 9 10 10 10 12 12 13 14 14 14 13 12 11 10 8 8 8 7 7
34 29 30 32 21 18 14 8 6 5 5 7 5 10 16 10 7 9 7 6 4 3 3 2 3 4 2 3 2 1 8 17 15 15 13 11 12 12 13 13 12 12 11 11 10 9 9 8 7 6 4 3 3 3
24 23 23 20 14 9 5 5 5 5 6 7 9 10 9 10 16 9 6 11 12 10 7 4 4 2 1 3 8 18 20 20 20 18 16 14 13 13 12 12 12 11 9 7 5 5 5 3 0 1 2 5 4 4
21 19 15 10 6 6 6 6 5 7 4 4 6 8 6 7 6 10 13 12 10 7 7 4 1 2 3 13 18 19 18 20 22 20 16 13 12 11 10 9 8 7 6 5 4 3 3 2 2 3 3 5 5 5
17 13 12 9 15 10 7 4 5 6 7 6 9 5 6 9 7 8 9 9 9 5 4 6 15 14 13 13 12 14 17 17 19 19 19 17 12 11 11 8 8 7 5 2 2 3 4 6 6 6 6 5 5 4
16 12 12 9 7 6 6 5 10 9 5 7 8 4 4 3 3 5 5 11 5 7 5 17 18 17 17 16 17 18 16 15 14 14 14 14 14 11 9 6 5 5 4 3 3 4 5 6 8 7 5 2 2 3
11 6 6 5 5 5 5 9 4 4 3 5 6 3 2 2 3 4 5 5 5 13 16 18 19 18 21 18 18 17 13 12 14 14 12 12 8 5 4 4 3 4 4 4 5 6 7 5 4 4 5 4 2 1
6 4 4 4 4 4 7 4 5 5 5 3 2 3 2 4 6 4 3 3 8 12 15 18 19 20 18 15 15 13 11 10 12 10 6 5 5 4 2 2 4 5 5 4 4 3 5 5 3 4 5 5 6 6
3 6 4 3 4 4 3 2 2 3 2 2 3 1 1 5 3 2 2 6 14 18 20 19 17 15 17 16 14 13 10 6 8 9 8 4 4 4 3 1 1 1 2 6 6 6 5 4 4 6 8 8 8 8
5 7 3 1 2 4 3 4 3 4 3 3 1 4 4 3 3 2 3 15 19 20 22 18 17 16 14 12 14 11 9 7 4 5 6 6 5 6 6 6 5 5 5 5 7 9 8 8 8 8 8 7 7 8
4 2 4 7 1 4 5 7 9 5 3 3 2 2 3 4 2 1 16 18 18 15 16 16 12 9 11 13 10 9 7 5 4 2 4 4 5 6 6 7 8 9 9 9 8 8 9 11 12 12 11 11 11 11
4 5 4 8 9 10 4 4 3 2 0 3 4 4 4 6 3 4 13 20 19 18 16 15 13 10 9 9 9 9 9 7 6 4 4 3 3 2 2 3 5 7 8 8 8 7 7 7 8 9 9 9 10 11
5 4 6 6 7 8 8 2 1 2 4 2 4 2 3 3 8 22 24 20 18 16 17 16 13 9 10 10 9 8 6 5 4 4 2 2 3 4 6 6 5 6 7 6 7 6 5 5 4 5 6 7 7 7
3 4 6 5 4 4 7 4 6 7 7 12 11 23 25 24 21 17 16 14 13 12 11 9 10 8 8 7 6 6 6 6 5 5 6 5 6 7 8 8 8 7 6 6 6 5 6 7 7 7 8 10 10 11
5 5 6 6 5 13 18 19 18 16 20 27 30 27 21 20 18 14 12 10 10 13 14 13 12 10 7 6 6 5 4 3 3 3 3 4 4 5 5 5 5 4 4 4 5 5 5 6 6 7 8 9 10 12
4 4 7 4 6 18 9 10 11 18 17 19 17 21 13 6 5 5 12 12 10 10 8 6 5 5 4 2 2 2 2 2 2 2 2 2 2 2 1 2 2 3 4 5 6 7 8 8 8 9 10 11 12 13
15 19 19 13 6 8 8 7 6 8 8 6 3 2 3 3 4 6 9 10 8 4 5 4 5 5 5 4 3 2 1 1 2 1 1 2 2 3 3 4 5 5 6 7 7 8 8 9 10 11 12 13 14 16

GFSWCAN_850_spd_069.txt.gz
Wind_Speed
19 21 20 20 22 22 22 21 21 20 18 19 20 20 20 19 19 21 23 21 19 8 15 14 9 9 5 4 1 7 6 5 4 3 1 0 1 3 1 3 2 5 4 3 3 4 7 15 11 3 4 17 15 21
23 23 23 23 23 22 22 24 23 21 21 21 22 22 23 23 23 23 25 23 22 17 11 11 14 21 28 24 14 4 3 2 4 3 2 2 2 3 0 2 1 1 1 2 5 2 5 10 10 13 11 20 10 22
26 23 22 21 23 24 25 24 22 21 23 23 23 23 24 26 26 28 32 25 20 17 19 25 27 25 25 23 12 6 6 3 5 12 2 1 3 1 2 3 2 2 3 1 1 8 9 12 19 23 21 24 19 16
25 24 23 24 25 24 21 20 22 24 24 25 25 28 31 31 31 31 34 34 26 6 4 10 8 13 12 13 19 24 24 11 13 8 3 2 2 0 2 4 1 3 2 3 1 9 14 12 13 18 18 20 18 15
23 23 23 23 22 21 21 22 23 20 20 23 24 23 27 30 29 31 38 34 29 18 3 6 13 14 13 11 13 18 24 24 19 3 2 2 3 3 2 1 3 5 3 2 2 6 9 8 8 10 17 17 14 12
22 22 23 23 23 23 22 20 20 20 20 21 18 16 19 18 22 33 7 25 25 24 3 3 5 6 4 10 18 18 17 18 13 2 3 5 3 3 3 2 5 8 11 2 3 14 14 13 10 9 13 12 11 9
25 24 25 22 21 21 19 19 17 16 19 14 15 15 12 22 27 18 8 9 29 21 3 3 4 3 9 7 13 15 18 12 9 6 5 4 4 4 1 1 5 11 14 10 7 2 6 8 9 9 9 10 8 9
28 27 25 21 20 21 18 18 14 12 15 14 14 17 17 30 22 11 6 10 31 18 5 2 4 2 4 5 4 7 8 9 8 5 2 3 4 0 2 5 6 5 7 13 12 8 11 11 6 8 7 5 6 8
26 25 22 22 23 23 21 16 14 13 16 22 25 33 37 20 7 8 12 22 25 6 5 4 2 3 1 5 5 6 6 2 5 3 3 3 1 2 4 7 7 9 5 4 5 7 8 6 6 5 5 6 6 6
24 25 27 24 22 23 22 17 17 25 32 35 39 14 7 12 18 29 14 9 10 6 5 3 5 2 3 6 6 7 7 4 4 5 6 2 2 8 7 6 4 4 5 1 1 3 3 4 3 5 5 5 6 8
25 23 20 17 21 24 22 24 31 37 37 33 7 4 21 18 6 2 4 4 6 3 6 6 14 4 8 2 2 7 3 2 3 3 3 2 2 3 3 4 4 5 5 4 1 0 1 1 3 4 6 7 7 7
18 20 22 22 24 19 28 38 44 44 24 14 14 26 23 6 4 3 4 3 4 4 5 4 5 10 4 4 2 2 2 1 2 7 2 2 2 8 4 3 2 2 2 2 3 4 4 3 2 2 5 6 7 7
24 26 21 24 27 34 43 46 44 31 29 30 14 7 6 5 4 4 5 3 3 4 5 5 2 3 2 1 1 1 3 2 4 3 2 1 11 9 7 4 2 1 1 2 2 2 3 4 6 7 11 12 11 11
25 28 30 30 38 46 47 46 36 36 12 5 5 6 3 3 3 4 3 2 2 1 7 11 4 2 2 3 1 1 2 2 2 2 4 2 10 8 6 4 4 5 6 8 8 8 10 11 13 13 13 12 10 9
26 35 38 38 47 49 46 41 33 24 4 3 3 2 1 0 2 1 3 4 3 4 7 7 4 3 2 1 0 2 2 1 2 3 2 12 10 7 7 7 9 11 13 14 14 14 15 14 14 14 12 10 8 7
35 42 39 46 51 47 40 30 25 5 4 3 5 3 3 3 3 4 5 4 3 5 5 2 2 3 2 2 3 1 1 3 3 2 13 14 11 10 10 10 12 13 14 15 15 14 14 13 12 11 9 7 6 4
39 43 53 52 47 39 32 20 4 6 5 4 3 8 9 8 5 4 3 3 3 2 2 3 4 2 1 3 1 1 3 3 10 15 13 11 12 12 12 13 14 14 14 14 14 13 12 10 9 7 6 7 6 6
52 51 50 48 38 30 20 6 6 5 5 6 4 4 11 7 3 7 4 3 2 3 3 2 3 4 3 4 2 3 5 14 14 14 13 13 12 13 13 15 15 14 13 12 10 9 8 7 5 3 2 2 2 2
48 51 44 31 28 17 5 4 4 4 5 5 7 8 9 9 12 7 5 9 10 9 8 4 4 1 2 2 3 16 20 19 19 16 15 14 14 14 13 12 11 11 8 6 5 4 3 2 1 2 5 5 5 5
33 30 24 17 9 5 6 5 5 6 3 3 6 6 6 6 4 8 9 9 8 5 6 3 1 2 0 7 16 18 15 17 21 20 16 13 10 10 10 9 9 8 5 4 3 2 1 1 3 4 3 6 6 7
28 23 18 15 13 8 6 5 5 5 7 6 10 4 5 6 5 7 8 7 7 5 3 4 8 10 11 11 13 13 15 15 16 16 18 16 11 9 9 8 7 6 4 1 2 2 3 5 4 4 4 4 5 5
19 19 16 9 7 5 6 5 9 8 4 7 5 4 4 3 3 4 4 9 4 4 4 14 14 13 14 13 13 12 13 12 12 14 13 12 11 9 7 5 4 4 4 3 4 5 6 6 6 6 4 4 3 3
14 8 5 4 5 4 5 6 3 3 3 5 4 3 2 2 3 3 5 4 4 10 15 14 13 13 17 17 15 14 11 11 13 12 11 9 8 6 4 3 3 2 3 3 3 5 5 5 5 5 5 4 6 6
7 4 3 3 4 3 6 3 4 5 5 2 2 2 1 4 5 4 2 2 9 15 15 18 18 20 18 16 16 13 11 10 12 11 8 6 5 5 3 3 2 3 4 4 3 4 5 5 3 4 6 7 6 7
3 6 3 3 4 5 3 2 2 3 2 2 3 1 1 5 2 2 3 6 16 18 19 18 16 14 17 17 15 12 10 5 7 8 8 4 4 4 3 1 1 3 3 4 5 7 8 7 6 7 7 9 9 9
5 6 3 0 1 4 3 4 3 4 3 2 2 4 4 3 3 3 3 16 20 23 21 19 18 16 14 10 13 11 9 6 3 4 5 5 4 4 5 5 5 6 7 7 7 7 8 8 10 10 10 10 9 9
3 2 3 5 1 5 5 6 5 4 3 4 3 2 3 3 2 1 11 16 20 23 18 13 10 7 10 14 11 9 8 6 4 4 5 6 6 6 6 6 8 9 9 9 9 9 9 10 12 12 12 12 12 11
4 4 3 5 8 8 4 3 3 2 1 2 3 3 4 6 3 4 10 19 18 18 18 14 12 8 10 10 9 8 9 7 5 4 3 2 2 2 2 4 6 7 8 8 8 8 9 9 9 9 10 10 11 12
4 3 5 5 6 7 7 2 1 2 2 2 3 2 3 3 3 12 20 21 18 17 18 17 16 12 9 8 8 7 6 4 3 3 3 3 3 2 4 5 5 5 6 6 7 8 8 7 8 8 9 9 10 11
3 4 5 4 4 3 5 5 3 4 5 8 8 12 12 13 16 19 18 17 16 15 12 11 9 8 8 7 6 6 5 5 4 4 4 5 6 7 6 6 5 5 5 6 6 6 8 8 9 9 9 10 11 12
4 4 5 6 5 9 17 14 12 10 8 12 22 25 18 13 15 12 12 12 11 12 12 12 11 9 6 5 4 3 2 3 3 4 4 5 5 5 5 4 4 4 5 5 5 6 6 7 9 9 10 11 12 13
3 3 6 4 4 13 8 6 8 12 10 13 10 15 12 5 4 6 11 10 9 10 9 7 6 7 7 6 4 4 2 2 2 3 3 3 2 2 3 3 4 5 6 6 7 7 7 8 9 11 12 12 13 15
11 14 14 9 6 7 7 6 4 4 4 6 4 2 3 3 4 7 13 12 7 4 6 7 7 6 5 5 4 2 1 2 2 2 1 1 1 2 3 3 4 5 7 7 8 9 10 10 11 12 13 14 16 17

GFSWCAN_850_spd_075.txt.gz
Wind_Speed
23 19 15 13 17 19 21 19 17 17 16 14 13 13 13 12 14 14 15 14 16 7 11 12 10 11 10 3 2 8 9 3 3 4 4 4 5 4 2 2 0 2 5 3 5 5 6 12 4 2 6 6 9 14
24 21 18 14 13 20 22 19 19 17 15 14 14 16 16 15 15 15 16 14 16 13 9 10 12 17 24 22 13 6 5 9 4 3 3 4 3 4 4 1 3 1 2 1 4 1 6 9 8 7 11 9 9 11
20 20 21 18 14 21 21 19 20 17 16 15 15 16 16 16 16 19 20 15 16 17 19 22 19 10 16 24 15 5 5 4 3 5 4 3 3 2 2 2 3 2 7 2 4 5 10 11 12 11 11 15 13 13
23 23 26 17 16 23 23 21 19 17 16 16 17 18 18 18 18 20 24 22 19 5 3 9 9 11 5 9 19 25 26 7 5 12 5 3 2 2 2 3 2 4 6 5 0 8 13 19 16 12 15 17 18 16
22 20 22 20 15 24 23 16 17 17 18 18 17 17 18 19 19 20 23 31 28 20 5 5 10 4 9 14 13 11 19 23 13 4 2 2 3 3 2 2 3 5 4 2 2 6 11 9 10 11 16 16 15 16
23 19 19 23 23 27 21 18 17 18 18 17 17 17 16 17 19 19 21 33 27 33 5 2 5 5 5 4 9 15 14 13 8 4 4 5 4 2 3 0 5 10 12 14 4 15 20 16 14 13 16 15 14 15
21 21 16 20 25 24 20 17 15 16 17 16 14 15 17 19 20 24 8 9 21 37 6 1 4 3 4 7 6 9 10 7 7 5 4 3 6 4 2 0 5 10 13 13 9 15 12 3 9 12 13 13 11 12
22 25 23 21 21 19 17 17 15 16 15 14 16 17 22 18 19 9 8 8 32 16 6 2 3 3 8 5 4 8 8 9 7 4 2 3 4 3 1 4 6 6 9 14 18 14 16 14 11 11 9 8 10 12
23 24 23 21 19 18 16 16 14 15 15 13 13 20 19 14 6 9 13 25 19 2 8 4 2 2 5 4 4 6 7 3 4 3 3 3 1 2 3 5 8 8 5 4 8 11 11 12 10 9 9 9 11 12
24 24 23 20 19 20 19 15 15 17 13 29 29 7 5 9 26 30 6 3 3 3 4 3 5 2 6 4 6 3 2 2 3 4 4 3 1 6 6 7 6 7 8 5 4 6 6 8 9 9 10 10 11 12
23 23 21 21 20 19 18 17 17 16 39 24 6 5 34 33 8 4 4 2 2 2 5 7 14 4 8 3 2 7 3 3 3 3 5 3 2 3 5 6 7 7 7 8 6 6 5 6 8 10 11 11 12 13
24 23 22 20 19 18 19 15 26 35 18 9 22 26 23 3 3 3 4 4 4 4 5 5 6 10 4 8 5 6 4 5 3 7 3 2 2 7 6 6 6 5 5 6 6 7 7 7 7 10 13 13 14 16
22 21 21 20 19 20 22 14 38 20 23 35 11 6 6 3 3 5 6 4 3 4 7 9 4 8 7 10 6 4 2 2 4 1 1 1 7 7 6 6 5 4 5 6 8 8 9 11 13 14 16 16 16 16
22 22 21 22 24 22 23 21 31 35 21 5 5 5 4 3 4 4 3 3 3 3 5 6 5 3 4 2 1 1 0 1 2 2 2 3 9 8 4 3 3 7 9 10 12 14 16 18 19 19 17 15 13 14
22 22 22 21 23 23 32 44 38 22 3 4 4 4 4 1 1 2 4 2 1 0 3 5 5 2 1 2 1 1 1 1 1 1 2 7 10 7 6 8 10 12 14 16 16 17 17 16 16 17 15 13 11 10
22 18 21 25 35 40 47 41 25 8 3 3 4 3 3 3 1 2 3 3 2 2 3 2 2 2 1 1 1 1 1 1 1 2 10 12 9 8 10 12 14 15 15 16 16 16 15 14 12 12 11 9 9 8
25 9 29 37 48 47 36 23 13 4 4 3 3 5 5 5 4 2 1 2 2 3 1 2 3 1 1 2 1 1 2 1 5 12 11 9 10 12 13 14 15 15 15 14 13 12 11 11 10 9 7 7 6 6
21 35 39 53 49 33 25 8 5 4 5 4 2 4 7 5 5 4 3 3 2 3 2 2 4 2 2 3 2 2 4 11 14 13 13 12 12 12 12 14 14 13 12 11 10 9 9 7 6 5 4 3 2 3
43 51 54 51 34 25 6 3 5 5 4 5 7 7 6 8 9 6 6 7 7 8 8 4 3 1 2 3 3 10 19 17 18 15 13 12 12 13 14 13 12 10 9 7 5 3 2 2 3 3 4 4 4 4
52 49 43 32 24 5 5 5 5 6 3 4 6 5 5 5 5 7 6 6 6 3 5 3 1 2 3 4 9 18 17 18 20 19 16 14 13 13 13 11 9 6 4 2 2 1 0 2 4 5 5 5 6 7
46 34 30 22 9 8 6 4 5 4 6 5 8 3 4 4 3 3 4 4 4 3 2 2 5 7 11 14 16 14 15 15 17 19 22 19 14 11 10 8 6 5 4 3 1 2 3 5 6 6 6 6 5 5
31 25 24 10 5 5 6 6 7 6 4 6 4 3 4 2 2 2 3 5 3 2 4 10 14 16 18 16 14 14 14 13 11 14 13 13 14 11 9 8 6 5 4 3 3 4 5 7 7 6 5 4 3 4
25 22 11 4 4 4 4 5 3 3 3 3 3 3 2 2 2 2 4 2 2 5 12 15 15 15 17 17 17 15 12 10 14 13 12 11 11 9 7 6 4 4 4 4 4 5 5 4 5 4 4 5 5 6
15 4 4 3 4 2 4 2 4 4 4 2 2 2 1 3 3 3 1 2 7 13 14 15 17 20 19 17 16 14 13 13 13 12 10 8 8 7 5 4 3 3 3 3 3 5 5 6 6 5 5 6 7 8
5 4 3 3 4 4 3 1 2 2 2 2 3 0 2 4 2 1 2 5 15 15 16 18 19 20 21 19 16 14 12 9 8 9 9 7 4 4 4 3 3 2 3 3 5 6 7 8 8 8 8 9 10 10
4 2 2 3 2 4 4 4 3 4 3 2 2 4 3 2 2 3 2 13 19 18 20 21 20 19 17 14 16 15 13 11 8 6 6 6 5 3 3 4 4 5 6 7 8 8 9 9 9 9 10 10 11 11
4 1 2 3 4 6 4 4 4 3 3 4 3 2 3 2 4 2 6 13 18 19 18 15 13 13 15 16 15 12 10 8 6 5 4 6 6 6 6 6 7 8 8 9 9 9 8 8 7 7 8 8 8 8
3 2 4 3 5 5 4 2 2 2 2 1 5 2 5 4 3 4 6 15 19 20 18 16 14 11 12 13 11 9 9 7 5 4 4 3 2 2 2 3 5 7 7 7 7 7 6 6 6 7 7 8 9 9
4 4 4 4 4 5 4 2 2 2 1 3 3 2 3 2 4 6 13 19 20 19 19 18 15 14 14 13 11 9 7 6 4 3 3 2 2 3 4 6 7 7 6 6 6 6 6 6 7 8 8 9 10 10
2 3 5 4 3 1 2 1 3 5 5 6 6 7 6 5 7 13 18 20 20 18 15 12 11 11 9 8 9 9 8 6 4 3 2 3 3 4 4 5 5 5 5 5 5 6 7 7 8 9 9 10 11 12
4 3 5 4 3 5 12 12 10 7 5 5 7 10 9 8 9 11 16 19 18 15 13 14 13 10 8 8 8 6 5 4 3 2 2 2 2 2 2 3 3 3 4 5 6 6 7 8 9 10 11 11 12 14
2 3 6 3 3 10 5 2 3 4 3 4 4 5 8 5 4 6 12 15 16 16 13 11 8 10 9 7 6 5 4 3 2 1 1 1 2 2 2 3 4 5 6 7 7 8 9 10 10 11 12 13 14 16
4 6 7 6 5 5 6 5 3 3 3 2 3 3 4 4 5 7 14 17 15 12 12 12 11 10 9 7 6 4 4 2 1 1 1 1 2 3 4 4 5 6 7 8 9 9 10 11 11 13 14 15 16 18

GFSWCAN_850_spd_078.txt.gz
Wind_Speed
22 23 19 15 13 15 18 20 22 17 16 16 15 13 12 12 11 11 7 9 6 4 6 7 7 8 9 7 5 8 8 2 5 4 3 4 3 4 2 2 5 6 6 4 3 3 3 15 2 4 7 6 8 10
25 23 22 19 15 16 19 23 24 18 19 17 16 14 13 13 13 11 6 10 10 7 5 7 11 15 16 13 10 3 6 7 4 4 4 4 4 6 6 3 3 2 5 3 5 4 6 11 10 6 8 8 6 8
24 24 25 20 14 14 21 26 20 20 17 16 14 14 16 15 14 13 10 10 11 9 15 14 10 8 11 18 15 6 4 2 3 4 5 3 4 5 5 4 5 4 9 3 5 9 9 10 9 10 12 12 10 11
19 27 30 21 18 15 22 24 20 20 17 13 14 13 15 16 16 16 18 15 15 2 4 4 7 10 7 10 16 23 18 13 9 11 9 3 4 5 3 4 3 4 8 6 3 6 9 11 11 11 13 13 15 15
21 19 21 20 20 16 26 22 19 20 17 14 15 15 16 17 17 16 19 22 18 11 3 4 8 4 6 11 10 11 15 12 10 5 4 3 5 4 2 3 3 6 4 3 2 5 8 7 9 10 13 13 12 12
23 20 20 22 24 17 24 24 17 17 15 14 15 15 15 15 15 13 8 22 25 27 6 3 5 8 9 7 9 12 9 7 5 4 5 6 5 4 4 1 5 5 5 8 3 12 15 12 12 11 12 11 11 11
23 22 22 23 22 21 22 21 18 16 14 15 16 16 15 16 18 24 7 5 12 30 7 3 4 4 9 6 5 6 9 5 7 4 5 8 9 4 3 1 5 7 9 7 9 12 8 3 7 9 10 9 10 11
21 25 22 19 20 24 25 21 17 15 13 14 14 13 17 16 19 22 27 25 18 19 6 2 3 3 8 7 6 7 6 6 6 5 4 6 5 4 1 5 5 5 8 12 10 6 11 11 8 7 6 6 7 8
23 23 22 19 17 21 21 19 17 13 14 14 12 13 15 16 8 6 12 11 24 5 4 3 3 3 6 5 4 5 6 4 4 3 3 3 3 2 4 7 6 6 4 5 7 8 8 7 7 6 5 5 6 7
23 24 23 23 19 22 21 18 13 13 15 12 21 8 5 6 18 20 8 5 3 3 4 4 4 3 7 7 6 4 5 3 3 4 5 4 1 7 6 6 6 5 4 4 6 5 3 4 5 6 6 6 6 7
25 22 23 21 23 21 19 16 13 12 26 23 6 4 20 23 4 2 4 5 5 4 7 6 12 5 7 4 4 7 2 2 3 3 4 4 3 4 6 6 6 5 6 6 4 4 4 5 6 7 8 8 9 9
24 23 21 22 22 19 18 18 18 21 18 10 13 21 17 4 2 3 4 4 5 4 6 6 8 11 5 5 4 5 3 4 4 8 3 2 4 8 6 5 5 5 5 6 6 6 7 7 7 9 9 9 10 11
24 22 22 23 19 17 17 17 17 23 25 31 8 6 5 4 4 5 7 4 4 4 7 7 5 8 5 6 4 3 5 4 7 4 0 3 9 8 7 5 5 5 5 6 6 7 8 9 10 10 12 13 13 13
24 23 23 20 18 17 19 16 21 38 21 6 7 6 5 4 5 4 3 2 2 3 6 8 5 5 5 5 2 3 1 2 3 3 1 4 9 8 5 4 5 6 7 8 10 11 13 14 15 15 14 13 12 11
24 23 22 20 20 23 21 20 35 13 5 4 3 4 6 1 2 2 4 3 1 2 6 6 3 4 2 2 2 1 2 2 2 2 3 9 9 7 5 6 9 10 12 14 15 16 16 16 16 15 13 11 9 8
23 19 22 27 23 23 21 27 23 4 2 2 2 2 2 4 3 4 3 4 2 3 3 2 2 3 2 1 3 2 1 1 3 3 9 9 8 7 9 11 14 15 15 15 15 15 14 13 12 11 10 8 7 7
24 23 25 28 24 17 35 35 8 3 3 2 2 2 2 3 4 4 4 3 2 3 1 2 3 2 2 2 2 1 1 3 8 11 9 8 10 13 15 16 17 17 16 16 14 13 11 10 9 8 6 6 6 5
28 18 26 33 46 50 30 10 5 3 3 2 2 3 2 3 4 3 3 3 1 1 1 1 4 3 2 2 2 3 5 9 11 10 10 12 15 16 15 16 16 14 13 12 11 11 8 6 4 3 4 3 3 2
32 41 40 46 46 26 8 4 4 4 3 3 5 4 3 4 5 5 4 4 3 3 5 2 2 1 2 1 3 9 14 11 14 12 12 13 14 16 15 15 14 11 11 9 7 5 3 4 3 2 2 3 3 4
46 52 47 32 22 8 5 4 4 4 4 4 4 5 4 3 4 5 4 3 2 1 1 1 2 2 2 3 6 13 13 14 16 16 14 12 13 15 12 11 9 8 7 5 4 3 2 1 1 2 1 3 4 5
45 34 30 22 9 8 7 4 4 4 6 3 7 3 3 3 2 1 1 2 1 2 2 2 4 5 9 13 13 13 14 14 12 12 16 16 13 11 10 8 7 5 4 4 3 2 1 1 4 6 5 5 5 5
34 25 21 8 6 5 6 4 6 6 4 6 6 3 3 2 2 1 0 2 2 2 3 5 9 13 16 16 14 13 15 14 13 16 15 14 12 10 8 6 5 4 4 3 2 3 3 5 6 5 4 5 5 4
25 17 5 4 4 4 4 5 3 3 3 6 5 3 2 2 2 3 1 1 1 3 7 10 12 13 15 17 17 17 15 13 14 13 13 10 10 9 7 7 5 4 4 4 5 4 4 5 6 5 5 5 4 4
20 7 3 3 4 4 3 2 3 4 5 4 3 3 3 3 3 2 2 3 4 9 10 14 14 15 15 16 13 14 14 13 13 13 11 10 9 8 7 6 6 5 5 5 5 6 6 6 6 6 6 6 6 6
5 2 2 3 2 4 3 4 3 2 2 3 3 2 3 4 3 3 2 5 12 12 13 13 13 13 15 13 14 15 15 12 11 11 11 9 7 6 6 5 5 5 4 4 5 6 8 9 9 9 9 9 9 8
3 2 1 3 3 3 4 3 5 4 3 3 3 4 4 3 3 3 2 9 13 13 14 15 15 15 13 13 16 16 14 12 10 8 9 8 7 5 5 4 4 5 6 6 7 8 9 10 10 9 9 9 10 10
4 3 2 3 3 5 3 3 3 2 4 4 4 5 4 3 4 2 3 9 10 13 13 14 14 13 16 17 15 14 13 12 10 7 6 7 7 6 5 5 5 7 7 8 9 9 9 8 8 8 8 8 8 8
3 3 5 4 4 2 3 2 3 3 2 2 6 4 3 1 2 3 3 12 16 19 19 18 16 14 14 15 13 13 11 9 6 5 5 5 5 4 4 4 5 6 7 7 7 7 6 6 7 7 7 8 9 9
3 4 4 3 3 3 2 1 2 2 2 3 3 2 2 1 3 5 11 17 20 19 19 18 16 16 15 15 13 12 9 7 6 6 5 3 3 4 4 5 6 6 6 5 5 5 5 6 6 7 8 8 9 10
2 4 4 3 2 1 1 2 2 4 4 5 5 4 4 3 5 11 16 20 20 19 17 15 15 16 15 14 12 10 9 8 6 5 3 3 4 4 4 4 4 4 4 4 5 6 6 7 8 8 9 10 10 11
5 3 4 3 2 2 4 9 9 8 5 3 5 5 6 5 7 12 17 20 19 18 17 15 16 15 12 11 10 10 9 7 5 4 3 3 3 2 2 2 2 2 3 4 5 6 7 8 9 10 10 11 12 13
2 2 4 3 4 8 7 3 3 2 2 3 2 4 6 4 3 10 16 19 19 18 16 15 13 12 12 11 10 8 6 6 5 4 2 2 1 1 0 1 2 2 4 5 6 7 8 8 9 10 11 12 14 15
4 4 4 5 6 6 5 4 2 3 3 3 3 5 4 3 4 8 15 19 19 18 18 16 13 12 11 10 9 8 7 6 4 3 3 3 2 1 1 1 3 4 5 6 7 8 8 9 10 12 13 14 16 17

GFSWCAN_850_spd_081.txt.gz
Wind_Speed
19 19 23 19 15 12 16 16 18 20 20 17 14 12 12 11 9 8 3 6 2 3 4 4 5 5 4 4 4 9 7 4 5 4 4 4 4 3 4 3 7 6 4 4 5 3 3 23 5 6 7 5 10 11
21 22 21 21 18 14 13 20 18 22 19 16 14 13 12 11 10 10 3 6 6 5 5 5 7 10 10 10 10 6 6 5 3 4 5 4 5 5 8 2 4 2 4 3 6 4 12 16 12 10 10 10 11 9
22 23 23 23 20 16 16 21 22 20 15 15 15 14 12 12 11 11 4 8 5 5 10 9 6 4 9 10 11 8 6 1 4 4 6 4 5 7 6 4 4 3 14 4 3 7 10 13 11 11 11 12 11 11
18 21 23 23 21 17 19 19 27 25 18 16 17 14 12 13 12 11 11 8 6 4 4 1 5 5 6 8 11 16 16 13 13 12 8 4 5 8 5 7 4 6 8 8 4 5 5 12 11 9 11 13 14 14
20 21 25 28 22 16 18 22 25 22 19 15 13 11 12 14 13 13 14 13 11 8 5 7 6 10 6 6 7 10 12 11 11 5 3 4 6 6 5 4 5 7 4 4 3 7 6 8 8 7 11 12 12 13
19 19 23 34 27 18 19 22 20 18 20 16 13 13 12 13 14 11 6 16 20 15 4 3 3 8 10 8 10 11 9 7 4 4 5 6 10 6 4 2 5 8 7 7 3 8 12 10 11 9 11 12 11 13
20 21 21 28 22 22 20 24 19 15 15 16 13 12 12 15 16 15 3 2 2 21 4 4 5 6 11 9 9 8 7 6 8 5 7 10 12 4 3 2 6 9 8 4 6 6 8 7 6 8 9 11 12 12
22 24 22 24 27 24 20 23 22 16 16 14 12 12 14 13 16 19 25 18 15 15 6 3 3 3 8 9 7 6 6 8 7 7 5 6 9 4 1 5 4 5 6 8 8 7 10 8 7 7 6 6 8 9
23 27 24 25 26 24 22 22 20 16 13 11 13 11 13 15 11 13 16 14 18 10 4 5 3 2 5 6 4 7 6 4 5 4 4 4 2 2 4 6 5 4 2 3 5 7 6 5 5 5 5 6 6 7
24 26 25 24 23 24 26 24 19 16 12 14 15 9 6 9 13 10 6 8 6 7 5 4 9 2 6 7 5 3 6 3 3 5 3 3 0 8 5 5 4 4 3 2 1 1 2 2 3 4 5 6 6 7
25 28 29 24 21 22 26 23 20 17 17 18 9 4 10 15 7 6 4 6 7 4 7 8 12 5 7 4 4 6 2 2 3 4 4 4 3 5 6 5 4 4 5 4 3 3 3 3 3 4 6 7 8 8
27 27 27 26 23 24 23 23 20 22 14 14 10 18 14 4 3 3 4 3 5 4 6 9 9 12 5 5 4 4 3 3 5 6 3 2 4 9 8 5 4 4 4 5 5 5 6 6 5 6 7 7 8 9
26 23 25 25 25 26 24 21 17 21 15 20 6 5 5 5 5 5 7 4 4 6 6 7 4 7 4 6 3 2 3 5 5 3 1 3 9 7 7 6 5 5 5 5 6 7 7 8 8 8 9 9 8 9
25 24 25 22 24 22 21 21 20 20 12 4 6 6 5 5 5 4 3 3 4 4 10 13 7 5 4 4 2 4 2 3 3 3 3 4 10 9 6 5 5 6 7 8 9 9 9 10 10 10 10 9 8 7
25 27 24 22 21 20 20 23 20 26 6 6 5 4 6 1 2 3 3 4 4 6 9 5 3 5 3 3 3 3 3 3 1 3 3 12 12 8 6 6 8 9 9 10 10 11 12 11 11 10 9 8 6 5
30 25 22 22 22 21 20 26 20 6 2 2 2 2 2 4 4 5 6 4 3 3 5 3 2 3 4 2 3 3 3 1 3 4 11 12 10 9 9 10 10 11 11 11 11 11 10 10 8 7 6 5 4 3
28 17 25 25 24 22 23 29 7 3 3 2 2 1 2 3 4 4 6 5 3 3 2 3 3 1 2 2 2 1 2 3 9 11 10 11 11 11 12 13 13 12 12 11 10 8 8 7 6 5 3 2 2 0
21 18 27 29 27 22 21 7 3 3 3 2 2 4 2 3 4 4 4 3 2 2 2 1 1 3 3 2 2 4 6 9 10 10 10 11 12 13 12 13 12 12 10 9 8 7 6 5 3 1 1 2 1 2
21 23 32 32 27 16 6 3 2 3 2 3 5 4 2 3 3 3 3 5 2 2 2 2 2 2 2 3 5 9 13 13 13 11 12 12 12 13 13 13 12 11 9 8 6 3 2 3 2 1 2 4 4 5
25 26 32 29 21 4 4 3 3 3 3 4 5 5 3 3 3 3 2 3 3 2 2 2 2 2 2 4 6 12 12 14 15 15 13 12 12 13 12 11 9 9 7 6 4 4 1 0 1 2 3 4 5 6
38 44 41 30 9 4 4 5 4 3 5 4 6 6 3 4 3 3 3 2 3 1 2 2 4 5 7 9 11 12 13 13 11 12 15 16 14 12 11 9 8 6 5 5 4 2 2 2 3 3 3 3 3 4
41 35 15 10 4 3 4 4 6 7 4 5 7 4 3 3 4 4 2 3 2 2 2 5 7 10 12 12 13 12 14 13 13 15 15 16 14 11 9 8 7 5 4 3 3 3 3 3 3 3 2 4 4 4
23 18 7 4 5 4 4 4 3 3 3 6 6 3 2 3 2 3 3 3 2 3 6 9 11 11 13 13 14 14 13 14 14 14 14 11 10 10 8 7 6 5 3 3 3 2 3 6 5 3 4 4 4 5
18 5 3 3 4 4 4 3 4 4 4 4 4 3 3 4 4 4 3 4 5 9 10 13 14 15 13 13 12 12 12 12 13 13 11 10 9 7 6 5 4 4 3 4 3 3 3 3 7 4 6 5 6 7
3 2 2 3 3 4 4 5 4 3 3 4 4 3 3 5 3 3 3 6 10 12 14 14 13 12 14 14 13 12 13 11 11 11 9 8 8 7 5 4 4 3 3 1 2 3 5 6 6 6 7 7 8 8
2 2 0 3 4 3 4 4 6 4 3 4 4 4 5 3 3 3 2 6 11 14 15 15 15 14 13 13 14 13 12 11 11 9 8 7 6 5 5 4 3 4 6 6 4 5 6 8 7 7 6 7 11 11
4 3 2 3 2 4 3 2 4 3 5 4 4 5 4 4 4 3 3 5 9 12 13 15 13 13 15 16 17 14 15 14 12 10 8 8 7 6 5 3 3 10 9 8 8 7 5 6 5 6 6 5 6 8
3 4 4 6 3 2 3 3 4 5 3 3 5 5 3 2 2 4 3 10 12 17 19 18 13 16 15 14 15 14 13 11 8 6 5 5 5 5 5 5 5 6 8 7 7 7 6 6 6 6 6 7 9 9
3 4 6 3 2 2 2 2 2 2 1 3 2 2 2 2 3 4 5 11 14 14 16 18 17 16 16 16 15 13 11 9 7 7 5 3 2 3 4 4 5 5 6 6 5 6 6 7 8 8 9 9 10 11
4 5 3 2 3 3 3 1 3 3 2 3 4 4 4 3 2 7 9 13 12 12 14 15 16 15 16 15 14 12 10 9 9 6 4 4 4 4 4 4 4 4 4 4 5 7 7 8 9 9 9 10 8 9
5 4 3 3 2 2 3 4 5 5 4 3 3 2 5 5 4 11 14 14 16 16 16 15 15 15 14 13 11 10 10 8 6 5 4 3 3 2 2 2 2 3 4 5 6 7 8 9 8 10 10 12 13 14
4 4 4 3 3 5 5 5 5 4 4 5 4 4 5 6 5 5 14 14 14 14 15 15 15 14 15 13 11 9 8 7 6 5 4 2 2 1 1 1 2 3 4 6 7 8 9 9 10 11 12 13 15 17
4 4 4 5 5 6 5 5 5 3 4 5 5 8 6 4 4 6 15 19 15 14 17 17 15 13 12 11 9 8 7 7 6 4 3 3 2 1 0 1 3 4 5 6 7 8 10 11 12 13 15 16 18 20

GFSWCAN_850_spd_084.txt.gz
Wind_Speed
20 19 20 21 24 18 13 12 14 15 16 15 13 11 8 7 8 6 3 2 2 1 2 1 2 2 2 5 4 8 6 7 5 4 4 4 3 4 7 1 9 7 6 5 7 6 5 29 13 7 6 15 12 13
19 22 21 24 23 17 14 16 18 16 18 15 14 11 8 8 10 9 3 3 3 2 4 7 6 8 8 8 8 6 6 6 6 4 5 3 6 4 8 3 7 2 4 3 6 3 8 17 15 12 12 13 13 13
20 19 21 21 18 15 13 17 16 16 18 14 13 10 9 9 10 8 3 3 1 4 8 5 6 5 7 8 7 6 3 6 5 3 4 3 5 5 5 3 6 10 17 4 3 8 12 16 15 15 15 15 13 12
19 19 18 19 20 17 14 17 16 17 17 14 13 13 10 8 8 8 3 2 1 3 3 1 1 6 5 6 8 8 9 10 9 10 7 3 4 8 5 7 3 7 8 9 4 5 7 16 15 12 13 13 14 13
17 18 21 21 22 19 16 19 21 19 16 15 13 12 10 9 9 9 7 8 6 4 5 8 10 8 8 4 4 6 6 6 7 6 3 6 8 5 6 2 5 8 5 4 3 10 5 9 10 11 14 14 12 12
19 18 20 25 23 19 15 18 20 21 19 16 14 12 9 8 9 5 3 7 10 6 3 3 4 7 9 8 8 7 6 4 2 3 6 6 12 5 3 3 6 9 9 9 4 9 12 10 12 13 12 10 11 12
17 17 16 14 26 21 17 18 20 19 18 16 12 10 10 10 10 6 1 4 8 13 2 5 4 3 9 8 9 8 8 4 4 5 7 15 15 4 2 2 7 8 8 5 5 6 9 11 7 8 9 11 11 12
17 15 16 20 30 23 21 21 18 16 15 15 12 10 9 10 12 12 13 5 4 4 3 3 4 3 7 6 7 7 6 5 6 6 9 8 8 3 1 5 5 5 7 10 10 9 11 9 7 5 7 7 8 10
19 18 16 28 31 25 21 23 21 16 14 13 10 9 9 9 7 11 11 12 14 9 4 5 3 2 4 6 4 6 6 4 7 4 4 3 2 1 6 7 4 5 5 4 7 8 7 7 6 8 7 7 9 10
20 24 23 20 24 24 21 22 21 17 14 13 16 7 5 7 13 6 3 6 7 7 6 5 8 4 5 4 4 3 6 4 3 5 3 2 2 7 6 6 6 6 4 4 3 4 4 5 7 9 10 10 10 10
21 26 27 24 27 26 22 22 21 18 18 15 7 4 6 15 10 7 5 6 8 5 7 9 15 7 6 4 4 5 2 2 3 4 4 4 3 5 6 6 7 7 7 8 6 5 8 9 9 9 9 9 8 7
23 28 29 27 23 22 24 25 24 21 13 16 5 12 19 5 5 4 4 3 4 4 6 9 8 11 4 6 2 3 3 2 3 2 2 2 4 10 8 7 7 7 8 9 8 9 9 10 8 8 6 4 4 7
26 29 29 25 22 23 29 28 24 17 15 12 6 6 5 5 4 4 7 4 4 5 2 3 1 3 3 2 2 2 2 4 4 3 2 3 12 10 8 8 7 7 7 7 7 7 7 9 7 6 9 9 8 9
28 29 27 27 24 26 25 24 23 19 17 6 6 6 4 5 4 4 5 2 3 3 8 9 4 2 2 2 1 3 2 3 2 3 3 5 12 11 10 8 8 6 6 6 7 7 9 9 10 10 10 9 8 8
26 25 25 25 22 24 25 23 19 19 5 4 5 4 6 1 3 4 4 4 3 4 8 5 2 4 3 2 3 3 3 4 2 3 3 14 13 10 7 6 7 8 8 9 9 11 12 12 11 10 9 8 6 6
24 25 25 23 24 23 21 21 20 18 4 3 2 0 1 2 3 2 4 5 4 5 6 2 2 3 4 2 4 4 3 3 3 4 12 12 11 11 10 10 11 11 11 11 11 11 11 9 7 8 6 5 4 3
28 18 28 26 23 22 20 19 11 8 5 2 2 4 1 1 4 6 5 5 8 4 2 3 4 1 2 2 3 2 2 3 10 10 10 11 11 12 13 14 13 13 12 11 11 8 7 8 7 9 6 5 5 5
18 20 26 27 27 26 19 11 6 5 3 3 3 5 6 2 3 4 8 7 5 3 2 2 3 1 3 2 2 3 6 11 11 11 11 12 12 13 13 14 14 12 12 10 7 8 7 8 2 2 2 3 3 5
17 23 28 28 27 10 6 7 4 4 3 3 3 4 3 3 6 4 7 7 4 3 4 3 2 2 2 4 5 9 12 12 13 12 12 12 13 15 15 14 13 11 8 8 6 3 2 3 3 1 2 4 4 5
16 25 26 23 19 3 4 4 4 4 3 5 4 6 3 3 4 4 6 6 6 3 4 2 2 4 4 3 5 11 13 15 14 15 13 13 13 14 13 12 10 9 7 5 3 3 1 1 1 2 6 6 5 5
22 25 25 26 4 1 2 3 3 3 5 4 7 6 4 4 2 4 3 4 5 2 1 3 5 6 8 8 10 12 13 11 12 12 15 15 14 12 11 9 7 7 5 4 4 3 3 1 1 3 5 5 8 5
15 25 21 14 2 2 2 1 4 6 4 5 8 6 4 3 4 4 3 5 2 3 3 5 7 9 11 11 11 11 13 12 13 15 14 16 15 13 11 9 7 6 5 4 3 3 3 3 6 4 4 7 9 5
23 23 12 5 3 2 3 5 3 6 3 6 5 4 2 3 3 4 4 3 2 5 6 8 10 11 14 14 13 13 13 14 14 14 16 12 11 11 9 8 7 6 4 4 3 2 6 10 11 5 5 6 6 7
23 10 7 6 3 4 4 4 4 4 4 4 4 2 2 3 4 4 3 5 7 10 11 14 14 14 13 13 12 14 13 14 15 15 13 13 11 10 8 6 6 6 6 3 3 4 6 4 9 5 6 10 8 9
6 3 4 3 4 5 5 5 4 3 3 4 4 2 3 4 3 3 3 6 10 12 14 15 15 14 16 16 15 15 13 13 14 14 11 10 11 9 8 6 6 6 4 1 3 3 5 9 11 8 8 9 10 12
2 1 1 4 5 4 5 4 6 5 4 5 4 4 4 3 3 3 2 5 9 13 17 16 16 14 14 15 14 15 12 12 14 13 10 9 7 7 7 7 4 5 5 5 7 6 6 9 12 11 9 6 11 14
4 3 2 3 1 4 3 1 5 2 5 5 4 5 4 4 5 3 4 5 7 12 16 16 13 14 15 16 18 18 17 16 13 14 14 15 13 13 11 9 8 10 9 8 7 7 6 7 7 8 7 7 7 11
2 4 4 6 4 2 3 4 5 5 3 3 6 5 3 2 2 3 3 7 9 12 16 16 13 15 20 21 20 18 18 17 13 10 8 7 6 6 6 6 7 7 7 8 8 7 6 6 6 6 7 9 9 10
3 4 6 4 3 3 5 3 3 3 2 3 2 2 3 3 3 2 5 11 13 15 18 20 19 18 16 15 15 15 15 12 10 9 6 5 4 2 3 3 3 4 5 4 4 5 6 7 8 8 9 10 11 11
5 6 4 4 4 4 3 1 2 3 2 2 3 4 4 3 4 8 10 11 11 12 15 17 16 15 17 17 18 17 16 15 12 8 6 7 8 3 2 2 1 1 2 2 4 7 8 9 10 10 11 10 9 12
6 5 4 4 3 3 4 4 4 4 4 4 4 1 7 5 5 11 10 10 13 20 16 16 15 15 15 15 14 14 11 12 11 9 7 6 5 3 1 0 1 2 3 4 5 6 7 8 8 8 9 12 13 14
5 5 5 4 4 3 5 5 5 5 4 5 5 4 5 6 5 6 15 14 12 13 16 17 18 17 16 16 14 12 10 10 9 7 5 4 2 3 2 2 2 3 4 5 6 7 9 9 10 11 12 13 16 17
2 3 3 4 4 6 6 6 7 5 5 5 7 9 11 6 5 7 16 18 13 17 19 20 20 18 17 14 12 11 9 8 8 6 5 4 4 3 3 2 2 3 4 6 7 8 10 11 12 14 15 17 19 21

GFSWCAN_850_spd_087.txt.gz
Wind_Speed
20 17 19 20 20 19 18 15 12 11 13 12 12 11 10 10 8 7 8 5 7 3 7 6 3 4 4 7 2 8 4 7 5 4 3 3 2 3 4 2 6 3 2 3 4 4 1 27 10 7 6 14 13 14
21 18 18 18 20 23 17 14 13 13 14 13 11 10 8 8 10 8 8 2 5 4 2 2 3 4 3 2 2 5 3 3 3 3 3 2 2 3 8 2 6 3 4 2 5 3 7 12 13 15 14 14 12 13
21 22 19 17 26 22 16 14 15 15 14 13 11 9 7 10 11 7 10 9 7 5 3 0 2 3 2 1 4 1 4 3 3 3 3 2 2 3 3 3 4 10 19 3 4 5 11 15 16 17 16 15 12 12
21 19 19 18 24 19 16 17 16 14 14 12 12 10 11 10 9 8 7 5 3 3 1 1 2 1 2 4 4 3 5 4 5 9 2 2 1 3 3 2 3 4 7 6 5 9 11 14 14 11 13 14 16 14
18 17 17 23 21 19 16 19 15 14 16 13 13 12 10 8 7 6 4 2 3 4 3 6 6 4 8 3 6 7 5 4 3 3 1 2 4 2 3 2 3 7 4 3 3 7 9 7 8 8 15 16 14 14
17 17 18 21 22 19 16 17 18 18 15 14 14 11 8 8 8 6 1 4 7 2 1 2 4 4 6 9 6 7 8 5 3 1 4 4 8 2 1 3 4 5 7 9 4 11 14 11 11 12 15 16 14 13
18 18 21 20 21 19 16 14 18 19 16 14 13 11 9 8 9 2 3 1 5 4 1 4 4 1 9 9 11 9 6 5 4 3 4 4 4 2 1 2 8 4 3 3 5 9 11 8 6 10 15 16 18 19
19 19 18 18 25 21 14 17 21 21 18 16 13 10 9 8 9 4 3 10 10 1 1 1 3 2 5 4 3 7 7 6 5 4 4 4 6 4 3 8 7 5 7 9 11 12 13 9 7 7 11 12 12 12
17 17 18 16 21 21 22 23 21 20 19 17 13 10 7 5 4 5 5 5 4 3 1 3 2 3 4 2 4 5 6 1 6 3 4 2 1 3 5 12 4 2 2 7 8 9 10 11 12 13 14 12 11 11
17 17 19 19 27 24 27 25 22 19 19 16 13 6 5 6 6 6 3 2 1 3 5 4 5 2 7 7 5 3 5 3 2 6 5 2 3 11 11 10 7 4 4 3 9 9 8 10 8 7 9 10 9 8
19 18 15 32 34 26 25 26 23 22 20 16 7 4 5 11 8 4 3 4 5 4 7 8 15 4 5 3 3 4 2 2 2 3 3 2 3 4 12 12 10 10 9 8 9 8 8 8 7 6 6 5 5 4
21 22 21 33 29 25 25 27 26 23 16 13 7 10 16 6 4 4 4 3 4 4 8 6 7 17 4 4 1 3 2 1 3 3 2 1 3 15 14 11 8 7 6 7 6 8 8 8 5 2 2 3 4 6
22 26 27 26 28 25 25 27 23 19 13 11 3 5 5 6 5 5 5 3 1 3 2 4 1 7 4 4 2 2 2 3 0 1 2 2 13 13 12 10 10 7 6 7 7 6 6 7 4 4 8 9 9 9
25 28 30 29 27 26 26 26 24 16 11 4 4 4 3 2 4 3 1 2 1 3 7 8 4 2 2 2 0 2 3 2 3 2 2 3 14 15 14 11 7 6 5 5 5 5 9 8 9 10 11 11 9 8
26 27 25 24 22 25 29 29 24 15 6 4 5 4 4 3 3 3 2 3 2 2 7 6 3 1 1 1 3 2 2 3 3 2 2 14 18 15 12 8 5 7 7 9 11 13 14 12 11 11 10 8 7 6
29 27 25 25 26 27 27 23 16 7 3 4 1 2 0 3 5 2 3 4 4 6 7 3 1 2 4 3 2 3 2 3 1 2 14 16 13 10 9 8 11 11 11 12 13 12 12 11 10 8 7 5 5 5
29 23 28 26 25 27 24 18 9 5 4 2 2 4 1 0 0 5 5 5 6 6 2 2 4 6 1 1 2 3 2 2 12 14 13 11 13 12 11 14 13 12 12 12 12 11 11 10 8 8 8 6 6 8
15 28 29 27 27 23 21 8 6 5 4 3 2 5 5 3 1 4 7 7 6 3 2 1 5 1 3 1 2 3 6 14 13 14 14 12 12 13 14 16 15 13 13 11 10 11 10 8 4 2 5 9 8 8
20 30 30 28 25 17 7 6 3 3 1 3 3 2 3 3 8 5 8 9 10 3 7 3 1 1 2 3 6 13 17 16 18 14 12 9 13 17 17 16 15 13 11 12 10 7 4 2 7 5 1 1 2 3
25 27 24 24 27 6 5 5 6 3 4 6 4 6 3 2 5 7 7 10 8 2 3 2 1 2 3 3 5 10 16 17 17 18 16 15 16 17 17 17 14 12 13 9 8 6 4 2 4 6 5 9 11 10
25 24 23 23 19 3 2 4 5 3 6 4 7 7 2 3 3 5 6 8 6 4 2 3 7 7 6 5 6 8 12 13 12 13 22 21 19 17 18 13 11 11 7 6 4 5 4 3 6 9 11 11 8 10
23 25 19 19 7 4 2 2 4 6 4 5 8 5 3 3 4 5 4 5 4 3 5 8 8 10 10 9 9 10 11 11 12 11 14 19 21 19 15 12 12 8 7 6 5 5 8 9 10 11 10 8 9 8
25 17 7 5 3 2 1 9 3 6 3 5 4 3 2 2 4 7 3 5 3 5 6 7 5 13 14 12 12 13 13 14 16 14 17 18 16 14 13 11 10 10 7 7 9 9 9 10 10 10 9 8 7 7
17 10 6 5 6 3 5 3 4 4 5 3 3 2 4 4 5 2 3 4 7 10 12 14 16 18 15 14 15 16 15 13 14 17 17 18 17 15 12 11 10 10 10 10 10 9 9 9 8 7 6 7 8 8
6 6 4 3 4 5 5 3 3 3 3 3 2 2 2 4 2 3 2 6 12 13 16 16 15 13 16 16 17 16 16 15 20 19 16 14 14 13 13 12 11 10 11 11 8 5 5 7 9 9 9 10 12 12
4 5 4 8 5 4 5 5 5 5 3 4 2 4 4 2 2 4 1 8 11 15 18 19 17 16 17 20 20 18 17 15 18 16 14 13 12 10 12 10 8 7 6 7 8 9 10 11 12 13 12 8 9 11
5 4 4 5 3 4 3 2 6 2 3 4 3 3 2 3 4 2 4 6 8 9 15 18 18 17 22 23 21 19 18 18 18 18 17 15 13 12 12 9 9 7 7 7 7 7 8 10 11 10 8 7 9 12
2 6 5 7 3 3 3 3 3 5 3 6 9 4 4 3 2 4 4 6 11 11 16 15 14 18 22 19 20 21 20 18 16 14 13 13 13 12 11 11 10 9 8 8 6 5 5 5 6 7 8 9 11 11
3 7 9 4 4 3 3 5 3 3 5 4 2 2 3 4 6 6 10 11 13 13 17 17 17 18 20 20 18 17 16 17 16 14 13 12 11 10 10 8 7 6 5 3 2 2 3 4 5 6 7 7 7 8
6 11 4 4 4 4 2 3 3 5 6 7 4 4 4 4 8 8 14 15 13 14 16 18 19 18 18 17 19 21 20 17 15 11 10 8 6 5 5 5 4 3 2 2 3 4 5 6 7 8 9 11 12 13
8 7 5 5 3 3 5 5 4 3 4 7 7 3 7 5 6 12 13 15 16 13 16 18 17 16 17 20 22 21 19 16 14 11 9 8 6 4 4 4 3 2 1 1 3 4 5 6 7 8 9 11 13 15
6 4 5 3 3 4 3 4 4 4 5 5 6 7 5 3 4 8 14 14 16 21 17 17 19 19 19 16 16 15 12 14 14 11 8 7 6 6 5 4 3 2 1 2 4 5 6 8 9 10 12 14 16 18
3 3 5 5 4 4 5 5 6 3 5 5 9 13 11 8 6 10 15 19 17 15 19 21 20 18 17 15 15 13 12 12 10 9 9 8 7 6 5 4 3 2 3 4 5 7 8 9 11 13 14 16 18 20

GFSWCAN_850_spd_090.txt.gz
Wind_Speed
22 21 20 21 21 21 16 16 15 14 14 13 13 12 11 10 6 5 8 7 9 6 9 10 11 10 8 6 3 2 3 6 4 4 2 2 1 3 3 3 7 2 3 3 4 1 2 24 7 6 4 11 11 15
21 19 16 20 22 19 21 18 17 15 16 14 14 12 11 11 7 7 9 8 12 7 7 6 4 5 4 5 5 3 3 2 2 3 1 1 2 3 4 3 6 4 5 2 5 3 5 11 11 12 12 13 12 14
22 17 19 23 22 23 21 18 17 15 17 14 13 11 9 11 8 9 14 12 11 10 10 8 6 6 4 2 5 5 4 3 3 1 4 2 1 1 2 3 3 7 12 2 2 4 9 15 13 14 13 14 14 13
23 22 28 22 24 25 19 17 17 16 17 13 13 10 11 13 11 10 10 10 9 6 4 3 7 3 3 4 6 5 6 4 1 2 2 2 1 2 1 2 2 4 9 5 3 6 8 13 13 10 12 14 15 15
29 26 24 25 30 24 19 18 18 16 18 15 14 14 12 11 11 9 9 8 8 5 3 1 3 3 5 3 5 3 2 4 1 1 2 2 3 0 1 2 2 6 3 3 1 7 7 6 6 10 12 13 12 14
27 26 27 23 28 22 20 22 18 19 16 15 16 14 11 9 8 6 3 3 3 4 2 1 1 1 9 8 6 6 5 3 2 1 3 4 5 1 2 2 2 2 5 7 2 9 12 10 10 11 13 13 12 13
24 23 26 30 26 22 21 20 21 21 17 17 14 12 9 8 8 6 4 3 5 2 2 3 4 2 7 11 8 6 10 5 3 2 3 3 4 4 2 2 7 3 0 1 2 9 7 2 7 12 13 11 10 12
22 23 23 29 25 21 20 20 22 20 18 16 14 11 9 10 12 11 11 10 8 1 4 2 3 1 4 4 3 5 6 7 4 3 3 4 3 4 2 10 10 8 6 5 6 6 12 11 11 13 9 7 8 10
23 24 23 24 24 20 17 21 25 22 19 16 13 11 10 7 5 6 6 6 3 2 2 0 2 3 5 3 3 4 4 1 4 2 4 3 1 1 4 15 11 7 5 8 9 11 14 15 13 15 8 5 5 8
23 22 22 20 24 20 22 26 26 23 20 18 14 4 4 7 5 7 3 2 2 1 2 3 4 2 5 5 2 2 3 2 1 5 4 2 2 6 8 9 8 6 7 10 12 12 13 11 10 10 7 6 5 6
22 23 22 24 25 27 28 26 25 23 22 15 5 3 9 12 5 2 2 1 1 2 5 6 10 2 5 3 3 5 2 2 2 2 3 2 3 4 11 10 7 6 5 7 11 9 9 7 8 8 8 7 6 5
21 21 22 27 29 30 29 27 26 25 13 8 8 14 14 4 2 3 3 1 3 3 6 5 7 12 3 4 2 0 2 2 3 3 2 1 1 16 14 12 9 6 6 8 7 8 10 8 6 5 5 6 5 6
20 20 26 32 29 30 28 25 23 18 14 12 4 5 4 4 3 4 4 3 0 3 5 5 2 7 4 4 2 1 2 3 4 1 2 1 12 15 13 11 9 6 6 7 8 8 7 7 6 5 9 10 9 8
20 21 31 38 30 29 28 26 22 16 11 2 3 4 3 2 3 4 3 3 1 1 8 11 4 2 2 3 1 1 3 2 2 3 2 2 16 17 14 11 9 8 6 7 8 8 8 9 12 13 12 12 9 8
23 27 33 32 29 29 28 25 18 13 4 1 3 3 4 2 3 4 2 3 3 2 4 6 4 1 0 1 2 2 2 3 2 1 2 14 19 17 14 11 7 7 7 9 11 12 13 13 12 12 11 9 7 5
25 28 29 30 27 27 28 23 16 6 1 2 3 1 1 5 3 2 3 3 3 7 4 4 2 2 3 3 2 3 2 1 2 3 13 20 18 16 13 9 8 9 11 14 15 15 14 13 11 9 8 7 5 5
25 25 30 26 26 27 26 18 7 3 2 3 1 3 1 2 1 5 6 5 5 6 1 2 3 6 3 0 1 0 2 3 9 13 16 15 15 13 11 11 13 14 15 15 16 14 13 12 10 8 7 5 5 5
22 30 30 32 33 30 21 8 4 4 4 3 1 3 4 1 2 3 6 7 6 4 2 2 4 1 3 3 2 3 4 10 9 11 13 12 12 13 13 16 15 15 15 15 13 13 10 8 6 5 5 4 2 2
29 30 26 27 28 18 6 7 5 4 4 3 4 4 3 2 7 4 6 8 8 4 4 2 1 2 2 2 3 10 15 13 16 15 12 11 11 14 15 15 15 15 15 14 12 10 5 4 2 1 2 4 7 6
27 27 24 27 23 5 4 3 5 3 4 5 4 6 3 1 3 7 8 8 8 3 2 2 3 4 4 5 7 9 13 14 17 19 16 13 14 17 18 17 16 14 14 12 9 7 6 6 5 5 5 7 10 10
28 26 26 25 12 3 3 5 4 2 6 3 4 6 2 2 2 3 5 9 6 4 4 5 5 6 4 4 5 7 12 14 15 13 19 23 20 19 17 15 13 15 12 10 7 8 8 7 8 8 9 11 9 9
23 26 16 18 3 1 1 3 3 6 4 4 7 4 2 2 2 4 4 7 5 6 5 6 11 10 10 9 8 6 8 11 8 9 14 19 23 22 21 17 16 14 10 9 8 9 8 8 9 10 12 12 10 10
26 17 6 6 4 3 2 10 3 6 3 6 4 2 2 3 3 6 3 5 5 8 10 10 10 9 10 11 10 10 11 12 12 12 16 20 19 19 16 13 13 10 9 11 8 7 8 9 11 12 12 11 9 9
19 9 5 5 8 4 4 4 3 4 4 3 2 2 3 4 5 2 3 4 5 10 11 11 13 14 13 13 13 14 14 12 11 11 17 21 19 14 15 13 12 13 12 10 9 10 10 10 10 9 9 8 10 11
6 7 4 2 4 4 4 2 2 3 3 3 3 1 2 5 2 3 3 4 10 12 12 12 13 13 16 16 15 14 12 13 16 22 19 18 19 18 16 14 12 10 10 11 11 12 11 10 10 10 10 11 13 13
5 7 6 9 5 4 4 4 4 4 3 2 3 4 4 2 2 5 2 7 13 14 15 16 16 16 13 16 19 18 16 13 17 19 19 18 16 14 14 14 13 11 10 9 9 9 10 11 11 11 12 12 10 10
4 4 5 6 5 5 2 4 7 3 3 4 3 3 3 3 5 3 5 8 10 9 10 12 14 14 17 18 17 18 17 16 16 16 16 15 14 12 10 9 7 6 6 6 7 8 10 11 11 11 10 9 10 11
4 9 6 9 4 5 3 3 4 5 3 6 9 4 5 6 4 5 6 6 7 7 9 12 15 15 14 17 18 19 19 17 17 16 15 16 14 13 12 12 12 9 8 8 7 7 5 5 6 6 7 8 10 10
4 10 11 3 3 3 7 5 6 6 6 8 4 3 4 4 6 8 8 9 11 9 11 15 15 14 19 21 18 17 17 20 19 19 17 16 15 13 13 11 10 9 8 6 4 3 3 3 4 5 6 7 8 10
7 15 5 4 5 5 5 6 5 6 7 7 6 4 4 5 8 8 11 11 13 13 10 13 16 19 22 22 21 21 20 18 15 13 13 14 12 11 11 10 8 6 5 3 2 2 2 3 5 6 8 10 11 12
10 10 5 4 3 3 5 7 5 6 7 7 7 6 5 4 6 11 14 16 14 14 15 18 20 21 22 21 20 20 21 20 18 14 12 8 9 9 8 7 6 5 3 1 1 2 4 5 6 8 9 11 12 14
7 7 7 3 2 6 5 4 3 4 5 5 5 7 6 5 5 7 13 21 20 17 16 17 20 21 18 16 15 16 16 14 14 12 9 8 8 8 8 7 6 5 3 1 0 2 4 6 7 9 11 12 14 16
2 4 5 5 4 4 6 5 6 3 5 4 6 9 12 6 6 8 12 17 19 23 20 17 16 17 16 15 16 17 13 12 12 11 10 9 8 8 8 7 5 4 2 1 2 4 6 7 9 11 13 14 15 16

GFSWCAN_850_spd_093.txt.gz
Wind_Speed
31 30 29 27 26 25 21 19 13 12 14 14 14 13 10 6 4 6 8 13 8 7 9 10 10 9 7 5 3 1 3 5 3 3 2 1 1 2 2 2 6 3 2 3 5 5 3 22 7 5 3 9 8 13
24 29 28 25 25 22 21 18 16 14 14 15 13 12 10 6 4 9 12 11 16 7 11 13 12 9 8 6 9 3 4 2 2 3 1 2 1 2 1 2 4 2 3 2 4 2 5 9 9 10 10 8 8 11
27 25 23 26 23 19 20 19 15 16 16 15 13 11 10 8 6 7 13 13 18 19 13 10 7 5 4 4 6 5 2 3 3 2 5 2 0 2 1 1 1 4 9 2 2 4 6 11 10 12 11 12 10 8
28 24 24 26 23 24 22 19 17 18 17 14 12 11 11 10 9 9 13 11 14 7 5 3 10 8 8 9 7 7 12 8 5 1 2 2 1 2 1 1 2 3 4 4 3 5 4 11 11 9 12 12 11 11
23 24 27 27 27 24 21 19 17 19 16 14 11 12 14 13 11 9 12 13 8 4 5 6 6 7 7 7 8 9 7 6 2 2 2 1 2 1 1 2 2 3 2 2 1 4 5 5 6 8 12 11 9 9
25 26 29 25 27 26 20 20 19 19 15 15 14 13 14 13 10 8 4 5 8 8 5 2 3 6 9 7 6 5 3 2 2 1 1 2 3 1 1 1 2 4 7 4 4 8 10 7 8 8 11 10 9 9
28 29 28 30 28 23 22 21 20 20 17 16 14 12 10 8 8 2 4 4 5 4 3 3 2 4 10 9 4 5 5 1 1 1 1 2 3 5 2 2 7 4 3 4 5 10 7 5 7 10 11 11 11 11
35 31 27 30 26 24 24 20 24 20 19 16 13 11 10 9 11 10 8 5 4 4 4 3 1 2 7 5 3 4 5 4 2 2 2 3 2 2 1 6 9 6 6 5 4 4 9 13 10 9 7 6 8 9
30 31 35 31 27 25 23 25 23 21 18 16 14 11 11 11 5 7 9 5 3 4 3 2 3 3 5 3 3 3 3 1 1 1 3 3 1 2 2 14 11 6 3 5 8 7 8 10 11 8 3 4 6 6
28 33 32 29 27 24 24 25 23 21 19 16 15 3 4 6 9 6 1 2 5 5 3 1 1 1 4 3 1 3 2 2 1 4 4 2 1 3 8 10 8 7 5 9 11 10 10 11 11 7 3 2 3 4
27 29 30 27 24 21 25 27 25 23 19 13 3 4 14 12 3 3 3 2 1 1 3 4 7 1 5 3 3 6 2 2 2 3 4 3 3 4 10 10 8 4 6 10 12 9 9 6 7 5 5 3 2 2
26 26 26 25 21 26 29 28 25 22 12 5 9 12 8 3 2 2 1 1 2 2 5 5 6 9 3 3 2 2 2 2 3 5 2 1 1 15 13 11 8 6 5 7 7 8 7 6 5 4 4 5 5 5
24 23 27 27 28 29 28 25 21 16 13 17 5 3 3 2 2 4 4 2 1 3 7 6 1 6 3 3 3 2 3 3 3 1 2 2 10 15 15 13 10 7 5 5 7 7 7 6 5 4 6 8 8 7
22 24 27 29 29 27 26 24 21 14 6 2 3 4 2 2 3 4 3 3 1 1 6 11 5 2 2 3 0 2 3 2 2 1 3 3 17 19 15 11 8 8 7 7 8 8 7 7 10 11 10 9 7 5
21 26 28 29 29 26 25 21 16 11 2 2 2 2 4 3 2 3 3 4 4 3 4 6 4 1 2 3 1 2 2 2 1 2 2 12 20 18 14 11 9 8 8 9 9 10 11 11 11 11 11 8 7 4
23 27 34 30 29 26 23 18 14 5 2 2 1 1 2 3 2 2 2 2 2 5 4 3 2 2 1 2 2 4 2 3 2 2 6 18 19 17 14 11 8 7 9 11 13 13 14 13 11 9 8 8 6 4
22 21 36 31 29 26 22 14 7 1 1 2 1 2 1 1 2 4 4 4 3 3 2 2 3 6 2 2 2 2 3 3 4 7 13 16 16 16 13 10 10 13 15 17 17 16 14 12 10 7 6 5 4 3
19 38 33 31 29 24 16 7 3 2 1 1 0 2 4 1 0 3 4 6 5 3 2 1 2 2 3 3 2 3 4 5 6 9 13 13 13 12 11 11 14 16 16 17 15 14 12 10 7 6 5 3 1 2
35 34 30 28 26 14 5 6 2 2 5 2 3 3 2 2 4 2 5 6 5 3 2 1 1 3 3 4 4 6 9 10 11 14 13 11 10 12 13 14 16 17 17 16 14 11 7 4 4 3 2 4 6 8
28 26 27 27 21 4 3 2 5 2 2 3 4 5 3 2 2 7 5 6 6 3 3 3 4 3 2 3 3 3 5 10 12 17 16 14 13 15 17 18 18 18 16 14 13 9 6 5 1 1 4 6 9 12
28 27 27 24 8 2 3 5 4 3 4 3 4 6 2 2 3 4 6 11 6 4 4 6 5 3 4 3 4 4 6 9 12 10 15 20 18 17 18 16 17 16 16 14 11 9 6 2 4 6 7 9 11 11
21 22 21 15 2 1 1 4 3 7 4 4 8 4 2 2 3 3 3 8 5 10 7 6 7 10 8 5 3 3 4 10 9 9 8 14 23 23 21 20 19 17 14 11 8 5 5 5 5 6 9 11 12 11
22 15 5 9 1 2 0 8 2 4 2 4 4 2 2 2 2 3 3 5 6 10 13 14 13 10 7 7 7 6 8 10 9 7 10 15 18 18 19 18 17 15 13 10 8 6 7 7 8 9 10 11 11 10
16 7 4 7 7 2 3 3 3 4 3 2 2 1 2 3 4 1 3 5 6 8 13 11 12 12 10 10 10 9 10 9 7 7 11 16 19 20 16 14 15 12 7 6 8 7 8 8 9 10 9 9 8 10
4 5 5 5 5 4 2 2 2 2 3 3 2 1 2 4 1 2 3 4 7 9 9 9 11 11 11 14 11 10 10 10 10 11 15 18 22 19 16 14 12 10 10 10 9 9 9 10 10 9 10 10 12 13
3 9 6 8 5 4 4 4 5 4 3 2 3 3 4 2 2 5 3 3 8 10 11 10 13 13 13 11 13 14 13 11 11 14 19 19 16 14 13 12 12 10 10 9 8 8 9 9 9 10 10 12 11 11
3 5 6 6 5 5 2 3 7 3 4 4 3 3 3 3 5 4 3 5 6 6 6 6 7 10 11 11 12 12 12 11 11 14 15 15 14 11 7 5 7 6 5 6 6 7 7 8 9 9 10 10 11 12
7 8 5 10 6 6 4 3 4 5 3 5 9 4 6 6 4 4 5 5 6 6 6 9 9 8 8 10 13 15 16 14 15 15 15 15 15 14 12 10 9 8 7 7 7 6 6 6 6 7 8 9 10 10
6 7 11 3 4 5 7 5 6 7 7 9 4 3 4 4 4 5 5 5 6 6 4 8 11 11 11 13 14 15 14 15 17 17 16 16 15 13 13 12 11 10 8 6 4 3 2 2 4 5 6 8 9 11
7 15 5 4 5 6 6 7 4 6 8 10 6 3 3 4 5 6 7 8 10 9 7 7 11 14 15 18 21 20 18 15 14 13 10 11 11 10 11 10 9 7 4 3 1 0 1 3 4 5 7 9 11 13
7 13 4 5 4 4 6 8 5 5 6 7 10 9 5 4 6 10 12 12 13 15 14 12 14 16 17 19 20 18 18 18 18 15 11 7 9 10 9 9 7 5 5 3 2 1 1 3 4 6 8 10 12 14
8 7 8 3 2 6 7 6 5 4 4 5 5 7 5 5 5 6 11 18 18 17 16 13 14 17 17 18 16 16 12 15 17 14 10 7 8 9 9 9 8 7 5 3 2 1 2 4 6 8 9 11 13 14
2 3 3 4 3 4 5 5 3 1 3 3 4 5 8 5 6 7 7 14 19 17 14 14 13 14 15 15 13 12 11 11 12 12 11 10 8 9 9 9 8 6 4 2 0 1 3 5 7 9 10 11 13 14

GFSWCAN_850_spd_096.txt.gz
Wind_Speed
13 19 35 31 29 24 22 19 14 14 16 17 16 12 10 8 6 8 8 9 7 7 7 7 6 7 8 5 3 1 3 4 3 3 2 2 2 1 2 3 4 2 1 2 3 4 4 18 4 5 6 7 9 10
10 36 35 31 29 25 22 18 14 14 15 15 14 11 7 5 5 10 11 11 19 10 12 16 15 12 8 5 10 3 3 2 2 4 1 2 1 1 3 0 4 2 0 1 2 2 4 7 8 9 9 8 9 11
16 35 33 31 28 26 23 20 16 16 15 14 12 10 6 3 6 11 16 16 19 21 15 9 8 7 5 6 5 5 2 3 4 3 5 2 3 2 1 1 1 4 6 2 3 2 4 8 10 12 12 12 12 13
24 34 30 26 26 21 22 20 17 16 15 14 12 10 8 6 8 14 20 16 17 10 5 4 11 10 10 7 5 7 12 9 7 4 3 2 2 1 1 2 2 2 4 2 3 4 6 10 8 6 9 10 12 12
27 28 28 30 25 25 23 19 20 18 16 14 12 12 11 10 11 11 14 14 12 5 6 7 9 9 9 10 12 10 8 7 4 3 3 1 1 2 2 2 2 3 2 1 2 1 6 5 6 7 9 10 9 10
29 27 29 27 28 26 22 21 20 18 16 13 12 14 13 12 14 15 7 7 11 17 6 2 4 8 8 6 7 8 7 6 3 2 1 1 1 2 2 1 2 5 4 1 3 8 12 10 7 7 9 9 9 10
27 30 28 29 26 23 20 20 21 17 16 15 14 13 12 9 6 6 5 6 8 7 5 3 2 4 8 7 3 2 1 2 2 2 1 1 1 4 2 2 9 7 5 6 7 12 9 4 7 9 9 8 9 9
26 29 30 26 25 22 23 21 22 18 18 15 13 12 11 8 7 8 8 7 6 5 5 3 1 3 9 4 2 3 2 1 1 1 1 2 0 1 1 7 11 9 6 5 6 1 6 11 10 8 6 5 5 7
30 30 29 30 25 24 22 23 21 20 17 15 13 12 12 8 4 6 8 8 7 5 4 3 4 3 7 3 3 3 2 1 1 0 2 3 1 3 2 16 16 13 7 13 10 10 10 11 10 7 4 3 3 4
30 30 29 25 25 23 23 23 21 20 17 16 15 4 5 5 10 5 3 2 3 5 4 2 3 1 4 3 1 2 1 1 0 3 5 2 2 2 4 14 13 13 8 13 14 10 12 14 10 7 4 3 2 4
33 30 31 28 27 25 25 23 22 20 18 8 4 5 13 9 6 5 4 4 3 2 1 2 3 2 3 3 2 3 2 1 1 3 4 3 2 5 11 13 11 8 9 12 9 5 8 7 9 7 6 5 4 4
36 33 30 29 26 26 25 23 21 19 9 4 10 14 6 3 3 2 2 1 1 1 3 4 3 2 3 2 3 3 1 2 3 6 1 2 1 11 14 12 10 8 7 8 9 10 10 9 7 6 6 5 5 5
32 30 27 24 23 25 24 22 19 11 10 19 5 3 2 2 2 3 3 1 1 3 6 6 1 4 3 2 4 2 2 1 3 2 3 2 7 14 14 12 11 9 7 7 9 9 8 8 7 5 6 7 7 7
30 28 23 21 25 27 25 21 15 13 5 4 2 3 2 1 2 3 3 3 1 0 7 8 5 2 2 3 1 1 4 1 1 2 3 2 13 16 14 11 7 7 7 8 9 9 8 7 8 11 11 11 9 7
23 25 23 26 27 26 23 20 14 9 3 3 2 1 2 3 1 1 2 4 6 5 5 5 4 1 2 3 1 2 2 2 3 3 3 9 17 17 14 10 7 7 7 8 7 7 9 10 11 12 11 9 8 6
23 25 26 26 25 24 21 17 11 4 2 2 3 3 3 3 3 3 5 5 4 4 5 4 2 3 2 3 1 3 1 3 3 2 4 13 18 15 12 10 8 7 8 9 11 12 14 13 11 9 8 7 6 4
26 17 28 26 26 22 17 14 4 2 2 2 3 4 4 4 3 4 2 3 1 2 1 1 2 5 0 1 2 2 3 2 1 2 9 15 16 15 13 10 7 9 12 14 16 15 14 12 10 9 7 6 5 5
15 24 30 27 24 20 14 4 2 2 3 2 3 2 5 4 4 3 2 4 3 1 1 1 1 2 3 4 3 3 4 3 5 8 12 14 13 13 11 9 10 13 15 17 15 15 13 11 10 9 7 6 5 5
20 33 29 26 22 11 4 3 2 2 1 2 2 3 2 1 1 1 2 6 4 2 1 1 2 2 3 5 3 5 8 8 9 13 14 14 12 12 12 12 14 17 17 17 15 13 11 8 7 5 3 3 3 7
34 30 27 24 15 3 3 2 3 1 1 2 2 3 1 1 1 3 3 5 5 2 2 3 4 3 2 1 1 1 2 9 12 17 17 15 14 14 14 16 18 18 18 15 14 12 9 8 6 4 2 2 5 8
31 27 24 19 6 3 2 3 2 1 3 3 3 5 2 2 3 4 4 7 5 4 4 7 6 3 2 1 3 3 3 8 11 10 15 20 19 16 17 17 18 18 17 17 14 10 7 6 3 1 2 5 8 10
24 21 20 10 2 1 1 4 1 5 3 3 6 3 2 2 4 4 4 7 6 10 7 5 5 6 4 3 2 2 4 9 11 8 7 12 21 22 22 21 21 19 17 14 10 7 7 3 2 3 5 8 10 10
23 15 8 3 1 1 0 8 2 4 3 3 2 1 2 3 3 4 3 6 6 9 12 14 11 8 7 6 5 4 5 7 7 5 6 12 16 18 20 19 18 17 17 14 11 8 5 4 5 5 7 8 8 8
13 4 4 4 3 2 1 3 3 3 2 2 1 2 2 3 4 2 3 4 6 6 10 11 10 10 10 9 7 5 6 8 6 5 7 13 17 19 18 18 16 15 12 11 9 8 6 6 6 7 8 8 8 9
3 2 2 2 4 3 1 1 2 2 2 3 1 2 2 3 1 2 3 4 4 4 6 7 8 9 8 9 9 7 7 7 5 6 11 13 18 21 20 17 17 16 13 9 8 7 7 7 7 8 8 9 10 10
2 6 7 6 4 4 4 4 4 5 3 2 4 2 3 2 1 5 3 2 2 5 7 7 8 10 8 7 8 9 9 9 8 7 11 15 17 18 18 16 15 13 10 10 8 7 7 7 8 8 8 9 9 8
3 4 5 6 4 4 1 2 4 3 4 4 2 3 2 1 4 4 3 4 3 4 6 5 4 5 6 7 7 9 10 9 8 6 13 18 15 11 7 6 7 7 7 6 6 5 5 6 6 7 7 7 7 9
7 6 5 8 6 6 3 3 4 5 3 5 7 3 5 6 4 2 3 2 5 5 5 7 8 7 7 6 8 11 12 11 11 12 14 15 15 13 12 9 8 7 5 4 4 4 4 4 3 3 4 6 7 9
6 7 9 3 4 4 7 5 6 7 6 10 5 3 4 5 4 3 3 3 5 6 5 7 10 10 10 10 11 11 11 12 14 16 16 16 16 15 14 12 9 8 6 5 4 3 2 1 1 2 4 5 7 9
6 13 6 6 5 5 6 8 4 6 8 10 6 3 3 5 4 5 6 6 7 7 7 5 7 11 12 14 15 15 14 14 12 11 10 13 12 10 11 11 9 8 6 5 4 4 3 1 1 3 5 7 9 11
6 14 4 7 4 4 8 9 7 6 6 7 11 10 8 5 8 11 12 12 12 12 12 12 12 13 14 15 16 17 17 16 14 12 10 7 10 10 11 11 10 8 7 6 5 4 2 0 2 4 6 8 10 11
8 7 7 3 2 4 6 6 4 4 4 5 5 8 5 5 5 6 11 16 19 18 16 14 13 13 14 14 16 17 12 14 15 13 10 7 9 12 12 12 11 10 8 6 5 3 1 1 3 5 7 8 10 11
2 3 2 3 3 3 5 5 3 2 3 3 4 5 7 5 6 6 7 10 13 14 12 14 14 12 13 14 14 14 12 9 11 12 10 10 10 12 13 13 12 10 8 6 4 2 1 2 4 6 7 8 9 10

GFSWCAN_850_spd_099.txt.gz
Wind_Speed
8 8 5 28 26 27 27 24 20 18 19 20 18 15 13 12 11 10 8 9 7 7 7 7 6 6 7 5 3 3 3 2 2 3 2 2 2 1 3 1 2 1 2 2 2 3 2 15 2 3 6 6 9 12
8 10 15 32 30 28 26 21 18 19 20 20 17 14 11 10 11 11 9 11 18 9 16 19 17 12 8 5 11 4 3 2 3 3 1 3 2 1 2 2 3 1 1 1 2 2 4 7 7 5 6 9 9 12
8 12 36 35 30 26 24 19 18 19 20 19 16 12 8 8 11 12 17 19 26 25 15 10 14 12 9 8 6 6 3 3 3 4 4 2 3 1 2 2 2 2 4 2 4 3 5 8 9 10 11 13 12 12
6 35 37 34 29 26 23 21 18 19 19 17 14 11 8 7 13 14 21 16 17 11 5 5 11 14 12 8 9 9 15 12 9 5 3 2 2 0 2 3 1 1 2 2 3 6 8 9 9 8 11 12 13 13
15 37 35 32 29 24 25 22 19 19 18 17 15 13 12 13 14 15 17 16 11 5 6 7 14 13 13 12 15 13 10 9 4 3 3 2 2 2 2 2 2 1 2 2 2 3 6 6 7 8 11 11 10 12
35 35 30 28 24 25 22 22 20 19 16 16 16 15 14 16 17 16 6 9 15 23 9 3 6 6 9 10 11 11 9 8 5 3 3 2 2 2 2 2 3 5 5 4 4 5 11 10 9 9 11 10 11 13
31 32 32 28 28 25 24 24 20 18 16 16 16 14 11 9 8 4 7 10 14 10 6 3 2 4 8 6 6 5 7 5 4 3 2 2 1 3 1 2 10 8 11 13 15 16 9 4 8 10 11 12 11 12
29 32 31 30 27 24 26 23 22 19 17 17 15 13 11 10 12 14 14 12 9 7 5 3 1 3 7 3 2 1 2 3 4 2 2 1 3 1 2 6 11 10 10 11 12 1 6 14 12 10 9 9 9 11
30 30 30 27 25 24 24 22 22 21 19 19 17 15 13 6 5 8 12 12 9 5 5 3 4 3 6 3 3 2 2 2 2 1 1 2 1 3 4 16 14 13 10 13 11 11 14 12 11 8 6 7 8 9
29 31 27 24 24 24 24 20 23 20 19 18 15 4 5 6 14 9 4 2 3 5 4 3 3 3 5 2 2 2 2 1 1 1 4 1 2 3 5 16 15 15 14 16 16 12 11 10 9 7 5 6 6 7
28 26 28 25 26 25 24 22 23 20 19 5 3 5 14 9 5 4 4 5 4 2 3 3 3 4 3 2 2 2 2 1 1 2 3 2 3 5 12 17 16 14 12 12 7 6 10 8 9 7 7 7 7 8
31 31 28 27 26 25 23 23 20 17 5 5 13 13 6 4 5 5 3 1 1 1 2 3 4 4 4 3 3 2 1 2 2 6 2 2 1 11 17 16 14 12 13 14 10 10 11 9 8 7 7 7 7 8
32 30 29 27 26 24 23 20 16 10 17 12 6 4 3 4 5 3 3 1 0 3 5 5 2 3 3 2 4 2 0 0 1 3 2 1 8 13 16 16 14 12 11 12 14 13 12 10 10 7 8 10 10 10
34 31 28 26 25 24 21 18 14 16 4 5 3 4 3 2 1 2 1 2 1 2 9 7 5 2 2 2 1 2 1 1 1 1 2 3 14 17 17 15 14 14 12 13 13 13 11 10 10 11 13 13 11 10
30 26 24 24 24 23 20 16 13 5 4 4 2 3 1 2 2 4 4 6 6 8 8 6 5 2 2 3 0 1 0 2 3 2 1 8 19 21 18 15 12 13 14 13 12 12 12 13 14 16 14 12 11 9
28 27 26 27 25 21 16 12 9 4 4 4 4 3 2 3 5 7 10 9 4 5 5 4 2 3 1 2 2 3 2 3 2 1 3 15 20 19 16 14 13 13 13 14 14 15 17 17 15 14 13 11 9 8
28 27 26 24 22 19 13 10 5 4 4 3 3 7 7 8 5 5 5 4 3 3 2 1 2 2 1 1 2 2 3 1 1 2 9 17 20 18 15 14 12 13 15 16 18 19 19 17 15 13 12 11 9 8
29 26 24 25 21 17 11 5 4 4 5 5 3 6 11 8 6 4 3 3 1 2 1 1 1 1 3 3 2 2 3 3 4 7 13 17 17 15 13 12 12 14 18 19 19 19 17 15 14 12 11 9 8 5
26 25 24 23 17 8 3 2 4 4 4 4 6 6 6 4 3 3 1 5 3 3 2 1 2 2 3 4 3 2 4 6 7 12 14 15 14 13 13 11 13 18 20 20 20 18 16 14 12 11 9 7 4 2
26 25 24 19 10 3 3 3 3 3 3 3 4 5 3 3 1 2 0 2 4 2 1 2 4 4 3 1 1 0 1 7 10 16 15 16 15 14 12 13 17 20 20 20 19 17 14 11 10 8 6 4 1 2
28 27 21 11 6 5 4 3 3 3 5 3 5 5 3 2 1 1 2 3 2 3 3 7 5 5 4 2 1 1 2 6 9 8 12 18 18 16 15 17 19 21 22 21 19 16 13 12 10 7 5 1 2 4
25 22 15 8 4 3 4 3 3 4 3 4 5 3 2 2 3 3 3 5 5 7 6 4 4 8 6 3 1 3 5 8 9 8 7 11 20 21 21 21 23 23 21 18 16 14 13 10 7 6 3 2 4 5
22 14 6 3 2 3 2 6 2 2 2 3 2 1 1 1 2 4 2 5 6 8 11 13 12 8 7 6 4 4 5 7 8 7 7 11 14 16 19 20 20 21 20 18 15 13 11 8 6 5 3 4 4 5
13 4 2 2 2 2 3 2 3 3 2 2 2 1 2 2 3 1 3 4 5 5 7 10 10 10 9 8 7 5 6 8 8 7 8 12 17 18 18 18 19 17 15 15 15 12 9 7 6 5 4 4 5 5
3 2 1 2 1 2 2 1 2 1 2 3 2 1 2 3 0 2 2 4 3 3 5 7 9 9 9 9 9 7 6 7 6 6 9 12 17 20 20 19 18 19 18 16 13 10 9 8 7 6 5 5 6 6
2 2 3 6 2 3 4 3 3 5 2 2 3 2 2 2 1 4 3 2 1 4 4 6 9 10 8 7 9 9 8 10 8 6 10 14 17 19 22 23 22 20 17 12 11 10 9 8 7 6 6 5 5 5
1 3 3 5 4 3 0 1 3 3 3 4 2 2 2 1 4 4 3 4 3 4 6 7 6 6 6 8 9 10 10 9 8 5 10 15 14 13 10 12 15 13 13 11 9 8 7 7 7 6 5 4 4 5
5 5 4 7 5 6 3 2 3 4 3 5 7 3 5 6 3 2 2 1 4 5 5 7 7 8 8 8 7 9 11 11 10 10 15 18 18 15 13 12 13 12 11 10 9 7 6 6 6 5 3 2 3 5
4 5 7 3 3 4 6 5 4 5 4 9 4 3 3 4 3 3 2 2 3 5 5 6 8 8 10 10 10 11 10 10 14 18 19 19 19 18 16 13 11 11 9 8 8 7 7 6 5 3 1 1 3 5
5 10 5 4 4 5 6 8 4 6 6 9 5 3 3 5 5 5 5 5 5 5 6 7 7 9 9 11 14 15 14 12 11 9 12 15 15 15 16 15 13 11 9 8 7 8 8 6 4 2 0 2 4 6
6 13 4 5 4 5 8 9 9 7 7 7 11 11 9 6 9 12 13 13 12 12 12 12 11 12 13 13 14 15 16 15 13 11 9 8 13 12 14 13 12 11 9 9 9 8 6 5 3 1 2 3 5 7
8 8 6 3 2 3 4 6 4 5 3 5 6 8 5 5 5 6 11 15 19 19 15 14 13 11 12 14 14 15 11 15 13 11 10 9 11 14 14 13 12 12 11 10 9 7 5 3 1 1 2 4 5 6
2 2 2 1 1 1 4 3 2 2 3 3 3 4 7 5 6 6 8 11 13 15 15 14 15 14 13 14 14 14 14 11 14 13 12 10 11 12 14 14 13 13 11 10 8 6 4 2 1 1 2 4 5 6

GFSWCAN_850_spd_102.txt.gz
Wind_Speed
7 9 6 9 27 29 27 27 25 21 20 23 23 19 18 19 17 15 11 10 5 5 5 4 4 5 6 5 5 7 5 2 3 3 2 3 3 2 4 2 1 4 5 4 3 3 2 13 1 4 5 6 6 9
4 4 6 27 25 25 25 21 22 20 22 24 22 20 18 17 16 15 9 12 12 6 9 16 14 9 7 4 8 4 2 3 2 2 2 3 3 3 4 4 2 3 3 2 4 4 5 8 6 4 4 7 8 9
7 8 10 27 24 27 26 23 21 24 25 22 19 17 16 16 16 13 11 19 18 15 14 8 8 11 9 7 8 3 3 4 3 3 2 2 3 2 4 3 4 4 5 2 5 5 7 6 7 8 8 9 9 9
8 16 29 30 30 29 24 22 24 24 24 21 16 14 13 13 15 13 22 20 15 10 5 6 8 12 13 9 7 6 13 10 8 4 3 2 2 2 2 4 0 3 5 6 5 8 9 7 6 7 9 10 11 11
8 20 38 33 30 29 25 23 23 23 21 19 16 13 13 14 16 18 19 16 14 5 5 9 11 14 14 13 15 13 10 7 4 3 2 2 3 3 3 2 3 1 3 3 2 9 8 9 8 8 10 10 11 11
24 42 38 33 31 27 26 24 24 23 22 20 18 18 21 22 23 20 8 9 15 19 9 4 6 5 10 11 13 11 7 6 4 3 3 3 2 1 3 2 3 4 2 5 6 8 14 14 11 10 11 11 11 12
41 39 34 32 29 30 27 24 23 22 21 20 18 16 15 17 17 7 7 14 17 15 7 5 5 3 7 4 5 6 7 5 4 3 2 2 3 0 1 2 11 8 7 12 17 20 15 13 10 12 13 13 12 12
41 37 31 30 30 28 27 24 22 21 21 20 17 15 15 15 13 13 18 16 12 8 6 4 3 6 5 3 3 3 2 2 4 2 2 2 5 1 2 9 14 13 12 14 10 4 12 18 16 14 12 12 12 11
39 34 35 31 29 29 27 23 22 22 22 21 18 15 14 11 6 10 17 14 9 5 4 3 6 4 6 3 3 2 1 2 0 1 2 3 3 3 1 16 16 16 14 14 9 13 19 17 14 12 12 11 11 11
36 35 32 30 29 26 25 26 24 23 22 21 17 4 4 6 18 13 5 3 4 5 5 3 3 4 6 4 3 3 1 1 2 2 4 2 2 2 5 11 14 14 11 18 18 17 17 16 14 12 11 9 10 10
35 31 28 27 25 23 27 27 23 21 20 10 3 4 15 10 4 4 4 3 2 3 3 4 4 8 3 3 3 1 2 1 1 3 3 2 3 5 7 12 14 13 14 14 9 12 13 14 15 14 13 12 12 12
31 28 27 25 24 21 27 23 20 14 6 4 12 13 5 3 3 4 3 2 1 3 3 5 8 6 4 2 2 2 1 1 1 5 2 3 3 10 13 14 13 12 13 11 10 13 13 13 13 13 13 13 13 13
29 28 26 26 24 25 25 20 13 11 22 14 5 4 2 4 3 2 4 3 3 5 5 8 4 3 3 2 4 2 2 0 2 3 2 2 9 12 14 14 13 11 13 13 14 14 15 14 13 13 15 15 15 14
29 28 27 27 25 24 20 15 15 14 5 5 3 4 3 2 2 1 3 4 4 5 11 8 4 2 2 2 1 2 2 1 2 2 0 4 14 15 13 13 14 13 13 15 16 16 15 14 15 15 16 16 15 13
30 29 27 26 24 21 18 17 11 6 4 4 2 3 2 3 3 4 5 6 4 7 6 6 5 2 2 3 1 1 2 3 3 1 2 6 16 16 15 15 15 15 15 15 16 16 16 15 17 19 18 16 14 12
30 27 25 25 22 18 16 13 6 5 4 3 4 4 3 9 8 9 10 9 6 4 4 3 2 2 2 2 3 3 2 2 2 2 4 12 16 16 16 15 14 14 15 17 17 17 18 19 19 19 17 15 12 10
28 26 26 24 19 15 11 9 3 5 4 3 4 7 8 9 7 5 5 4 5 1 2 1 2 2 3 2 2 2 2 2 2 3 6 11 17 19 17 15 15 16 16 17 18 20 21 20 18 16 15 13 12 10
31 29 24 21 17 13 11 5 5 5 6 6 4 6 8 7 6 5 4 4 1 2 1 1 1 2 2 3 2 2 2 3 3 5 8 14 18 17 15 16 15 16 17 19 21 22 21 19 17 14 14 12 10 7
30 26 21 19 13 5 4 5 5 5 5 4 6 6 6 5 6 4 3 4 4 3 2 1 1 2 2 1 0 2 5 5 6 9 13 17 17 16 16 14 15 18 20 22 22 20 18 15 12 13 12 10 7 5
28 25 20 13 4 4 4 4 4 5 3 3 5 5 3 2 2 2 3 3 3 2 3 2 3 1 1 1 3 2 4 8 12 13 12 16 17 17 15 15 17 20 22 21 18 18 17 15 13 12 10 8 6 4
26 22 16 8 7 6 5 3 4 4 5 3 5 4 3 3 1 1 2 2 3 3 3 5 4 4 4 3 2 1 3 8 10 7 12 16 19 17 17 15 18 19 19 18 18 17 14 11 12 11 10 7 5 3
23 18 10 6 4 4 5 4 5 4 3 5 5 2 2 2 2 2 2 4 4 5 4 3 3 7 6 3 1 2 5 8 8 7 8 11 18 17 17 17 19 18 17 17 16 16 13 13 13 12 9 6 4 3
19 11 4 3 3 4 2 5 2 2 2 4 2 2 1 1 2 2 3 4 4 7 9 10 9 6 6 6 5 4 6 7 7 7 8 10 12 14 15 16 17 18 18 17 16 15 14 14 12 11 8 5 3 3
11 3 2 2 3 3 3 2 2 3 3 2 2 1 2 2 2 2 3 3 4 5 4 7 8 7 8 8 7 7 7 9 9 8 9 10 12 13 14 15 16 16 16 20 18 16 15 13 11 11 8 5 4 3
2 1 2 3 1 2 2 3 3 2 1 2 2 2 2 3 2 2 2 2 2 2 4 6 9 8 6 6 8 8 8 8 8 8 9 10 12 14 14 14 15 16 19 21 18 17 15 12 12 10 8 6 5 4
2 1 1 4 2 2 3 3 3 4 2 3 3 2 2 2 2 3 2 2 2 3 4 6 9 9 8 9 8 10 9 9 9 7 8 11 13 15 17 18 18 21 21 16 16 15 14 13 12 11 9 7 6 4
2 2 2 3 3 3 2 1 2 2 3 4 3 4 3 2 3 1 3 5 4 3 5 7 8 8 6 8 9 9 9 10 10 7 8 13 13 12 12 15 16 17 20 17 13 12 12 13 12 11 9 7 6 5
1 4 3 6 4 4 2 2 3 3 3 4 5 4 3 3 1 2 3 3 3 4 4 5 6 7 8 9 8 8 10 10 10 8 11 15 16 15 14 13 14 14 16 14 13 12 12 11 10 9 8 7 5 4
4 4 6 4 3 4 5 5 3 4 5 6 2 3 3 3 3 4 3 3 3 4 5 7 7 7 8 10 9 10 10 10 11 14 15 16 20 18 16 15 15 15 15 13 13 12 11 10 10 9 7 6 4 3
5 9 5 4 3 5 5 7 3 6 8 9 5 3 3 5 5 6 7 6 6 6 7 8 8 9 9 10 11 13 13 12 12 10 14 16 17 18 18 16 15 15 13 12 11 11 11 10 9 8 6 4 3 2
5 8 4 4 3 2 6 7 7 5 5 6 9 9 6 6 8 12 13 14 13 13 12 12 11 12 12 12 12 14 15 14 14 12 10 9 14 16 18 17 15 14 12 11 11 11 10 10 9 7 5 3 2 2
5 7 5 4 2 3 3 3 3 3 3 4 4 6 4 4 4 6 10 14 17 18 16 14 13 12 12 13 13 14 11 14 13 12 10 9 13 15 17 17 15 14 13 13 13 12 11 8 6 5 3 2 1 1
3 3 3 2 2 2 2 3 2 2 3 3 3 5 6 4 6 7 8 11 13 15 17 16 16 14 13 15 15 15 15 13 16 13 11 11 11 14 17 17 15 14 14 14 13 11 9 7 5 3 2 1 1 1

GFSWCAN_850_spd_105.txt.gz
Wind_Speed
8 9 10 15 14 10 24 26 30 30 22 23 23 27 28 25 23 20 15 7 5 2 6 5 3 7 5 7 6 13 7 3 6 7 5 3 3 3 4 3 5 7 7 5 4 4 3 10 1 2 3 5 4 8
6 8 11 10 13 23 25 30 24 24 23 24 23 23 22 23 23 23 5 9 6 1 7 10 10 7 5 3 7 16 2 12 4 5 2 3 3 3 7 6 2 2 2 2 4 3 5 8 9 4 4 6 6 8
8 8 9 19 27 25 29 27 25 23 23 25 20 20 23 24 19 13 3 13 10 15 14 9 6 9 6 6 9 7 4 5 4 2 1 0 2 5 5 4 5 3 5 3 6 6 6 7 8 8 8 9 9 9
7 4 7 24 25 23 23 24 23 24 26 25 22 21 20 19 17 12 10 17 8 7 5 7 6 7 8 5 5 2 11 7 9 6 2 2 2 2 3 4 1 2 8 7 4 7 9 7 8 9 10 10 11 11
7 9 19 25 25 24 23 23 25 26 23 21 20 19 19 19 18 13 16 17 11 2 6 11 12 11 9 10 12 11 9 8 8 4 3 2 4 3 3 2 4 2 4 3 2 15 7 13 11 10 10 10 10 10
8 12 28 27 28 24 23 25 26 24 20 16 15 12 16 19 18 17 6 7 13 20 7 4 6 6 8 9 10 8 6 5 3 3 3 4 3 2 3 2 2 3 4 6 5 11 13 16 13 11 12 11 10 10
11 31 32 31 27 26 26 26 24 24 20 18 18 20 21 22 15 12 6 13 18 12 5 6 6 4 4 3 4 5 6 4 4 3 2 2 5 3 1 3 9 7 9 14 18 21 15 15 10 13 13 12 12 10
35 36 33 31 28 27 26 25 23 22 22 19 16 15 14 13 10 6 18 19 12 6 4 3 3 6 3 3 4 2 2 2 4 2 2 1 4 2 2 10 13 13 15 17 13 2 15 17 17 15 14 13 12 11
38 34 31 31 31 28 26 25 24 23 21 20 19 18 13 7 4 6 14 12 6 3 3 3 7 4 4 4 2 3 1 2 1 1 2 2 3 3 4 16 17 18 13 15 11 16 19 18 16 15 13 12 11 11
36 32 28 28 27 29 25 24 24 24 23 20 11 4 5 5 22 16 6 2 2 2 2 2 6 4 7 5 2 3 1 1 3 2 3 2 1 6 4 15 16 16 12 16 18 19 18 16 15 14 12 11 11 11
35 34 31 31 29 27 26 26 26 25 20 6 3 4 13 15 5 2 2 2 3 3 4 5 10 8 8 3 3 2 2 1 3 3 3 4 3 7 9 14 15 15 16 15 14 15 15 14 14 14 13 12 13 13
35 33 30 28 27 28 27 25 23 12 7 4 9 14 7 2 2 3 2 2 3 3 5 8 10 10 6 2 3 2 2 2 1 3 2 2 4 12 14 15 16 17 17 14 13 15 13 14 13 13 14 15 15 15
32 30 28 24 27 27 23 20 13 9 17 15 5 3 2 1 2 3 5 3 4 5 6 11 6 4 5 3 3 2 2 1 2 2 2 3 11 14 16 16 17 17 14 13 14 16 16 15 14 15 15 15 15 15
30 27 25 25 29 25 20 14 16 16 4 3 2 3 2 3 2 1 3 5 5 7 14 13 5 3 2 2 1 2 2 2 3 3 2 5 14 15 15 15 16 16 16 18 19 19 18 17 17 14 14 16 15 15
29 28 27 29 24 19 17 15 7 5 4 4 3 3 3 3 5 6 8 9 5 10 12 9 4 4 2 2 2 1 2 3 3 2 2 9 16 17 16 16 16 16 18 18 18 18 16 15 16 17 17 17 16 14
29 27 23 21 19 19 16 10 8 6 4 3 4 3 6 8 6 10 14 12 7 8 7 4 2 3 2 3 3 3 2 2 3 2 5 12 16 15 15 15 14 15 15 16 17 17 17 17 18 20 19 17 15 12
21 25 22 18 15 13 10 5 4 5 4 2 4 8 9 11 9 7 8 7 5 5 2 1 2 1 2 2 2 2 2 3 4 5 6 11 15 16 16 16 15 16 16 16 17 17 18 20 20 19 18 16 14 12
22 25 20 16 12 9 6 5 4 4 4 5 5 7 9 8 8 5 4 4 2 2 1 2 1 2 2 3 2 2 4 6 6 7 9 13 15 15 14 14 15 15 16 16 17 19 20 21 18 14 15 14 12 10
24 23 18 13 6 3 3 4 4 4 6 6 7 6 6 6 6 4 3 2 2 1 2 1 1 2 1 3 3 3 6 5 8 9 10 11 13 14 14 14 14 14 15 17 18 18 19 15 12 13 13 12 9 8
24 21 15 7 5 3 4 4 4 5 3 4 5 5 4 3 3 3 3 2 2 2 2 1 1 3 3 4 4 5 6 8 12 12 11 11 13 14 13 12 12 14 15 16 15 16 15 13 13 12 11 10 8 7
18 15 8 6 7 7 4 3 5 4 5 3 5 3 3 3 2 3 2 2 3 2 1 1 1 3 3 3 4 4 6 9 8 5 11 14 14 13 13 12 14 15 16 17 16 16 15 13 12 12 12 10 10 8
14 11 6 7 5 4 5 5 5 4 3 5 4 0 3 2 2 2 1 3 3 3 2 1 2 3 3 3 2 3 5 8 8 8 11 13 16 15 15 15 16 17 16 16 16 16 15 13 13 12 13 11 8 7
11 5 4 5 4 4 3 2 3 2 2 4 2 2 1 1 1 0 2 3 3 7 5 3 3 4 4 5 4 4 5 6 5 5 9 10 11 13 14 15 16 18 17 16 16 17 16 15 16 14 12 10 8 6
7 2 3 3 4 3 1 2 2 3 3 2 2 1 1 0 1 1 2 2 2 3 2 5 5 4 4 6 4 4 5 6 6 7 8 10 11 12 13 14 15 17 15 16 17 18 17 15 16 13 12 10 8 7
1 3 2 3 2 2 2 3 1 2 2 2 1 1 1 2 1 1 2 1 2 2 3 4 6 6 5 6 6 5 6 6 6 6 7 8 10 12 12 13 14 17 17 20 20 19 16 16 14 13 11 10 8 8
1 1 2 1 2 1 2 2 3 3 2 2 2 2 1 1 2 3 0 1 1 1 3 5 6 6 7 6 5 5 6 7 6 6 6 9 11 13 15 16 17 16 17 18 19 18 17 15 15 13 11 11 10 8
2 2 2 1 1 2 1 1 2 2 3 3 2 3 2 2 2 1 1 1 1 2 3 7 7 7 5 6 9 8 7 9 9 8 7 9 10 11 14 16 16 15 19 19 17 16 15 15 14 13 10 9 8 6
1 4 2 4 3 3 1 2 3 3 3 2 3 4 2 2 1 2 1 4 1 2 3 5 6 6 6 7 8 7 8 8 9 8 10 13 17 16 16 15 15 13 17 18 16 14 14 13 13 12 11 9 8 7
3 3 5 4 3 3 4 3 2 3 1 4 2 2 2 1 3 4 3 3 2 2 3 4 5 5 5 6 7 7 8 9 9 10 10 10 13 15 16 15 16 16 18 17 14 13 13 13 12 11 10 9 8 7
4 7 4 4 3 4 3 3 1 4 4 5 3 2 2 3 4 5 7 7 6 5 5 6 6 6 6 7 8 9 10 10 9 8 9 11 12 16 17 17 17 16 17 16 15 14 13 11 11 10 9 8 7 6
5 7 4 5 3 1 3 4 5 4 4 3 7 6 5 5 7 10 12 13 12 11 10 9 9 9 9 10 9 10 12 12 12 13 13 13 11 15 17 17 17 16 15 13 12 12 12 13 12 10 9 7 6 5
6 6 5 4 3 2 2 1 2 3 3 3 4 4 3 3 4 6 8 11 14 13 11 10 10 11 11 11 11 12 11 12 14 13 11 9 13 16 18 18 16 15 14 13 12 13 13 11 10 9 8 6 5 4
4 4 3 2 3 3 2 3 3 2 4 3 3 3 4 3 4 6 7 9 11 12 11 10 13 14 12 13 13 13 13 13 14 13 12 10 10 14 17 18 17 15 14 13 14 13 12 10 9 7 6 5 5 4

GFSWCAN_850_spd_108.txt.gz
Wind_Speed
13 12 10 11 14 17 22 20 22 24 33 31 36 36 29 27 24 31 24 8 5 4 12 11 6 5 15 7 8 16 7 5 5 6 5 3 2 2 4 2 9 7 5 6 6 8 5 8 3 3 5 8 10 8
11 11 11 12 18 20 13 24 24 30 28 37 32 27 27 25 25 26 17 11 4 3 5 10 12 10 9 4 11 20 4 14 8 6 4 1 2 1 6 5 2 2 2 2 5 3 5 9 12 7 6 11 9 10
10 11 13 14 9 15 25 27 24 21 24 24 22 27 26 21 25 20 13 10 6 8 9 4 5 8 5 9 11 8 4 5 2 1 2 0 2 4 5 3 5 4 6 3 6 6 6 8 10 10 11 12 12 11
9 8 11 6 17 30 28 25 25 23 24 25 26 25 24 22 22 19 11 11 6 3 3 7 5 8 6 5 5 5 10 7 6 3 1 1 1 4 3 4 3 2 7 9 5 8 10 7 9 12 14 13 14 13
7 8 12 15 26 27 25 24 23 26 26 22 22 25 25 21 21 11 11 11 3 4 4 10 13 10 9 10 10 9 9 11 9 4 1 2 3 3 2 4 5 4 3 4 1 18 3 16 13 13 14 14 14 15
5 7 15 24 23 25 24 23 26 25 22 21 17 18 16 19 16 10 6 5 5 5 6 4 7 7 9 9 9 8 5 2 1 2 2 4 3 3 2 2 2 8 7 4 6 14 13 18 15 13 15 15 14 14
4 10 23 23 22 21 23 25 25 21 22 20 17 18 17 20 18 7 4 11 13 11 5 5 4 4 3 4 5 5 4 1 2 3 2 4 4 3 2 3 9 10 11 15 19 22 15 17 12 14 15 15 15 14
5 25 25 23 22 24 25 25 22 20 21 14 16 20 24 14 12 3 9 20 12 5 3 2 4 5 5 5 4 1 3 3 4 3 1 1 4 2 2 7 14 13 15 15 16 0 16 15 18 16 15 16 15 14
24 28 27 25 24 26 24 24 21 20 21 20 22 21 17 8 5 6 16 13 5 2 1 4 6 4 4 3 4 2 2 1 0 1 1 1 3 2 7 15 16 17 12 16 9 16 18 19 18 17 16 15 14 14
32 30 28 27 26 26 25 25 24 23 23 25 21 6 5 4 16 16 6 2 2 1 2 3 7 4 7 5 1 3 2 2 3 2 4 1 2 4 11 16 17 17 14 16 20 20 18 17 17 16 14 13 13 13
31 32 31 29 26 25 25 26 24 24 18 8 4 3 11 21 9 2 2 2 3 2 4 6 10 7 9 3 3 2 2 0 2 3 2 3 3 7 10 16 17 15 16 15 14 17 15 15 17 16 15 14 15 14
29 28 28 30 28 25 25 22 22 13 5 5 8 14 11 3 2 2 2 1 4 3 5 6 12 11 4 3 3 1 1 1 1 2 1 2 4 13 13 15 17 16 15 14 16 17 17 16 16 17 17 17 18 17
30 29 30 28 26 26 25 22 11 11 21 15 7 4 3 1 2 4 5 3 4 3 3 13 6 4 4 5 3 1 1 1 2 2 2 3 12 15 18 21 19 19 17 15 17 17 19 18 17 17 19 16 15 16
28 26 27 29 26 24 21 13 16 12 4 3 3 4 1 3 1 3 5 4 3 7 12 14 5 3 3 4 1 1 2 2 2 3 2 5 12 17 20 19 23 19 16 19 22 22 20 18 17 14 13 13 16 17
26 25 29 27 23 20 16 12 10 6 4 3 4 3 3 3 6 6 7 8 4 14 13 8 4 5 2 2 1 2 2 3 3 3 2 13 17 18 19 21 20 19 19 20 20 19 18 16 15 14 14 16 15 15
30 28 25 21 19 19 12 11 6 4 4 4 5 3 5 7 5 8 10 6 5 9 9 4 2 2 2 4 3 3 2 2 3 2 7 15 17 17 18 18 19 19 18 19 18 17 16 16 15 17 18 17 16 14
22 22 20 19 19 14 11 7 4 5 4 3 3 8 8 12 8 8 10 5 4 4 0 2 2 1 1 2 4 1 2 2 5 6 8 13 17 18 18 17 17 17 16 16 17 17 17 17 16 17 19 18 15 13
25 23 18 16 12 8 9 7 5 4 5 6 4 9 13 10 9 6 3 5 2 3 3 3 3 2 1 2 2 3 5 7 7 8 10 14 16 16 16 17 16 15 15 16 16 17 17 17 18 16 17 16 14 12
22 20 16 11 9 5 4 4 4 4 5 6 7 8 8 8 6 4 3 3 4 5 3 4 1 1 2 5 5 6 8 7 11 11 12 12 12 14 14 14 15 14 15 15 16 15 18 16 14 15 15 14 11 11
20 16 10 8 9 3 4 4 4 4 3 4 5 5 4 4 3 3 2 2 3 1 2 1 2 3 3 8 6 7 9 11 14 13 11 12 13 13 13 14 13 14 15 14 14 17 19 15 12 13 14 12 11 11
15 10 10 8 7 8 5 4 4 4 5 5 5 3 4 4 3 3 3 2 1 2 1 5 3 2 4 6 6 7 10 9 8 6 13 15 15 12 13 13 13 14 16 19 19 18 17 17 16 15 16 15 14 13
10 8 5 7 5 5 5 7 5 4 3 6 3 2 4 3 2 2 2 1 2 1 2 2 3 2 5 5 6 5 11 10 8 8 10 12 18 15 16 15 16 17 18 19 19 21 18 17 18 17 17 16 13 12
7 6 5 5 5 4 3 2 3 2 2 3 2 3 2 2 2 1 1 2 2 3 4 2 4 5 5 5 5 6 8 8 8 9 10 10 12 11 15 15 16 18 19 18 18 20 19 19 17 16 17 13 13 10
4 4 4 4 5 3 1 2 2 4 3 2 2 2 3 1 1 1 2 2 3 2 2 6 5 4 4 5 4 4 7 6 8 7 10 11 12 13 13 14 16 17 17 18 19 20 20 18 18 17 14 14 8 8
2 4 3 3 1 2 2 2 2 2 2 2 1 1 2 1 1 1 1 4 3 2 2 3 5 7 5 7 9 7 7 6 5 8 10 9 9 13 13 13 15 17 18 21 21 21 19 19 18 15 15 13 11 11
3 2 3 1 0 0 2 2 2 2 2 1 1 3 1 1 1 2 2 2 0 2 3 4 6 6 7 6 7 5 5 6 6 6 8 9 10 12 14 16 16 18 18 20 20 20 19 20 17 17 15 15 14 14
1 1 1 1 2 1 2 1 3 2 2 2 3 2 1 2 2 3 3 2 1 3 4 6 7 7 7 8 8 8 8 10 9 10 11 11 10 12 14 15 17 17 20 20 20 19 20 20 19 17 19 16 15 14
1 2 1 2 2 2 2 2 4 3 3 2 5 3 2 1 2 3 2 2 3 3 4 7 9 8 8 8 9 9 8 9 10 8 10 11 13 14 14 14 14 13 16 17 16 17 18 19 18 18 15 13 13 12
2 2 3 3 2 2 3 2 3 3 2 3 1 2 1 2 2 3 3 2 1 1 2 4 4 6 7 7 6 5 6 9 9 9 8 9 12 13 13 14 17 15 18 18 17 16 16 15 15 15 14 13 12 10
4 6 4 4 2 3 1 2 2 1 1 2 0 1 1 1 1 3 4 4 4 3 3 4 4 5 5 6 7 7 8 9 8 7 8 9 12 14 18 19 18 17 20 21 20 19 17 15 14 13 12 11 9 7
6 7 4 5 3 1 4 4 2 3 2 1 4 2 2 3 5 7 8 9 8 8 7 7 7 7 7 8 8 9 10 12 12 12 11 9 8 11 17 16 16 17 17 16 16 15 14 14 13 12 11 9 8 7
6 7 5 4 3 1 2 0 1 2 3 2 3 3 2 2 3 5 6 8 10 10 9 8 7 8 10 10 8 9 8 9 13 13 11 10 11 13 16 16 15 14 15 15 14 14 14 13 12 12 10 8 7 6
5 5 2 0 2 2 3 3 3 2 3 3 2 4 3 2 2 4 5 7 10 10 9 9 11 10 9 12 13 12 11 10 12 14 12 9 9 12 15 15 15 15 14 13 13 14 13 12 11 10 9 7 7 6

GFSWCAN_850_spd_111.txt.gz
Wind_Speed
15 16 15 9 10 13 13 14 19 21 25 28 29 24 21 30 33 31 23 12 5 2 9 8 7 6 7 12 4 13 6 2 2 3 3 2 1 1 3 2 7 4 5 3 3 1 4 7 1 3 8 11 13 10
14 12 12 12 12 15 20 21 23 27 31 31 30 30 25 28 27 26 19 11 3 3 0 15 14 16 11 7 11 19 10 6 8 3 2 2 4 1 5 3 2 1 4 4 2 2 6 8 12 10 12 17 14 14
11 12 13 14 15 22 24 21 20 20 27 31 32 26 32 29 26 22 20 15 11 3 5 4 3 9 3 10 15 6 7 6 4 4 1 1 2 3 2 2 4 3 6 4 4 5 7 9 12 12 13 15 15 15
10 11 12 15 20 11 21 26 25 27 29 30 34 33 29 26 22 15 23 15 7 3 2 4 10 9 5 8 12 7 15 8 8 4 1 1 2 4 1 3 3 5 6 7 5 9 13 11 12 15 17 17 17 15
7 12 12 12 21 27 25 28 30 30 30 30 28 26 24 22 26 17 21 12 15 4 3 8 13 11 10 8 8 5 5 9 9 1 2 1 1 3 2 3 3 3 5 4 3 21 6 17 17 18 19 19 18 22
8 11 10 21 27 28 27 29 29 29 30 30 28 27 23 27 23 16 5 6 20 9 4 2 6 8 10 10 11 7 4 3 4 3 3 4 1 2 3 2 4 13 12 7 8 15 18 22 19 17 20 20 19 18
7 7 21 26 26 26 29 30 28 27 25 24 24 21 28 23 17 6 4 17 13 10 4 2 2 2 4 5 8 6 5 5 4 3 3 5 2 2 2 3 11 19 19 24 26 26 20 22 18 19 19 21 19 18
6 17 24 25 26 29 29 26 24 25 26 25 28 20 19 15 10 3 13 15 11 5 3 3 1 2 2 1 2 2 2 3 6 2 2 3 2 2 3 7 20 20 18 15 11 3 25 20 22 21 22 22 21 20
13 23 22 24 27 27 25 24 26 21 22 24 25 25 17 10 4 3 18 13 4 3 3 3 4 3 5 2 3 1 2 2 1 1 1 2 1 0 6 19 20 20 12 16 15 22 24 25 24 23 23 22 22 22
24 22 24 26 27 26 24 26 28 27 31 30 25 6 3 8 16 19 8 2 1 2 1 2 5 1 6 3 1 2 3 3 1 2 3 3 1 5 18 21 21 17 16 17 24 23 25 25 25 24 22 22 22 22
25 25 25 25 27 27 29 27 30 28 24 16 4 3 16 21 6 3 3 2 1 1 4 1 10 5 6 3 2 2 2 1 2 3 3 1 0 3 19 20 18 15 16 19 19 22 23 23 24 22 21 21 21 20
26 26 26 26 28 24 27 26 27 12 7 5 13 22 13 3 2 4 1 1 1 3 2 5 12 7 5 3 3 3 2 3 1 2 3 0 1 18 21 22 19 17 17 16 20 20 20 21 21 22 23 23 20 18
29 27 29 26 27 25 23 20 13 12 20 21 6 3 3 4 4 4 3 2 2 1 3 16 3 3 4 5 3 3 4 1 1 2 2 1 11 15 19 21 20 19 17 18 21 20 21 22 22 21 21 19 18 17
29 27 30 26 25 24 21 15 14 13 5 3 3 4 2 1 2 3 2 2 2 5 22 16 6 4 4 4 1 4 2 2 2 1 2 2 14 18 20 22 22 21 21 24 24 24 23 21 19 17 16 17 18 18
30 29 27 23 25 19 18 16 10 9 4 4 4 3 3 3 7 5 4 5 10 18 14 9 5 4 1 3 1 3 3 2 3 1 1 12 19 22 22 22 21 21 21 22 23 23 21 19 19 18 16 17 18 19
30 29 25 20 18 15 13 8 7 4 4 4 6 3 7 6 3 4 7 10 9 12 10 4 2 3 1 4 2 4 2 1 2 2 9 15 19 22 23 23 23 21 19 21 22 20 19 18 17 16 18 18 18 16
31 26 21 20 16 13 11 6 4 5 4 4 3 7 12 11 7 5 9 8 5 3 1 2 3 3 1 1 3 2 2 2 8 8 10 11 16 20 21 20 19 20 19 19 19 18 18 18 16 18 21 21 19 17
29 23 20 13 16 17 11 5 5 6 5 8 4 10 14 11 9 9 8 10 7 3 3 1 2 3 1 0 2 2 5 8 8 9 11 12 15 15 17 17 17 16 16 17 17 18 18 17 18 20 21 21 19 17
23 19 14 10 10 7 4 6 6 4 6 7 9 11 11 9 8 4 2 8 7 5 4 3 2 1 2 3 3 8 12 10 13 13 12 11 12 14 15 15 16 15 15 16 18 18 17 17 18 21 21 19 18 18
17 14 13 11 8 5 4 4 4 5 4 4 5 8 5 5 3 4 7 7 6 3 2 2 2 2 4 7 4 9 9 12 16 17 14 11 11 14 15 16 16 14 15 16 15 17 20 17 14 18 18 16 16 16
14 12 8 10 12 7 5 3 5 4 5 5 7 4 4 5 4 6 6 5 5 5 2 4 6 6 8 8 7 9 10 9 11 9 17 18 15 14 14 13 13 15 17 19 19 25 21 21 16 16 18 14 15 16
11 10 9 6 5 5 6 7 6 5 4 5 2 3 4 3 3 2 2 2 2 4 4 4 4 3 8 9 8 8 9 8 6 7 6 12 18 15 17 16 13 16 17 19 20 24 20 18 18 22 21 21 18 14
7 5 5 6 5 4 2 3 3 2 3 3 2 3 2 2 2 1 1 1 1 2 1 3 3 3 5 4 6 8 9 8 8 8 7 8 12 10 14 13 12 16 17 18 20 21 20 20 19 20 20 18 17 15
6 4 4 4 5 2 2 2 3 3 3 2 2 3 2 2 1 0 1 4 4 3 3 7 6 3 4 5 5 9 11 8 7 7 10 10 12 11 11 11 14 16 16 17 20 23 22 22 20 19 18 17 14 13
3 6 4 3 2 1 2 2 3 2 2 1 2 2 2 2 1 1 1 4 3 2 2 2 6 7 6 7 9 6 6 7 7 9 11 9 9 11 12 12 14 16 18 20 22 22 24 22 20 18 17 15 13 17
4 5 3 1 2 1 2 2 1 2 3 1 2 3 1 1 1 1 2 2 1 2 3 4 6 8 7 6 8 8 8 8 7 8 10 10 10 9 15 16 18 18 19 19 22 23 24 21 18 18 15 15 15 14
2 1 3 2 3 3 3 3 5 3 2 2 3 3 2 1 3 2 3 1 2 3 4 4 7 7 8 8 8 8 8 9 9 11 10 10 11 10 11 15 17 17 18 21 21 20 21 20 19 18 19 19 18 15
2 2 3 2 2 3 1 1 2 2 2 3 6 2 3 1 2 2 3 2 3 5 7 8 7 7 6 6 7 9 9 9 11 10 9 9 10 11 13 13 12 13 17 19 18 17 17 18 21 20 18 19 18 16
2 3 4 3 1 1 2 2 2 2 3 0 3 1 1 3 4 3 5 3 2 3 5 5 8 8 8 8 8 7 8 11 12 11 10 11 12 12 13 13 12 13 15 16 16 15 15 16 19 18 18 17 16 15
3 6 2 5 2 2 2 2 1 0 2 4 4 3 2 2 2 1 3 3 4 4 3 4 3 6 6 7 6 5 8 9 6 5 8 6 9 14 15 15 16 16 17 19 19 19 18 18 17 16 16 15 14 13
6 5 2 3 3 3 3 2 1 1 1 2 2 3 2 3 3 4 7 7 7 6 6 7 7 7 7 7 7 7 8 11 12 11 10 6 6 12 17 17 16 15 16 18 18 17 17 16 15 15 14 13 12 11
5 5 3 1 3 1 1 2 1 1 2 1 2 3 1 1 3 4 5 7 9 7 7 8 8 7 9 9 8 7 6 6 11 11 10 9 9 9 15 16 15 15 15 17 17 16 15 14 14 14 13 12 10 9
5 7 3 2 3 4 3 2 3 2 3 3 4 5 5 3 2 4 4 6 7 8 7 8 9 8 8 8 10 10 9 8 9 10 10 9 8 8 11 13 14 15 16 16 16 15 15 15 13 12 11 9 8 7

GFSWCAN_850_spd_114.txt.gz
Wind_Speed
11 14 15 22 12 8 10 15 19 22 24 25 26 28 28 29 30 31 27 24 13 3 4 5 7 15 7 12 5 7 6 3 1 3 3 2 3 3 3 4 6 9 6 3 3 2 5 1 0 5 7 13 15 11
12 12 14 15 9 8 13 12 13 18 22 26 25 28 30 31 29 32 24 22 13 7 3 3 6 3 18 17 14 18 5 7 8 3 1 3 2 0 4 3 3 1 5 5 2 2 3 6 10 14 11 19 13 16
11 12 13 14 13 15 17 20 20 20 23 25 28 29 24 24 35 38 27 19 12 6 5 3 4 9 18 13 17 7 6 8 5 3 4 2 3 3 3 3 3 2 3 4 4 4 5 9 12 12 14 16 15 16
10 11 13 18 19 21 22 27 29 29 31 27 27 24 21 28 32 31 21 19 8 6 3 3 4 2 12 9 23 12 16 10 11 5 3 3 2 1 3 4 3 4 5 7 4 7 11 8 12 15 16 16 18 17
10 11 17 18 24 11 14 18 25 29 30 29 28 28 29 30 25 20 18 19 11 4 4 4 10 6 9 8 12 12 13 12 8 3 2 2 1 2 1 3 2 1 5 4 4 18 8 18 19 17 18 19 20 22
9 14 18 7 20 25 22 24 27 31 36 35 33 34 30 26 23 19 6 15 16 12 3 2 4 9 9 11 12 10 10 7 5 4 2 3 4 3 3 1 1 3 8 11 6 26 11 26 20 19 20 19 23 23
10 6 23 24 23 24 29 33 36 36 38 37 33 30 27 29 20 8 5 22 20 10 3 2 2 3 4 6 10 10 8 6 4 4 3 3 2 3 2 2 5 9 12 17 25 26 22 25 20 23 22 20 19 19
7 23 26 24 27 29 30 31 31 32 32 31 29 30 28 20 15 14 30 19 14 4 3 3 1 2 3 3 3 4 4 4 6 3 3 2 3 3 2 6 16 18 23 26 16 1 24 26 25 25 23 23 22 21
28 27 26 29 27 28 28 28 27 28 28 30 30 26 20 11 9 16 17 11 5 2 4 3 4 2 3 3 3 4 4 3 3 2 1 2 2 1 6 18 22 26 14 15 10 21 29 30 26 28 28 24 25 24
26 26 28 28 27 31 27 24 27 29 28 28 23 6 5 8 23 16 4 3 3 2 1 2 4 1 5 2 3 2 3 2 1 2 2 3 1 4 18 23 21 17 16 17 27 25 27 26 29 30 28 26 26 26
25 28 29 27 27 28 24 28 33 31 26 12 4 5 25 22 8 3 3 2 1 2 2 3 6 4 4 3 2 1 2 0 2 3 3 1 1 1 15 19 19 15 17 16 18 24 28 30 31 30 27 26 26 25
29 29 28 27 29 30 31 31 26 21 10 6 15 23 11 4 2 4 1 1 1 3 2 4 8 6 5 3 3 3 2 2 1 1 3 0 1 13 20 21 17 16 16 16 18 22 22 24 26 27 26 26 25 22
28 28 28 30 30 31 27 18 10 10 22 21 4 3 1 3 6 4 3 2 2 0 5 8 3 4 4 5 4 3 4 2 1 3 2 2 8 18 22 21 19 17 17 17 20 21 23 24 24 25 24 23 21 21
27 27 25 29 24 23 11 10 18 15 6 3 3 4 3 3 1 1 1 2 2 11 22 15 5 4 3 3 0 4 2 2 3 1 3 2 14 20 22 21 20 19 18 22 22 23 23 23 23 20 20 22 20 21
27 27 25 22 21 16 11 16 8 7 4 4 4 3 2 2 5 4 4 6 14 17 16 11 6 4 2 3 1 3 4 1 4 4 1 9 16 20 22 22 20 20 21 24 24 25 22 19 21 21 20 20 20 20
28 27 23 18 17 16 13 8 6 6 4 4 5 4 8 6 2 4 10 13 11 15 11 6 3 3 1 3 3 3 4 4 3 1 7 13 15 18 21 21 18 18 21 22 23 23 21 20 19 19 19 19 19 19
23 21 17 13 12 10 6 7 5 5 4 4 4 9 12 10 5 6 10 10 8 5 2 3 3 3 2 1 1 1 2 1 6 7 9 10 14 19 19 19 19 19 20 18 21 21 20 19 18 19 21 21 20 20
28 22 19 17 14 10 8 6 4 6 5 8 4 7 11 8 7 10 14 14 7 4 2 1 3 3 3 2 2 2 3 5 5 7 8 9 12 15 16 18 18 18 18 18 19 19 18 18 19 19 21 24 24 23
20 15 12 11 11 5 4 5 5 4 7 5 7 9 10 8 9 9 12 10 9 6 4 2 4 1 2 1 2 4 8 8 10 9 9 9 11 14 16 15 14 15 15 16 18 18 18 18 18 20 23 25 25 24
13 11 10 8 9 4 4 5 5 5 3 4 5 8 5 5 6 5 8 8 7 3 5 3 1 2 2 3 2 5 9 10 13 14 11 11 12 12 13 14 15 14 14 15 16 17 18 18 17 20 23 24 23 23
10 8 9 9 10 7 5 4 5 4 4 4 6 6 4 8 9 9 7 8 5 4 2 3 5 9 6 6 5 6 9 12 15 13 17 16 14 14 15 14 13 14 15 17 18 19 20 19 19 21 21 20 19 19
7 4 4 5 5 4 5 6 6 5 4 4 3 3 4 2 3 5 5 7 3 3 3 3 3 5 7 6 6 6 5 5 5 4 7 12 16 16 17 16 15 14 15 16 17 21 21 17 16 20 20 19 20 19
4 4 5 5 4 4 2 2 3 2 3 1 3 3 2 2 2 1 2 1 2 3 2 2 3 3 4 5 6 7 6 6 6 7 5 7 9 9 13 12 10 11 14 15 16 21 18 18 18 21 21 19 19 17
6 4 4 4 5 1 2 2 3 3 4 2 2 3 2 2 1 1 1 3 4 3 4 5 4 3 6 5 5 9 8 6 5 6 6 6 10 9 7 10 9 9 9 13 21 21 20 20 18 20 19 21 20 18
2 5 3 3 2 3 3 3 2 3 1 1 3 1 2 2 1 1 1 3 5 3 3 2 10 7 7 7 7 6 7 6 6 5 6 7 6 8 9 9 9 11 13 17 21 21 21 20 19 19 20 20 19 17
4 5 3 1 2 3 2 2 1 3 2 2 1 3 3 1 1 2 1 3 3 3 5 5 7 10 8 8 10 11 8 7 9 8 8 9 8 8 9 14 14 15 16 17 19 23 22 23 21 20 19 18 16 15
3 2 2 3 2 2 3 3 3 4 2 3 2 3 3 2 3 2 2 2 2 4 4 5 6 7 9 8 8 8 7 6 9 10 9 8 9 9 7 9 13 14 16 17 17 18 18 22 22 20 18 17 15 13
2 2 3 2 3 3 3 2 2 2 2 2 6 2 6 5 2 3 3 3 5 5 6 6 5 5 5 6 6 7 8 9 7 9 9 7 8 8 8 7 8 11 12 14 15 16 17 18 20 19 17 16 16 15
2 5 4 2 1 1 1 2 2 1 2 1 4 1 2 2 3 3 6 3 4 5 5 8 9 8 7 7 7 7 7 7 9 11 11 10 11 10 9 9 10 10 11 13 14 14 14 15 15 16 15 14 14 14
3 6 3 2 3 2 2 0 1 1 1 4 4 4 3 4 5 3 4 5 5 4 3 3 4 7 8 8 8 6 6 9 10 9 8 7 8 11 12 11 11 12 13 15 17 17 16 14 14 16 16 16 16 15
5 3 0 3 3 2 3 2 1 1 2 1 3 4 4 4 3 4 7 7 6 6 7 7 7 6 7 7 8 7 7 8 9 7 6 4 5 7 12 12 12 12 12 14 16 15 15 15 16 16 16 15 14 13
5 4 2 1 1 2 1 1 1 1 1 1 1 2 3 1 3 4 7 9 11 10 10 9 9 8 8 8 8 7 5 6 8 11 10 9 7 6 10 12 12 12 12 13 15 15 14 13 14 14 13 13 12 12
4 6 4 4 4 4 4 4 5 4 5 3 4 6 6 4 4 5 5 7 10 11 10 10 10 9 8 7 7 8 8 8 7 8 10 10 7 7 10 13 13 13 13 13 14 14 14 13 12 12 12 12 11 11

GFSWCAN_850_spd_117.txt.gz
Wind_Speed
12 13 15 16 18 24 27 26 37 37 41 38 36 34 32 30 30 32 33 28 30 7 10 13 11 8 6 11 5 6 5 2 2 1 2 3 3 5 4 4 6 8 7 4 4 3 6 3 3 6 4 10 16 17
13 14 16 18 17 20 11 12 18 21 30 33 34 35 34 31 28 32 26 31 26 11 4 10 13 14 21 17 16 18 4 6 7 3 2 4 2 2 5 3 1 2 6 4 3 4 1 2 1 9 13 20 14 15
14 15 16 16 16 13 10 15 16 25 22 26 29 31 31 31 33 36 32 29 23 7 9 9 12 10 19 22 20 8 6 12 7 6 3 2 3 3 3 3 4 1 2 4 3 3 3 8 13 11 15 15 14 15
15 16 17 17 17 19 18 17 18 15 20 26 25 28 30 33 34 32 29 27 21 8 3 3 2 10 14 21 22 15 11 18 6 5 2 2 3 2 2 3 3 2 6 7 3 5 8 6 12 17 18 18 19 18
12 16 19 21 25 27 25 25 27 23 22 25 27 26 31 30 32 28 27 28 18 6 5 3 3 5 9 12 17 9 14 16 7 2 3 1 3 4 1 2 1 3 5 4 5 16 5 14 21 20 20 20 20 23
16 20 22 28 31 26 26 35 37 29 29 30 26 25 22 30 43 32 8 21 19 9 2 1 1 4 7 18 17 13 11 9 4 4 2 3 3 5 2 2 0 1 7 6 5 21 7 22 23 18 19 20 21 21
17 14 10 11 18 15 16 24 35 35 36 29 25 24 28 29 29 12 7 13 21 9 2 2 3 4 7 9 10 9 7 5 3 4 2 3 3 7 2 2 4 5 9 12 19 24 19 25 14 20 20 20 20 22
5 19 16 23 28 25 29 34 38 36 33 28 29 33 27 21 19 4 11 26 17 4 2 3 1 2 3 3 3 2 3 3 5 3 2 2 3 2 2 3 9 12 17 22 15 2 17 22 24 21 21 25 25 25
23 19 20 23 28 32 34 38 42 40 38 34 29 25 23 17 5 17 20 15 7 2 3 2 3 2 2 3 2 3 3 3 2 2 1 2 2 1 3 13 17 22 9 16 7 8 20 27 27 25 26 25 27 26
21 22 23 24 27 29 31 33 33 34 33 33 32 7 5 10 28 18 6 6 5 3 2 2 3 1 4 2 3 2 4 1 2 2 1 3 1 4 6 16 18 16 11 16 19 18 26 27 28 29 28 26 26 26
23 21 26 25 24 28 30 30 32 35 22 14 4 4 24 25 9 3 3 2 1 1 2 3 4 3 2 3 2 3 1 1 2 2 2 1 1 1 9 14 17 8 9 11 7 13 25 28 30 29 27 25 25 26
24 24 24 21 23 23 25 27 25 17 11 8 18 22 8 3 3 3 1 1 0 3 2 4 4 5 4 3 3 3 2 2 1 2 3 1 2 7 15 17 13 10 12 9 8 18 22 24 25 26 26 25 23 23
23 23 24 26 30 25 17 12 12 21 28 20 6 3 2 3 6 4 3 1 1 1 5 6 3 3 3 5 4 3 4 2 0 3 2 3 2 15 19 16 14 12 12 11 12 15 17 21 22 24 25 22 21 22
24 26 28 24 22 19 14 12 28 16 5 4 3 4 2 2 1 1 1 2 1 8 21 17 6 3 4 3 1 4 2 2 3 1 4 2 11 20 20 17 17 16 14 14 15 17 19 20 23 22 20 21 22 22
26 22 20 20 16 12 14 15 10 2 4 4 4 3 2 1 2 2 0 2 10 13 14 10 6 4 3 4 2 3 3 1 4 4 2 7 14 19 20 19 18 17 16 17 19 20 20 20 20 20 20 21 22 21
24 22 18 11 10 10 11 6 7 7 4 4 6 3 3 3 3 5 7 8 11 16 11 7 3 3 2 3 3 2 5 4 3 1 3 10 14 18 20 18 16 14 15 17 20 20 18 17 19 19 20 20 20 20
17 15 13 12 9 13 8 5 7 7 5 4 4 8 5 5 5 5 9 7 6 6 2 2 3 2 2 2 1 2 2 1 5 5 8 9 10 14 15 14 14 14 14 17 18 19 18 17 17 19 21 21 20 20
16 14 11 9 9 6 13 7 5 5 5 8 4 5 7 6 6 10 10 8 5 3 2 1 4 3 3 2 1 1 2 4 5 6 7 7 7 10 12 13 14 14 14 15 15 17 18 17 18 18 19 22 22 22
16 12 11 9 6 3 4 5 5 4 7 4 5 7 7 6 12 12 9 11 11 9 5 3 4 2 1 1 1 2 6 6 7 7 7 7 6 9 10 11 13 15 15 14 15 17 17 18 18 19 21 23 25 25
12 10 7 7 1 4 4 5 4 5 3 3 5 7 5 5 6 9 12 10 8 4 5 3 1 1 2 2 3 2 7 8 10 10 8 8 8 9 9 11 12 12 13 14 15 16 18 18 17 18 20 24 26 26
9 9 8 6 5 9 5 4 5 4 4 3 3 4 4 9 8 6 8 7 6 3 2 2 3 6 6 6 5 6 7 9 10 8 11 11 10 10 10 11 11 12 13 15 15 16 17 17 17 18 20 21 21 22
3 2 4 6 4 4 4 5 5 4 3 2 3 3 3 2 4 5 6 7 3 3 3 3 3 5 6 5 6 7 8 7 6 3 2 8 11 12 13 12 12 12 12 12 13 15 15 15 14 16 18 19 19 21
3 3 4 4 3 3 2 1 3 2 2 1 2 2 3 3 2 3 3 3 2 4 4 3 3 4 6 5 4 5 4 3 3 3 2 3 6 6 7 10 10 9 10 11 11 12 14 14 14 18 20 20 22 22
4 3 3 3 4 1 2 2 3 2 2 1 2 2 2 1 1 1 1 2 4 4 4 4 4 3 2 2 4 4 4 3 3 3 2 2 4 4 4 5 6 4 5 9 11 15 16 16 15 17 21 21 21 21
2 5 3 3 2 3 3 2 2 3 1 1 3 1 2 2 1 0 2 4 5 3 5 6 10 5 5 5 5 3 3 3 2 2 2 3 3 4 4 4 6 5 8 12 15 19 16 17 15 16 19 19 20 20
4 4 2 2 1 3 3 2 2 3 2 2 1 4 4 1 2 3 1 5 4 4 5 5 6 9 7 6 7 8 7 5 4 7 6 6 6 6 5 7 10 11 11 11 14 20 17 18 17 18 18 19 20 19
2 3 1 2 1 2 3 2 2 3 2 3 2 3 3 2 3 3 3 3 3 3 4 5 5 7 8 6 5 6 7 6 4 6 8 7 7 6 6 5 7 8 11 13 14 14 16 17 18 17 17 20 19 17
2 3 3 1 3 3 3 1 1 2 1 2 5 2 6 6 3 3 3 5 5 4 5 4 5 5 5 6 5 5 6 7 7 5 6 6 6 6 7 7 7 7 9 11 13 13 13 13 16 19 19 18 16 15
1 4 3 3 2 2 1 1 2 1 0 3 4 2 3 2 2 3 4 3 6 6 6 8 8 6 6 6 5 6 7 6 5 6 8 7 7 6 7 8 8 8 10 10 11 11 10 11 12 16 17 15 13 13
1 3 3 1 3 2 1 1 1 2 2 3 2 4 4 4 4 5 5 5 3 3 2 3 5 6 6 6 6 6 5 6 8 8 7 6 5 5 7 9 9 9 11 12 13 15 15 13 14 15 16 15 14 15
2 1 2 1 2 2 2 2 2 0 2 2 3 3 4 4 4 5 6 6 6 6 5 5 5 4 5 6 7 6 5 5 7 6 5 5 2 2 7 8 8 9 9 11 12 13 14 14 14 15 16 15 14 14
3 2 3 0 1 3 2 0 1 2 2 2 2 3 3 2 3 4 8 11 12 10 10 9 9 8 7 6 6 6 5 4 6 8 8 7 4 3 6 11 10 10 10 10 12 13 12 12 12 14 15 14 13 12
4 5 4 2 3 3 4 3 2 2 3 3 4 6 7 4 4 5 5 8 10 12 12 12 10 10 9 8 7 6 6 6 6 7 9 9 7 6 7 11 11 11 10 10 11 12 12 12 12 13 13 12 12 11

GFSWCAN_850_spd_120.txt.gz
Wind_Speed
10 11 11 12 12 12 14 19 18 23 25 26 26 27 29 29 27 27 26 24 26 10 15 12 18 13 12 12 5 5 4 4 3 7 4 4 3 5 3 4 5 8 7 4 3 3 7 6 4 6 3 5 19 22
11 11 12 14 16 18 19 25 23 29 36 34 31 31 31 30 29 27 24 25 22 20 9 10 23 23 23 14 11 15 4 5 9 3 3 3 2 1 5 4 3 4 6 5 7 5 1 2 1 4 9 17 18 25
12 13 15 17 18 17 19 18 11 19 28 37 40 36 34 31 28 30 28 23 24 18 18 21 23 20 20 22 22 7 10 6 7 5 3 2 2 3 3 4 3 1 2 3 3 2 3 4 8 11 10 15 18 20
16 17 18 19 20 19 17 13 15 16 16 23 31 37 35 34 31 28 30 26 27 5 3 8 11 19 19 22 25 31 12 13 8 10 2 2 1 3 3 3 3 3 7 5 1 2 5 7 10 15 14 14 16 18
18 19 17 19 22 22 19 18 15 11 22 19 27 30 31 32 31 29 30 28 28 16 3 5 8 8 16 21 27 30 24 16 8 2 3 3 4 4 1 2 1 4 5 5 5 13 5 8 22 19 18 18 19 23
17 19 24 27 29 29 26 24 19 16 16 26 23 26 30 32 30 30 13 31 31 20 3 2 3 6 6 12 20 20 13 21 14 8 2 2 2 4 3 1 1 3 5 4 2 17 6 16 23 21 19 21 22 24
21 26 31 35 34 39 36 30 25 22 19 23 24 25 29 30 33 30 6 7 27 22 4 1 1 3 13 12 9 6 9 11 5 4 2 3 2 4 2 2 2 3 5 8 14 20 15 24 15 22 19 21 21 20
11 7 9 4 6 15 30 37 31 30 24 26 26 27 25 32 25 21 9 16 20 11 4 2 1 0 4 6 6 8 6 5 3 3 2 2 2 3 1 2 6 10 15 18 8 2 11 22 25 21 21 24 24 24
8 17 23 17 18 24 32 40 37 31 31 25 18 23 25 19 12 11 17 25 18 4 2 2 3 2 1 3 4 3 3 3 2 2 1 2 1 1 2 10 12 17 7 11 8 10 19 24 27 25 25 25 27 28
17 23 31 29 34 38 39 38 36 33 29 34 32 7 6 11 20 26 14 13 7 4 3 1 2 0 3 2 4 2 4 1 2 2 1 3 1 2 2 10 14 12 10 15 17 14 21 24 27 26 28 27 27 28
21 25 26 34 36 36 37 41 41 40 36 18 4 4 21 20 8 6 5 4 3 0 3 3 3 3 2 3 2 3 1 1 2 2 2 1 2 1 7 12 17 7 6 9 1 2 17 22 26 26 26 25 25 25
22 23 25 26 26 28 32 33 33 26 8 7 20 26 9 1 2 4 1 1 1 3 2 3 4 4 4 3 3 3 2 2 1 3 3 1 2 5 12 14 14 6 7 6 1 4 15 17 20 23 23 23 22 23
22 23 24 26 24 25 26 27 31 34 26 10 5 4 1 4 6 4 3 1 1 2 5 5 3 3 4 4 4 3 4 1 0 3 2 3 1 11 15 15 11 9 7 6 7 9 12 14 18 20 22 20 19 20
26 25 22 20 15 12 13 30 21 15 7 4 3 4 2 2 2 1 0 1 1 3 16 16 5 3 4 4 1 4 1 2 3 1 3 2 6 15 16 13 11 10 7 7 9 10 11 14 17 16 16 18 19 21
22 21 19 19 13 14 25 16 11 7 4 4 4 4 3 2 1 1 1 1 6 9 13 8 6 4 3 4 2 3 3 1 4 4 2 2 10 17 16 11 8 8 9 9 11 12 12 12 14 15 14 15 17 20
16 18 18 17 14 14 11 7 8 6 5 5 6 3 3 1 2 4 5 4 6 12 9 6 3 3 2 3 3 2 5 4 3 1 2 4 11 15 14 11 10 9 9 10 13 12 12 10 12 14 14 16 17 19
13 11 10 10 11 5 1 4 6 7 5 4 3 7 4 3 3 4 5 5 6 4 2 2 3 1 1 2 2 2 2 2 3 3 5 7 8 11 13 13 12 11 10 12 14 16 13 11 12 15 16 18 18 18
11 8 6 7 7 8 10 7 5 5 6 8 3 6 8 7 4 7 6 7 5 3 2 2 4 4 2 3 1 2 3 5 4 5 6 6 6 8 10 10 11 11 10 11 12 13 13 13 14 15 16 19 20 19
6 4 4 3 5 5 4 6 6 4 6 4 5 6 6 7 15 9 8 9 8 8 6 4 4 2 1 2 1 2 6 6 7 7 7 6 5 7 8 8 8 10 10 11 11 12 13 13 14 15 18 20 22 23
5 4 1 1 8 4 4 5 5 5 3 3 5 7 4 4 8 10 9 8 6 4 5 3 2 1 2 3 3 1 6 8 9 10 8 7 7 7 7 6 8 9 11 12 11 12 14 14 14 14 16 19 22 24
6 5 4 2 6 8 5 3 4 3 3 3 4 4 4 6 5 7 8 7 5 3 2 3 5 7 6 4 4 6 7 8 9 7 9 9 8 7 7 7 7 8 9 10 11 13 13 14 14 15 15 16 20 22
5 5 4 4 5 4 5 6 4 3 3 2 2 3 3 2 4 6 7 6 3 2 3 6 6 7 7 7 8 7 7 8 7 4 6 7 8 8 9 9 8 8 8 8 9 11 12 13 13 14 15 16 18 18
3 4 4 4 3 3 2 2 2 2 2 1 2 2 2 2 2 4 3 2 3 6 8 5 4 5 7 7 6 6 6 5 4 3 2 3 5 4 5 6 8 8 8 8 9 9 10 12 13 14 17 19 21 21
4 3 3 3 3 1 2 2 2 2 2 1 2 2 1 1 1 2 1 1 4 5 4 4 4 5 6 6 6 5 3 3 3 3 2 2 3 4 3 4 6 5 5 6 9 11 12 13 14 18 22 23 23 22
1 5 2 3 2 3 3 2 3 2 1 1 2 0 2 2 1 1 2 4 7 4 4 6 6 5 4 4 3 2 4 3 2 0 2 1 2 4 4 4 6 5 6 8 11 12 16 15 14 16 19 21 23 23
4 3 2 2 1 2 3 1 2 3 2 2 1 2 3 2 2 3 2 6 5 5 4 5 4 10 7 6 6 7 6 5 3 2 3 2 4 4 4 4 6 8 8 8 9 15 16 17 15 15 18 19 19 20
2 3 1 1 0 2 3 1 2 3 2 3 2 2 3 1 3 3 4 3 4 5 5 5 5 7 9 8 5 5 8 8 6 3 5 4 6 5 5 4 3 6 8 10 10 12 17 17 17 15 16 16 16 16
2 3 3 1 2 2 3 1 1 2 2 2 5 2 5 6 3 3 4 3 4 5 4 4 5 7 6 7 5 5 5 6 5 4 2 4 5 6 7 7 7 7 8 10 10 11 12 13 15 15 15 15 15 16
1 3 2 3 2 2 1 1 1 2 2 4 3 2 2 1 2 3 3 2 7 8 6 8 9 7 7 7 6 5 7 7 7 5 5 4 3 4 6 6 6 7 10 12 12 11 10 11 11 12 14 14 14 15
1 2 3 1 3 2 2 1 2 2 3 4 3 2 2 3 3 4 5 5 4 4 5 8 9 7 7 7 6 5 4 4 6 6 6 5 5 5 6 7 8 9 12 13 13 14 14 13 13 13 16 17 17 16
2 1 1 1 2 1 1 4 4 5 3 5 5 4 5 3 4 7 8 8 8 8 6 5 5 4 3 3 3 4 4 3 6 7 6 4 3 3 7 8 8 9 10 11 13 14 13 13 13 13 15 16 16 15
2 2 2 1 1 3 3 2 2 2 3 4 4 5 4 3 4 5 10 15 14 13 11 10 9 7 5 4 3 3 3 2 1 6 7 6 5 3 6 10 9 9 10 10 11 12 12 12 13 13 14 15 14 13
2 3 3 2 1 3 5 4 2 2 4 3 6 8 8 5 7 6 7 10 13 14 14 12 11 10 9 8 6 5 5 5 3 2 7 10 9 7 6 9 10 10 10 10 11 12 12 12 11 12 14 14 13 13

GFSWCAN_850_spd_123.txt.gz
Wind_Speed
8 8 8 8 8 7 5 4 5 5 9 13 16 19 22 24 24 24 23 17 20 9 8 6 7 6 8 10 5 5 3 3 5 8 7 5 5 6 3 3 6 9 7 4 3 6 10 11 8 8 1 2 10 17
8 9 9 10 10 10 9 9 10 9 9 14 17 19 20 22 23 21 20 20 18 10 5 13 21 20 16 14 16 11 4 5 6 4 4 3 4 4 3 4 4 6 5 6 8 4 1 3 2 4 6 7 15 19
11 12 12 12 12 12 12 12 16 16 19 22 22 23 22 23 24 24 21 16 15 11 12 20 25 19 20 24 19 8 12 10 7 7 3 2 5 4 6 6 4 3 2 3 3 4 3 6 8 6 6 10 17 21
14 15 15 15 14 14 14 14 16 7 15 23 31 28 26 25 23 24 23 19 16 6 3 7 9 16 27 25 26 24 17 6 11 10 4 3 4 5 4 1 4 3 8 5 2 1 1 9 14 14 12 13 17 20
17 18 19 19 18 15 14 12 8 10 13 14 27 32 33 27 25 21 20 22 20 18 3 4 8 17 17 18 24 27 28 24 7 4 4 4 3 3 1 1 3 6 5 5 5 8 4 3 21 18 17 18 20 24
18 20 21 21 18 17 14 13 11 11 12 13 21 32 33 31 25 21 11 22 24 24 7 3 6 10 16 18 23 24 27 22 11 6 3 4 6 5 4 3 0 2 4 4 1 10 4 6 18 19 17 17 19 22
21 23 26 27 27 26 23 19 16 12 13 16 19 24 29 29 30 29 8 4 24 27 4 3 2 5 7 19 16 19 24 14 8 3 4 4 3 3 2 3 2 1 3 6 9 13 10 15 10 18 16 19 20 22
22 23 23 27 34 36 28 24 21 14 9 23 20 24 26 27 27 33 12 6 16 26 8 3 2 2 5 5 6 8 8 8 9 4 3 2 3 1 3 2 5 6 11 13 7 3 3 16 22 20 20 23 25 26
12 8 2 10 17 26 36 31 23 19 22 22 22 25 25 24 15 26 31 10 30 10 4 2 1 1 3 4 6 5 5 2 3 2 1 2 1 3 1 9 11 14 6 9 6 7 14 19 23 23 23 24 24 24
20 18 15 19 23 33 38 34 27 23 30 28 30 13 4 15 12 14 12 12 12 6 6 2 5 2 5 6 4 5 3 2 2 1 2 0 2 1 2 8 13 12 9 13 16 10 14 17 21 23 23 23 23 26
32 34 35 32 36 39 35 33 32 28 26 23 6 4 18 28 16 4 4 3 3 2 5 3 4 2 3 2 2 2 2 0 2 1 2 1 1 1 6 14 16 9 11 9 3 1 11 17 23 22 22 22 23 26
32 39 38 41 38 36 35 35 34 29 14 5 17 20 14 4 2 2 0 0 2 2 2 3 3 3 3 3 3 2 2 0 2 1 1 1 0 5 13 17 9 8 9 4 3 4 12 15 19 20 23 23 23 26
33 27 34 38 39 38 35 33 28 30 24 10 4 5 2 0 4 4 3 1 1 3 5 5 2 2 3 4 4 2 3 1 1 1 1 0 2 10 14 16 10 10 7 6 8 10 11 14 16 17 21 21 20 21
26 24 23 24 29 29 31 20 11 10 3 3 3 3 2 2 2 1 1 1 0 2 11 12 5 2 3 3 1 3 1 0 2 1 1 0 5 14 15 12 11 11 8 8 10 11 12 13 15 16 15 17 18 20
23 22 19 18 23 22 18 14 12 8 5 5 5 4 3 2 1 2 2 2 2 11 8 7 6 3 2 3 2 3 2 1 2 2 1 1 9 16 15 12 9 10 9 8 9 11 11 12 14 15 15 15 16 18
21 23 26 25 18 19 15 10 7 7 5 4 6 2 3 1 2 4 5 3 5 9 8 5 3 3 2 3 2 1 4 3 1 2 2 4 13 15 13 11 10 8 7 8 10 10 10 10 13 15 16 15 16 18
12 17 14 14 8 4 6 6 4 6 4 4 3 6 3 2 2 3 3 4 3 3 2 2 3 1 2 2 2 2 2 1 2 3 4 5 11 14 12 10 9 8 8 10 11 11 11 10 13 15 16 17 17 18
9 8 8 6 4 3 11 6 5 5 5 7 3 6 8 7 3 7 5 7 4 4 2 2 4 3 2 2 2 2 3 5 5 6 7 6 7 8 10 10 10 10 9 10 11 12 13 12 13 15 15 17 19 20
6 5 6 9 8 3 4 6 5 4 5 3 4 6 6 6 11 9 8 9 9 8 8 3 3 2 2 1 1 4 8 7 7 6 7 6 5 7 10 9 10 12 11 11 12 13 12 12 12 14 15 18 21 22
6 4 4 9 8 4 4 5 4 5 3 2 4 5 3 4 6 7 8 6 5 4 5 3 1 1 2 1 1 2 7 9 10 10 7 7 7 8 9 9 10 12 12 12 11 11 12 13 13 13 15 17 20 22
5 5 4 7 6 8 5 3 5 4 3 3 4 4 3 3 5 5 6 5 4 3 2 3 6 7 5 2 2 5 7 8 10 8 9 10 10 9 9 8 10 11 11 11 11 11 12 13 12 14 14 16 18 19
7 5 2 4 5 4 5 5 4 3 2 2 2 3 3 2 3 4 5 5 3 2 4 8 9 10 9 7 7 6 9 9 7 6 9 10 12 12 11 10 10 10 10 9 10 10 11 12 12 13 14 15 16 18
5 4 4 4 3 4 2 2 2 2 2 0 2 2 2 1 2 3 3 2 2 5 8 10 8 8 9 10 8 9 8 8 6 5 5 7 8 8 9 10 11 10 10 11 10 10 11 11 13 13 14 16 18 20
5 3 3 3 4 1 1 2 2 2 2 1 2 1 0 1 2 3 1 1 5 9 7 6 6 10 10 10 9 7 6 5 4 4 2 2 6 6 6 7 9 10 9 10 10 11 12 13 13 15 17 19 22 24
2 4 2 3 3 3 3 3 3 3 1 0 2 1 2 1 1 0 2 5 9 8 8 7 7 5 5 5 6 7 6 6 5 3 2 2 2 5 5 6 7 7 7 8 10 12 13 14 14 16 18 21 24 25
3 3 2 3 1 2 3 1 2 3 2 1 2 1 2 2 1 3 2 7 8 9 8 8 9 11 10 8 8 8 7 6 5 3 3 4 4 5 5 4 5 7 7 7 8 11 14 15 14 15 18 20 22 24
2 2 1 1 1 2 2 1 2 2 2 3 2 2 2 1 3 2 5 6 6 7 7 7 7 9 12 10 8 8 9 10 9 6 5 6 7 7 6 6 5 7 7 8 9 9 14 16 15 14 16 17 18 19
2 3 3 3 1 1 3 1 1 3 2 2 4 2 5 5 2 3 4 5 6 7 6 7 7 9 9 9 8 7 7 7 7 6 5 6 8 9 8 7 6 5 6 8 9 11 14 13 14 14 15 16 17 17
1 3 3 3 1 2 1 1 1 1 1 3 3 2 2 2 2 3 4 4 6 8 7 8 9 9 9 10 9 8 8 8 9 8 8 8 8 8 8 7 6 6 8 12 12 11 12 12 12 13 13 14 14 15
1 0 2 1 3 2 3 2 2 3 4 5 3 2 3 4 4 5 6 6 4 8 10 10 10 10 10 9 9 8 8 7 9 9 10 9 8 8 8 8 8 8 11 14 15 15 15 15 15 15 16 16 16 16
1 1 1 0 2 2 1 3 6 8 7 6 8 7 6 4 4 8 10 10 9 10 10 12 12 11 10 10 8 6 6 6 8 9 10 8 6 6 8 9 10 10 11 13 15 15 14 14 13 13 14 16 17 17
2 1 2 1 1 2 4 3 3 3 3 4 5 7 4 6 5 5 10 17 17 15 13 11 10 8 6 6 5 4 3 2 3 6 9 9 7 6 8 11 11 11 12 13 13 14 14 13 14 14 14 15 16 16
2 2 2 2 1 1 3 3 2 3 5 4 5 6 8 5 6 6 7 12 18 18 16 14 13 12 11 10 9 8 7 6 4 4 9 10 9 8 8 12 12 12 12 12 13 14 14 14 14 13 14 15 15 15

GFSWCAN_850_spd_126.txt.gz
Wind_Speed
10 8 8 8 8 8 5 7 11 10 11 22 28 24 26 24 22 20 15 14 8 6 8 10 11 10 14 17 8 9 7 6 9 8 6 7 8 11 14 13 16 11 7 7 13 10 11 11 11 8 0 1 4 8
9 8 8 8 8 8 7 4 5 8 11 15 25 24 23 23 21 20 13 13 12 6 5 8 11 12 10 9 13 14 6 7 10 7 8 6 7 5 14 14 11 9 11 8 8 3 3 20 2 7 3 3 7 13
10 10 10 11 10 9 8 6 4 5 5 8 13 17 21 22 21 17 13 17 13 6 4 7 13 19 20 18 13 10 9 10 4 4 2 4 7 6 10 12 13 9 8 6 1 7 7 13 10 6 6 5 10 14
11 12 12 12 11 10 9 7 6 5 7 14 18 18 18 18 18 16 14 15 12 7 4 6 13 20 22 22 27 20 12 8 10 8 5 3 4 5 6 6 8 5 7 9 9 5 5 13 16 13 10 10 13 15
13 14 15 14 13 12 8 6 5 5 3 9 22 22 21 20 19 17 14 15 12 6 1 2 7 15 18 23 24 22 21 15 8 6 5 5 4 2 2 3 9 8 7 9 7 3 7 2 13 14 13 14 17 20
17 16 16 17 16 14 10 7 9 8 5 16 18 29 24 23 21 16 5 16 17 11 2 3 4 8 18 17 20 21 22 16 11 4 5 8 5 5 4 4 3 10 5 5 2 5 3 5 11 12 13 15 17 18
18 20 21 20 19 17 15 13 11 7 5 13 17 26 29 24 23 14 5 4 19 16 3 3 3 6 15 14 12 15 17 12 13 6 5 4 5 14 3 6 5 5 5 5 8 8 6 8 6 12 14 15 16 17
25 26 27 26 24 23 23 18 14 10 11 11 16 26 26 23 18 19 6 2 20 14 4 3 3 3 14 9 6 14 11 13 12 7 4 3 3 6 4 5 5 5 6 8 3 1 1 9 14 15 15 17 20 21
8 21 29 30 30 29 24 18 14 13 20 17 22 24 22 17 10 13 16 10 23 8 5 5 3 0 10 6 8 6 7 4 8 5 4 6 5 5 1 5 8 10 5 7 5 6 10 13 16 17 17 19 20 22
3 12 17 20 28 34 28 23 17 21 24 27 31 13 7 14 10 10 7 4 11 9 6 3 2 3 5 5 3 7 6 5 5 5 5 4 4 3 1 4 10 10 9 10 11 8 11 14 16 17 17 17 18 21
22 22 21 23 31 36 34 26 26 33 31 24 8 6 13 23 14 9 6 8 8 4 8 4 10 1 1 3 3 1 3 2 4 4 3 3 3 3 6 10 11 9 11 4 1 3 9 12 17 17 17 17 18 20
34 33 36 38 38 36 34 30 29 31 19 10 9 15 20 9 6 3 3 3 4 2 5 4 6 3 4 1 2 2 2 2 3 2 3 2 3 7 11 12 9 9 9 2 1 5 10 13 15 16 17 18 20 21
33 35 36 36 33 31 29 29 21 20 22 10 3 3 1 3 4 5 6 3 3 5 6 8 4 2 3 3 3 1 2 2 4 3 2 2 6 10 13 10 10 9 7 4 5 9 11 14 14 16 18 20 23 24
24 28 29 28 29 29 26 21 21 10 2 2 3 3 2 2 1 0 2 2 2 2 10 8 4 2 2 2 1 2 2 2 4 3 2 3 9 12 13 9 11 10 8 7 9 10 11 13 14 14 16 17 19 21
20 21 22 24 24 19 14 10 10 5 2 2 2 2 1 1 0 0 1 3 1 7 6 6 5 2 2 2 1 3 3 3 2 1 2 5 10 15 14 12 11 10 10 9 10 10 11 12 14 15 15 16 17 19
20 23 24 21 16 10 6 9 12 5 3 3 3 2 0 2 3 2 3 3 3 6 5 3 2 2 2 2 2 1 2 2 2 2 3 6 14 16 14 11 12 11 10 11 10 10 10 12 13 14 15 15 16 18
14 17 10 7 7 7 8 6 3 4 3 2 3 3 2 3 4 2 2 2 4 1 2 1 2 2 2 2 2 1 0 2 5 5 4 6 15 15 13 12 12 12 11 12 11 11 11 12 13 13 15 15 16 17
13 10 9 9 7 5 8 4 4 4 4 5 2 4 3 3 2 3 3 3 2 3 2 2 3 2 1 2 2 3 4 5 5 5 6 7 10 13 13 14 13 12 11 12 12 11 10 10 12 12 13 15 17 18
7 7 7 9 5 2 3 4 4 3 3 2 2 3 4 4 7 6 7 9 8 8 7 2 2 1 2 1 2 5 7 6 6 6 7 7 8 9 11 11 11 11 10 11 11 12 12 11 10 12 14 16 17 19
7 6 5 8 5 3 3 3 3 4 2 2 2 2 2 2 3 6 6 4 3 2 3 2 1 2 2 2 3 3 7 10 9 8 6 6 8 9 10 9 10 12 11 12 13 12 12 12 13 13 14 16 18 20
5 3 4 8 5 7 4 3 4 3 3 2 2 2 2 2 3 3 4 4 3 2 2 2 5 6 5 2 2 4 8 9 9 7 8 8 10 9 10 9 10 12 12 13 12 12 12 10 12 14 15 16 17 18
6 4 2 4 4 4 4 4 3 2 2 3 2 1 2 1 1 2 3 3 2 2 3 5 7 7 6 4 5 7 8 9 10 9 9 9 9 10 9 9 10 11 11 11 11 11 11 12 13 13 14 16 16 18
6 4 3 4 3 3 2 2 1 1 1 2 2 2 1 1 1 1 0 1 2 5 7 7 8 7 7 9 8 8 9 8 7 7 10 10 9 10 10 11 12 11 11 11 11 11 12 13 13 14 15 16 17 18
6 2 3 3 4 2 1 1 1 2 2 2 2 2 2 1 1 2 2 3 5 9 8 9 8 10 9 9 8 9 9 8 6 5 5 6 7 8 9 8 11 12 11 10 12 12 13 13 14 15 16 17 18 19
2 3 2 3 2 1 1 1 1 1 2 1 1 1 2 2 2 2 2 4 9 9 9 9 8 8 8 8 8 9 8 7 7 5 4 3 4 6 6 7 8 10 11 11 12 13 14 14 15 16 16 17 19 21
1 1 1 1 1 1 2 2 2 2 1 2 2 1 1 2 2 3 2 7 9 10 12 12 10 7 7 8 7 9 9 10 8 5 5 5 5 5 6 6 6 8 9 10 10 12 13 14 15 15 16 17 19 21
1 2 1 1 1 2 2 1 1 1 3 3 2 3 2 3 3 1 3 7 7 11 11 10 11 13 11 11 11 10 11 10 10 8 7 6 8 8 7 7 7 7 6 8 9 10 11 14 15 14 15 16 19 21
2 1 1 3 1 0 1 1 2 1 1 1 2 4 2 2 1 2 3 6 7 8 9 11 11 11 11 13 12 11 12 12 12 12 9 8 9 11 10 8 7 6 6 7 8 9 11 13 13 13 14 16 18 19
1 1 1 1 0 1 2 2 1 2 1 2 2 1 1 2 2 4 5 6 7 8 9 9 11 11 11 12 13 12 11 11 11 11 10 7 9 10 10 9 8 7 7 9 10 8 11 12 12 11 11 13 14 16
1 1 1 1 1 2 3 4 2 3 4 5 4 4 5 8 7 7 8 9 7 10 11 11 11 12 13 13 13 13 13 14 15 12 9 9 9 10 9 9 9 8 9 12 13 14 15 15 14 14 14 14 16 17
1 1 1 2 2 2 3 3 5 7 9 7 9 10 10 5 7 11 13 12 12 11 14 16 16 16 15 15 13 11 11 11 10 12 12 10 10 10 10 10 10 10 11 13 14 14 14 14 14 15 16 16 16 16
2 2 1 2 1 2 3 3 3 4 3 5 8 7 4 5 6 6 12 17 20 19 17 16 18 17 14 12 11 10 8 5 6 8 11 11 9 8 8 10 11 12 12 13 14 14 14 14 14 14 14 15 16 17
2 2 3 2 2 2 3 3 2 3 4 4 5 5 8 5 6 6 8 13 20 21 20 16 14 13 12 12 11 9 8 8 6 5 9 10 10 9 8 10 12 12 12 12 13 14 15 15 15 14 14 14 15 16

GFSWCAN_850_spd_129.txt.gz
Wind_Speed
15 16 13 12 10 9 8 10 15 18 19 17 22 26 23 28 29 29 23 27 20 6 9 6 9 15 15 17 10 12 9 7 8 7 6 9 8 11 15 13 16 9 7 10 13 17 18 16 2 12 6 2 1 1
15 13 10 8 8 9 9 9 13 18 23 7 20 21 22 33 20 21 15 11 10 10 8 7 9 9 9 16 15 16 8 10 10 7 7 6 9 7 14 15 17 16 13 11 11 6 7 7 11 11 4 3 3 4
13 12 10 10 9 9 8 7 8 11 16 17 22 23 23 22 21 13 15 14 11 9 6 7 12 13 12 8 10 11 15 7 4 2 4 4 8 8 12 14 16 18 16 9 8 11 14 12 12 8 8 6 5 7
14 13 12 10 9 9 7 5 5 5 7 5 17 20 21 19 20 15 15 15 10 8 3 7 13 16 16 15 14 14 8 4 2 3 7 4 3 5 7 9 9 9 8 9 14 16 6 11 18 14 9 7 8 11
14 14 13 12 11 9 6 5 4 1 2 10 14 17 16 15 15 12 11 11 8 1 1 6 4 15 20 20 21 18 14 9 5 5 5 6 13 8 9 7 10 15 13 10 12 4 12 5 13 14 13 11 13 16
15 15 14 15 14 11 8 5 3 1 3 7 18 18 16 15 14 10 5 5 10 5 1 3 5 9 19 20 20 17 15 13 10 5 7 11 15 5 4 7 9 9 9 10 8 2 2 2 5 10 12 13 14 15
20 20 18 16 15 13 9 7 4 4 2 8 15 18 16 15 11 3 3 5 13 9 2 3 2 3 11 16 16 15 13 8 9 4 7 13 14 5 7 13 5 9 5 5 5 5 4 6 4 9 11 13 15 15
23 22 21 19 17 14 12 9 6 6 5 13 16 24 18 16 8 4 1 3 12 5 3 3 1 3 16 7 7 10 9 10 8 7 6 6 5 4 5 12 16 7 6 6 7 4 2 6 10 11 13 15 17 18
28 27 28 24 20 17 16 15 12 8 12 13 22 24 18 10 5 4 8 4 14 5 3 4 3 2 15 8 7 6 8 3 6 5 7 6 7 7 7 6 8 8 7 7 5 5 6 9 11 12 13 15 17 19
14 21 34 30 27 20 19 18 13 19 18 28 29 11 5 9 10 7 1 3 4 7 7 4 1 3 13 8 6 8 9 5 6 8 10 4 6 9 7 4 7 9 7 8 7 6 8 9 11 12 13 13 15 18
16 17 27 34 28 26 21 17 25 26 28 22 6 5 9 17 8 4 3 5 7 4 8 10 14 4 12 5 5 7 5 5 5 5 8 4 5 7 7 9 11 10 10 5 2 2 5 8 11 12 13 13 15 17
22 22 25 32 34 27 24 29 28 27 16 8 7 18 16 7 5 5 4 4 6 5 8 5 6 10 5 4 2 5 2 4 2 9 4 3 4 8 11 11 10 11 7 4 3 3 6 9 11 12 13 13 16 18
33 32 33 35 34 30 32 29 24 16 15 11 3 6 6 6 6 4 5 4 3 5 7 8 6 5 7 4 4 2 3 2 4 3 3 3 10 10 12 11 10 9 6 6 6 7 8 9 10 12 14 16 20 21
33 33 33 31 28 26 31 21 17 17 6 3 3 3 3 4 4 2 6 4 3 2 9 10 4 2 2 3 1 3 2 2 3 3 2 4 10 13 12 10 11 9 8 8 8 9 11 13 13 13 14 17 20 20
29 29 28 27 19 12 11 13 7 3 2 1 1 2 2 1 1 2 3 1 2 3 9 7 3 2 2 2 1 3 3 3 4 0 3 8 12 13 12 11 10 9 8 7 7 8 9 10 11 11 11 13 14 15
21 21 20 17 13 8 11 9 6 0 1 1 2 2 2 3 3 3 1 3 5 6 5 2 2 2 1 2 3 3 2 2 3 3 5 8 14 14 13 11 10 10 9 8 8 8 9 9 9 10 10 11 12 13
14 13 13 7 7 4 8 5 2 1 2 2 2 2 1 3 4 2 1 3 2 4 1 1 2 1 2 1 2 1 1 3 6 5 4 9 16 15 13 11 11 11 10 10 9 9 10 10 10 10 11 11 10 12
7 6 8 6 6 5 5 2 1 1 1 2 2 3 3 3 0 1 1 1 1 2 0 2 2 1 2 1 1 3 4 5 6 6 7 9 14 13 12 12 12 11 11 12 11 10 10 10 10 9 10 11 11 12
5 4 7 10 4 3 2 1 1 2 1 2 1 1 1 1 2 2 2 3 3 4 5 2 1 1 1 2 2 5 8 7 8 6 7 8 10 11 11 12 12 11 10 11 11 9 9 9 8 10 10 12 11 13
3 3 4 5 2 1 2 1 1 1 2 2 2 1 1 1 0 2 2 1 1 1 1 1 1 2 2 3 2 4 7 8 9 9 7 6 8 10 10 11 11 11 10 11 11 11 10 10 10 11 11 12 13 14
3 2 2 4 1 3 2 1 2 1 3 2 3 2 1 1 1 1 1 1 1 1 2 1 3 4 4 3 3 4 6 8 8 6 9 8 8 8 9 10 10 11 10 10 10 10 11 9 10 11 13 13 14 14
4 3 1 2 2 2 2 2 1 3 2 2 4 2 1 2 2 2 2 3 2 2 3 4 6 5 3 2 4 6 8 9 8 8 8 9 9 9 9 8 8 9 9 10 10 11 10 11 12 12 12 14 15 16
5 2 0 1 1 2 1 1 2 2 2 3 3 2 2 2 2 2 3 3 3 4 5 6 7 5 6 6 5 7 6 7 7 7 8 8 9 11 9 8 8 9 8 9 10 12 12 14 13 12 13 15 15 16
5 0 1 1 1 2 1 1 2 3 1 3 2 2 1 2 1 3 3 4 4 8 8 10 10 8 7 7 6 7 7 6 6 6 6 7 7 7 7 7 8 9 10 11 11 11 13 12 12 14 14 14 15 16
2 1 1 1 1 2 2 2 1 2 2 3 1 2 2 3 2 3 3 5 10 12 11 10 9 9 9 8 7 7 8 7 6 5 5 5 6 6 6 6 6 7 10 12 11 12 12 12 13 13 14 15 16 16
3 1 1 2 2 2 2 2 3 3 2 3 4 0 1 2 3 4 1 4 9 14 14 13 11 9 8 8 9 9 8 8 7 6 5 5 6 6 7 7 6 7 8 10 11 11 12 12 13 14 14 15 16 17
3 2 2 2 1 2 1 1 1 2 3 4 2 3 3 4 4 1 1 6 6 9 9 10 11 10 9 8 8 8 9 9 9 7 7 5 5 5 7 8 6 6 7 6 8 10 11 12 13 14 14 14 16 18
1 2 2 3 3 2 2 2 3 3 2 2 2 4 3 2 1 1 2 4 7 7 9 11 12 12 10 11 12 13 13 13 11 11 10 9 9 8 9 9 7 7 6 5 7 8 10 10 12 13 13 14 15 17
2 1 2 1 2 3 4 3 2 2 3 3 2 2 2 2 3 3 4 5 8 9 10 13 14 14 14 14 14 13 12 12 13 11 10 7 8 8 11 10 8 8 7 6 7 8 7 10 11 11 11 12 14 16
1 1 2 1 2 3 3 4 3 5 5 7 6 8 10 9 11 10 10 10 12 10 9 10 11 13 12 13 14 14 13 13 14 12 8 8 9 10 8 9 9 8 7 8 9 10 11 12 12 12 12 12 13 15
1 1 3 3 3 1 3 3 5 7 8 9 12 15 15 10 11 14 16 15 13 13 12 14 14 13 14 14 13 12 11 14 15 14 15 15 13 11 10 9 9 9 9 10 11 11 12 13 13 14 13 13 13 14
3 3 2 2 2 1 2 4 4 5 5 9 12 11 8 6 8 7 14 15 19 19 19 16 17 17 17 14 14 14 12 10 9 8 11 12 11 10 10 10 10 11 11 11 11 12 12 12 12 12 13 13 13 14
3 4 4 4 3 3 3 3 3 4 6 5 7 10 11 7 6 7 8 10 16 19 19 18 16 16 16 15 14 12 10 9 7 6 7 10 12 10 8 8 10 11 11 12 13 13 13 13 13 12 12 13 13 15